     2              OBSERVATION DATA    GPS                 RINEX VERSION / TYPE
teqc 1998Mar9 19981223 02:12:01UTC                          PGM / RUN BY / DATE
                                                            COMMENT
Original Marker Name: SD18                                  COMMENT
Campaign Name: HPGN 1998                                    COMMENT
4-Character Station Name: SD18                              COMMENT
6-Character Antenna Code: TRMCMP                            COMMENT
Vertical Measurement Point: BPA                             COMMENT
Vertical Offset to Rinex Ref. Point: 0.0000                 COMMENT
Radial Measurement Point: RRP                               COMMENT
Radial Offset to Rinex Ref. Point: 0.0000                   COMMENT
Antenna Height from Field Measurement: 2.2200 m             COMMENT
Original XYZ: 0.0000 0.0000 0.0000                          COMMENT
New XYZ position is based on association with SCEC monument COMMENT
E1C8S0M0+0011. Position of that monument is believed to be  COMMENT
valid to within 1 m horizontally; vertical accuracy         COMMENT
should be no worse than 3-times this value.                 COMMENT
                                                            COMMENT
Revised Rinex header created by UCSD GPS archive for        COMMENT
GSAC on 01-Jun-1999 (1999:152) 23:14:56 GMT                 COMMENT
For assistance contact dagnew@ucsd.edu or hjohnson@ucsd.edu COMMENT
                                                            COMMENT
SD GPS 18                                                   MARKER NAME
unknown CITY OF SAN DIEGO                                   OBSERVER / AGENCY
6332 TRIMBLE 4000 SSE NP 7.24; SP 3.07                      REC # / TYPE / VERS
217 TR GEOD L1/L2 GP                                        ANT # / TYPE
 -2427650.0000 -4778682.0000  3445867.0000                  APPROX POSITION XYZ
        2.2200        0.0000        0.0000                  ANTENNA: DELTA H/E/N
     1     1     0                                          WAVELENGTH FACT L1/2
     7    C1    L1    L2    P1    P2    S1    S2            # / TYPES OF OBSERV
     0                                                      INTERVAL
  1998     6    15    19    21   15.000000                  TIME OF FIRST OBS
  1998     6    16     1    19   45.000000                  TIME OF LAST OBS
                                                            END OF HEADER
 98  6 15 19 21 15.0000000  0  6G 5G 6G 8G10G17G24
  19837077.2344     852344.60056    664164.50456                  19837079.9884
        14.0004         12.0004
  19928543.1484    -721712.74956   -562373.02956                  19928546.0664
        15.0004         13.7504
  23173889.2814     880282.24451
         2.5004
  19384670.4064     230650.27156    179727.68456                  19384673.5944
        17.0004         16.7504
  21357130.8524    -855694.90955   -666774.62355                  21357135.6094
         9.0004          5.0004
  21398086.1174     842840.02455    639658.48654                  21398091.3674
         9.2504          4.2504
 98  6 15 19 21 30.0000000  0  6G 5G 6G 8G10G17G24
  19844505.0084     891377.84946    694580.00345                  19844507.7384
        14.0004         11.5004
  19922708.3674    -752374.24246   -586265.07946                  19922711.2154
        15.2504         13.7504
  23181694.0944     921306.51141
         2.7504
  19387033.1724     243068.31946    189404.08946                  19387036.1954
        16.7504         16.2504
  21350245.4224    -891876.03045   -694967.64045                  21350250.8954
         9.0004          5.0004
  21405217.1334     880312.43845    668857.77445                  21405221.1764
         9.5004          4.5004
 98  6 15 19 21 45.0000000  0  6G 5G 6G 8G10G17G24
  19851963.2344     930572.93846    725121.62745                  19851966.1524
        13.7504         11.2504
  19916892.9304    -782936.63846   -610079.90446                  19916895.9304
        15.2504         13.7504
  23189509.1024     962363.93841
         2.7504
  19389435.4844     255691.48446    199240.31946                  19389438.4384
        17.0004         16.7504
  21343382.8524    -927940.75745   -723069.97445                  21343387.5514
         9.0004          5.0004
  21412360.9144     917855.00345    698111.73644                  21412365.5784
         9.5004          4.2504
 98  6 15 19 22  0.0000000  0  6G 5G 6G 8G10G17G24
  19859452.3754     969927.48546    755787.50245                  19859455.3404
        13.5004         11.2504
  19911096.2274    -813398.41446   -633816.32046                  19911099.0274
        15.2504         13.7504
  23197326.7034    1003453.82541
         2.7504
  19391876.5234     268519.92746    209236.51346                  19391879.5944
        16.7504         16.5004
  21336541.9844    -963890.01945   -751082.34745                  21336547.2114
         9.0004          5.0004
  21419518.4844     955468.98145    727421.29844                  21419524.2624
         9.2504          4.0004
 98  6 15 19 22 15.0000000  0  6G 5G 6G 8G10G17G24
  19866970.8984    1009437.29346    786574.34745                  19866973.7344
        13.5004         11.0004
  19905318.6564    -843759.44746   -657474.24146                  19905321.3634
        15.5004         14.0004
  23205152.1334    1044575.82741
         2.7504
  19394357.1254     281553.97646    219392.91546                  19394359.9844
        17.0004         17.0004
  21329722.6644    -999725.21845   -779005.83945                  21329727.4344
         9.0004          5.7504
  21426690.3134     993152.99545    756785.45444                  21426695.2344
         9.7504          4.2504
 98  6 15 19 22 30.0000000  0  6G 5G 6G 8G10G17G24
  19874518.1644    1049099.77246    817480.16645                  19874521.2934
        13.5004         10.7504
  19899560.9304    -874017.03046   -681051.55446                  19899563.7774
        15.7504         14.7504
  23212983.6724    1085726.84141      8549.86651                  23212989.5434
         3.0004          0.7504
  19396877.2274     294797.90946    229712.86446                  19396880.0044
        17.2504         16.7504
  21322926.1334   -1035442.88045   -806837.73545                  21322931.5944
         9.2504          5.5004
  21433873.8134    1030905.72545    786203.14944                  21433878.5234
         9.7504          4.2504
 98  6 15 19 22 45.0000000  0  6G 5G 6G 8G10G17G24
  19882094.4144    1088912.41946    848503.00045                  19882097.4494
        13.2504         11.0004
  19893821.8754    -904175.24346   -704551.43746                  19893824.5474
        16.0004         14.5004
  23220817.9064    1126901.80841     40634.32141                  23220822.8054
         2.5004          0.7504
  19399437.7734     308253.72246    240197.91846                  19399440.4454
        17.2504         17.0004
  21316150.9304   -1071042.64745   -834577.76545                  21316156.0744
         9.0004          5.5004
  21441070.7584    1068724.88845    815672.61444                  21441075.8204
         9.7504          4.2504
 98  6 15 19 23  0.0000000  0  6G 5G 6G 8G10G17G24
  19889699.1804    1128874.98946    879642.65745                  19889702.1454
        13.2504         10.7504
  19888100.8524    -934239.75246   -727978.29846                  19888103.1024
        16.2504         14.7504
  23228657.7194    1168098.81141     72735.66141                  23228669.5944
         2.7504          0.7504
  19402038.8914     321921.47746    250848.11446                  19402041.5514
        17.2504         17.5004
  21309399.5084   -1106524.35845   -862225.81145                  21309404.8524
         8.7504          5.2504
  21448280.4304    1106610.46845    845193.84444                  21448285.3054
        10.0004          4.2504
 98  6 15 19 23 15.0000000  0  6G 5G 6G 8G10G17G24
  19897332.5394    1168988.31746    910899.77945                  19897335.5514
        13.2504         10.5004
  19882396.9224    -964212.02346   -751333.28646                  19882399.3714
        16.2504         14.2504
  23236502.5084    1209319.42441    104855.63041                  23236510.4454
         2.7504          0.7504
  19404679.8524     335800.48146    261662.92646                  19404682.4304
        18.0004         17.5004
  21302670.4534   -1141886.50445   -889780.68645                  21302675.0944
         9.2504          5.5004
  21455502.5704    1144561.87845    874766.35244                  21455506.9534
        10.0004          4.2504
 98  6 15 19 23 30.0000000  0  6G 5G 6G 8G10G17G24
  19904994.4534    1209253.47346    942275.22045                  19904997.3134
        13.2504         11.0004
  19876711.7344    -994090.95446   -774615.54846                  19876713.7624
        16.7504         14.7504
  23244351.3134    1250567.12541
         2.7504
  19407361.7034     349892.58846    272643.79146                  19407364.3874
        17.2504         17.0004
  21295963.6564   -1177128.28845   -917241.76845                  21295968.8954
         9.2504          5.2504
  21462736.9454    1182579.30245    904390.31345                  21462741.5394
        10.0004          4.5004
 98  6 15 19 23 45.0000000  0  6G 5G 6G 8G10G17G24
  19912685.5234    1249669.65746    973768.33445                  19912688.5124
        13.5004         10.2504
  19871042.9144   -1023877.44646   -797825.77646                  19871045.2584
        16.7504         14.5004
  23252206.8364    1291845.20941
         3.0004
  19410084.2424     364199.75046    283792.22946                  19410087.2544
        17.2504         17.2504
  21289280.4534   -1212248.43645   -944608.08545                  21289284.6954
         9.2504          5.5004
  21469984.2504    1220664.36745    934066.97444                  21469989.7934
        10.0004          4.0004
 98  6 15 19 24  0.0000000  0  6G 5G 6G 8G10G17G24
  19920402.2504    1290221.94246   1005367.50945                  19920405.6254
        13.5004         10.5004
  19865390.0944   -1053583.45246   -820973.28946                  19865392.4144
        16.7504         15.0004
  23260064.6884    1333140.17241
         2.7504
  19412844.8984     378707.46346    295096.93946                  19412847.6174
        17.7504         17.2504
  21282617.7584   -1247261.56745   -971890.99545                  21282622.7384
         9.2504          5.5004
  21477241.0784    1258799.40645    963782.55644                  21477245.0274
         9.7504          4.0004
 98  6 15 19 24 15.0000000  0  6G 5G 6G 8G10G17G24
  19928147.4534    1330922.01446   1037081.83845                  19928150.4304
        13.2504         10.2504
  19859755.5314   -1083196.50946   -844048.36946                  19859757.9574
        17.0004         15.0004
  23267929.3364    1374463.20141
         3.0004
  19415645.0864     393423.85346    306564.26946                  19415647.8874
        17.7504         17.2504
  21275978.0314   -1282157.19345   -999082.34345                  21275982.3444
         9.5004          5.5004
  21484509.2584    1296993.49345    993544.16544                  21484513.2894
         9.7504          4.2504
 98  6 15 19 24 30.0000000  0  6G 5G 6G 8G10G17G24
  19935922.6024    1371782.06046   1068920.82245                  19935925.4384
        13.0004         10.7504
  19854140.1254   -1112704.76046   -867041.79146                  19854142.3754
        17.0004         15.2504
  23275800.8444    1415827.08841
         2.7504
  19418488.2504     408363.16046    318205.28346                  19418491.1804
        17.2504         16.7504
  21269361.8054   -1316920.56045  -1026170.63945                  21269366.8324
         9.0004          5.7504
  21491791.1094    1335259.36345   1023361.70744                  21491795.6914
         9.7504          4.2504
 98  6 15 19 24 45.0000000  0  6G 5G 6G 8G10G17G24
  19943727.9144    1412797.95846   1100881.25845                  19943730.9024
        13.2504         10.7504
  19848543.3754   -1142116.19146   -889959.75946                  19848545.7774
        17.0004         15.2504
  23283677.3204    1457226.66241     23656.83451                  23283687.0864
         3.0004          0.7504
  19421371.0474     423513.90346    330011.06646                  19421374.1294
        17.0004         16.2504
  21262770.2894   -1351559.79645  -1053162.19345                  21262775.7274
         9.2504          5.5004
  21499085.1644    1373590.47245   1053230.10844                  21499090.1094
         9.7504          4.0004
 98  6 15 19 25  0.0000000  0  6G 5G 6G 8G10G17G24
  19951562.3054    1453967.56746   1132961.45245                  19951565.0704
        13.2504         10.7504
  19842964.2274   -1171432.52546   -912803.64146                  19842966.6054
        17.0004         15.2504
  23291563.0084    1498664.09941     55945.74141                  23291570.7704
         3.0004          0.7504
  19424293.1804     438869.39246    341976.37846                  19424296.2734
        17.0004         16.2504
  21256202.2814   -1386077.88045  -1080059.36945                  21256206.8634
         9.2504          5.7504
  21506391.1884    1411985.20545   1083148.08044                  21506395.7114
         9.5004          3.7504
 98  6 15 19 25 15.0000000  0  6G 5G 6G 8G10G17G24
  19959425.9924    1495291.59046   1165161.98845                  19959429.4144
        13.2504         10.5004
  19837404.4454   -1200652.02946   -935572.04746                  19837406.4144
        17.0004         15.2504
  23299456.5314    1540140.17841     88264.71341                  23299467.5514
         3.2504          1.0004
  19427252.7194     454422.37346    354095.59146                  19427255.8484
        16.7504         16.2504
  21249656.4064   -1420474.42245  -1106861.80845                  21249661.0004
         9.5004          5.5004
  21513709.1094    1450441.28045   1113113.83244                  21513713.9024
         9.2504          3.7504
 98  6 15 19 25 30.0000000  0  5G 5G 6G10G17G24
  19967318.6334    1536768.85446   1197481.91245                  19967321.7734
        13.5004         10.5004
  19831862.3444   -1229774.70146   -958265.01946                  19831864.5124
        17.0004         15.0004
  19430249.1804     470168.48946    366365.29546                  19430252.4024
        16.5004         15.7504
  21243133.3364   -1454753.24145  -1133572.56245                  21243137.4614
         9.2504          5.5004
  21521038.3284    1488956.03945   1143125.31644                  21521042.9804
         9.2504          4.0004
 98  6 15 19 25 45.0000000  0  5G 5G 6G10G17G24
  19975240.8984    1578401.13246   1229922.63745                  19975243.9344
        13.2504         10.7504
  19826339.5634   -1258795.73046   -980878.78446                  19826342.0704
        17.0004         15.5004
  19433282.8134     486110.74446    378787.82846                  19433285.8954
        17.0004         16.2504
  21236632.2814   -1488915.36745  -1160192.35345                  21236637.2504
         9.5004          5.5004
  21528378.5394    1527530.72645   1173183.50544                  21528382.3364
         9.2504          3.5004
 98  6 15 19 26  0.0000000  0  5G 5G 6G10G17G24
  19983193.1724    1620189.62546   1262485.07945                  19983195.9264
        13.2504         10.7504
  19820836.9144   -1287711.73346  -1003410.71546                  19820839.1174
        17.0004         15.2504
  19436354.3284     502251.72446    391365.22146                  19436357.7974
        16.7504         16.0004
  21230153.4614   -1522959.63445  -1186720.30745                  21230158.3714
         9.2504          5.7504
  21535730.7584    1566164.84345   1203288.01444                  21535736.2774
         9.5004          3.5004
 98  6 15 19 26 15.0000000  0  5G 5G 6G10G17G24
  19991174.4144    1662131.57846   1295167.10945                  19991177.7304
        13.5004         10.2504
  19815354.0474   -1316523.90646  -1025861.73046                  19815356.4844
        17.0004         15.0004
  19439463.9694     518590.84046    404096.99646                  19439467.5904
        17.0004         16.2504
  21223697.6174   -1556886.30545  -1213156.63945                  21223702.9494
         9.2504          5.7504
  21543094.2274    1604857.76445   1233438.32344                  21543097.9184
         9.2504          3.7504
 98  6 15 19 26 30.0000000  0  5G 5G 6G10G17G24
  19999184.7194    1704226.15646   1327968.08545                  19999187.7894
        13.2504         10.5004
  19809890.6484   -1345235.42746  -1048234.32346                  19809893.0744
        16.7504         15.2504
  19442610.5474     535128.88746    416983.79346                  19442613.7704
        17.0004         16.2504
  21217264.4064   -1590695.55145  -1239501.45945                  21217269.7624
         9.5004          5.7504
  21550468.7034    1643614.35145   1263638.23644                  21550472.4184
         9.7504          3.7504
 98  6 15 19 26 45.0000000  0  5G 5G 6G10G17G24
  20007224.3674    1746474.21746   1360888.63245                  20007227.4964
        13.2504         10.5004
  19804446.6884   -1373844.30846  -1070526.93046                  19804449.0554
        17.0004         15.7504
  19445796.0474     551867.93246    430027.20946                  19445799.0824
        17.0004         16.0004
  21210853.1484   -1624388.05845  -1265755.32145                  21210857.8364
         9.7504          6.2504
  21557856.5864    1682435.09845   1293888.15244                  21557860.1134
         9.2504          3.5004
 98  6 15 19 27  0.0000000  0  5G 5G 6G10G17G24
  20015293.7274    1788877.56246   1393930.17545                  20015296.9384
        13.2504         10.2504
  19799022.4694   -1402348.08046  -1092737.63246                  19799024.6374
        17.0004         15.7504
  19449020.4144     568811.56846    443230.05146                  19449023.6024
        17.0004         16.2504
  21204464.2814   -1657960.65645  -1291915.75945                  21204468.4884
        10.0004          6.0004
  21565256.3674    1721320.66545   1324188.57044                  21565260.3984
         9.2504          4.0004
 98  6 15 19 27 15.0000000  0  5G 5G 6G10G17G24
  20023391.8754    1831435.06246   1427091.86045                  20023394.6994
        13.2504         10.7504
  19793618.1334   -1430746.54746  -1114866.28546                  19793620.5354
        17.0004         15.5004
  19452284.5784     585964.56846    456596.02946                  19452287.3324
        17.5004         16.2504
  21198098.9694   -1691410.76045  -1317980.72245                  21198104.1484
         9.7504          6.0004
  21572668.5394    1760271.00945   1354539.47743                  21572673.1334
         9.0004          3.2504
 98  6 15 19 27 30.0000000  0  5G 5G 6G10G17G24
  20031519.8444    1874147.19346   1460374.02845                  20031522.7974
        13.2504         10.7504
  19788235.0004   -1459038.45746  -1136911.90646                  19788237.2034
        17.0004         15.5004
  19455589.2424     603332.90146    470129.81046                  19455591.8914
        17.2504         16.5004
  21191757.6094   -1724734.75245  -1343947.44145                  21191762.1804
         9.5004          6.2504
  21580092.8054    1799288.95245   1384943.05744                  21580097.2704
         9.0004          3.5004
 98  6 15 19 27 45.0000000  0  5G 5G 6G10G17G24
  20039675.9224    1917008.41946   1493772.37345                  20039678.9924
        13.0004         10.2504
  19782870.8444   -1487226.30046  -1158876.43146                  19782873.2234
        16.7504         15.5004
  19458936.1884     620918.93246    483833.22146                  19458938.7894
        17.2504         16.5004
  21185439.3054   -1757934.32345  -1369817.19945                  21185444.5084
         9.5004          6.0004
  21587530.4304    1838372.66445   1415397.89543                  21587535.1644
         9.0004          3.0004
 98  6 15 19 28  0.0000000  0  6G 5G 6G10G26G17G24
  20047860.3134    1960015.98346   1527284.75245                  20047863.3014
        13.0004         10.5004
  19777526.1414   -1515311.71646  -1180761.14346                  19777528.2974
        16.7504         15.7504
  19462323.7584     638722.04946    497705.78746                  19462326.6994
        17.0004         16.2504
  23269792.4304      -5140.45051
         3.5004
  21179146.7344   -1791007.28145  -1395588.29645                  21179151.9264
         9.7504          6.2504
  21594979.7974    1877521.54945   1445903.50743                  21594984.8364
         8.2504          2.7504
 98  6 15 19 28 15.0000000  0  7G 5G 6G30G10G26G17G24
  20056072.9774    2003174.27146   1560914.57045                  20056075.9414
        13.0004         10.5004
  19772201.4534   -1543292.31046  -1202564.17346                  19772203.7734
        16.5004         15.7504
  18899620.7114       7415.46956
        19.0004
  19465753.8204     656746.89546    511751.13446                  19465756.5984
        17.0004         16.2504
  23262455.8674     -43692.26641
         3.0004
  21172878.5164   -1823946.01945  -1421254.81345                  21172883.3914
         9.7504          6.2504
  21602443.8444    1916743.33145   1476465.94943                  21602446.8094
         8.7504          3.0004
 98  6 15 19 28 30.0000000  0  7G 5G 6G30G10G26G17G24
  20064314.6094    2046484.43546   1594662.74045                  20064318.1254
        12.7504         10.0004
  19766897.1254   -1571168.36846  -1224285.75646                  19766899.5044
        16.5004         16.0004
  18902674.5944      23462.28646
        19.0004
  19469226.3204     674994.26646    525969.87246                  19469228.9454
        17.2504         15.7504
  23255126.5004     -82209.13941
         3.0004
  21166636.1644   -1856747.47745  -1446814.35045                  21166640.8054
         9.2504          6.0004
  21609922.0944    1956040.72845   1507087.26443                  21609927.3324
         8.5004          3.0004
 98  6 15 19 28 45.0000000  0  7G 5G 6G30G10G26G17G24
  19772792.9224    2089948.77946   1628531.03945                  19772796.2624
        12.5004         10.2504
  19461818.9384   -1598945.19946  -1245930.00946                  19461821.5634
        16.5004         15.2504
  18605975.0394      39716.53146        -0.86456                  18605976.8914
        18.7504         19.7504
  19172948.1564     693461.86946    540360.22246                  19172951.0164
        17.0004         16.2504
  22948010.2194    -120695.68741
         3.5004
  20860627.3444   -1889416.07645  -1472270.36145                  20860632.6644
         9.7504          5.7504
  21317621.0554    1995411.00445   1537765.38243                  21317625.0274
         8.2504          3.0004
 98  6 15 19 29  0.0000000  0  7G 5G 6G30G10G26G17G24
  19781092.6334    2133563.18046   1662516.26645                  19781096.4774
        12.5004         10.2504
  19456553.3444   -1626616.53646  -1267492.06146                  19456555.6644
        16.5004         15.5004
  18609107.6884      56178.55446     12826.69546                  18609109.2464
        18.7504         20.0004
  19176504.2814     712149.39146    554921.94246                  19176507.1174
        16.5004         15.5004
  22940694.6174    -159141.80241
         3.5004
  20854437.3134   -1921942.19245  -1497615.34545                  20854441.6254
         9.7504          5.7504
  21325125.3674    2034846.58245   1568494.39043                  21325130.0904
         8.2504          3.2504
 98  6 15 19 29 15.0000000  0  7G 5G 6G30G10G26G17G24
  19789420.5004    2177325.72146   1696616.93245                  19789423.6994
        12.5004          9.7504
  19451306.0944   -1654189.59446  -1288977.53546                  19451308.4844
        16.2504         15.2504
  18612279.5784      72846.72446     25814.87846                  18612281.3134
        18.7504         20.0004
  19180101.4224     731053.91846    569652.74746                  19180104.6094
        16.5004         15.0004
  22933384.9534    -197552.92441
         3.2504
  20848274.2504   -1954329.24745  -1522851.97745                  20848277.9414
        10.0004          6.0004
  21332642.4224    2074347.91545   1599274.67143                  21332647.7544
         8.2504          2.7504
 98  6 15 19 29 30.0000000  0  7G 5G 6G30G10G26G17G24
  19797776.0634    2221236.01545   1730832.72745                  19797779.5554
        11.7504          9.5004
  19446077.5704   -1681665.02746  -1310386.93846                  19446080.1024
        15.7504         15.2504
  18615490.2424      89719.70446     38962.65046                  18615491.9414
        18.2504         20.0004
  19183739.9224     750173.49046    584551.12846                  19183742.6414
        16.5004         15.7504
  22926082.3204    -235926.04741
         3.2504
  20842137.3914   -1986579.06845  -1547981.65945                  20842141.5274
         9.7504          5.7504
  21340171.8444    2113915.22845   1630106.28443                  21340175.8164
         8.2504          3.0004
 98  6 15 19 29 45.0000000  0  7G 5G 6G30G10G26G17G24
  19806160.9924    2265298.06045   1765166.77945                  19806164.0864
        11.7504          9.5004
  19440868.0314   -1709040.97646  -1331718.81846                  19440870.6214
        15.7504         15.0004
  18618740.8984     106801.92946     52273.47646                  18618742.6684
        18.0004         19.5004
  19187419.2424     769508.73546    599617.56346                  19187421.9024
        16.5004         15.5004
  22918788.0474    -274255.36641
         3.0004
  20836026.8444   -2018692.27745  -1573004.90945                  20836030.5704
         9.2504          6.2504
  21347714.3284    2153550.56545   1660991.02343                  21347718.0204
         8.2504          3.0004
 98  6 15 19 30  0.0000000  0  7G 5G 6G30G10G26G17G24
  19814575.4304    2309515.14245   1799621.63845                  19814578.3834
        11.7504          9.2504
  19435677.7424   -1736317.66746  -1352973.35746                  19435680.4384
        15.5004         14.7504
  18622031.9144     124096.46146     65749.73946                  18622033.6254
        18.0004         19.2504
  19191139.5634     789058.86946    614851.44446                  19191142.4224
        16.0004         15.2504
  22911502.2034    -312536.53241
         3.0004
  20829940.3284   -2050671.84745  -1597924.01145                  20829944.1254
         9.2504          6.0004
  21355269.6254    2193253.64845   1691928.42643                  21355275.8134
         8.2504          2.7504
 98  6 15 19 30 15.0000000  0  7G 5G 6G30G10G26G17G24
  19823019.0864    2353886.43446   1834196.64745                  19823022.5084
        12.0004          9.2504
  19430505.4614   -1763497.06146  -1374152.08646                  19430508.4024
        15.5004         15.0004
  18625363.4844     141603.05146     79391.23046                  18625364.9734
        18.0004         19.7504
  19194899.8834     808821.45246    630250.87146                  19194902.7894
        16.2504         15.5004
  22904227.9144    -350769.56441    -19855.76851                  22904233.1994
         3.5004          1.0004
  20823880.0314   -2082521.00745  -1622741.50345                  20823884.1094
         9.5004          6.2504
  21362836.8984    2233020.56745   1722915.67543                  21362840.4964
         8.2504          3.0004
 98  6 15 19 30 30.0000000  0  7G 5G 6G30G10G26G17G24
  19831492.6024    2398416.79945   1868895.62245                  19831495.6134
        11.7504          9.2504
  19425352.4614   -1790575.60046  -1395252.21946                  19425355.1564
        15.0004         14.5004
  18628735.5234     159323.01946     93199.00146                  18628737.0234
        17.7504         19.2504
  19198701.8674     828798.97946    645817.78346                  19198704.6214
        16.0004         15.2504
  22896961.3444    -388953.33441    -49609.14041                  22896970.9224
         3.0004          0.7504
  20817844.6334   -2114238.08045  -1647456.06245                  20817849.6954
         9.5004          6.0004
  21370416.3054    2272852.34645   1753953.39143                  21370420.4884
         8.5004          3.0004
 98  6 15 19 30 45.0000000  0  7G 5G 6G30G10G26G17G24
  19839996.1804    2443103.57445   1903716.47945                  19839999.5314
        11.7504          9.0004
  19420218.2194   -1817556.43646  -1416276.21946                  19420220.8324
        15.0004         14.7504
  18632147.7274     177254.20246    107171.34846                  18632149.3554
        17.5004         19.5004
  19202542.9454     848985.43046    661547.48946                  19202545.5944
        16.0004         15.0004
  22889704.2194    -427090.53241    -79326.35841                  22889722.4574
         3.5004          0.7504
  20811832.3364   -2145831.80745  -1672074.52445                  20811837.3634
         9.5004          6.0004
  21378007.6954    2312744.01945   1785037.80343                  21378012.0554
         8.2504          2.7504
 98  6 15 19 31  0.0000000  0  7G 5G 6G30G10G26G17G24
  19848529.2344    2487945.49645   1938658.21245                  19848533.2664
        11.7504          9.2504
  19415102.4774   -1844438.21346  -1437223.04246                  19415105.2894
        15.0004         14.7504
  18635600.3834     195399.05746    121310.19246                  18635602.0944
        17.2504         18.7504
  19206424.0314     869379.70046    677439.14046                  19206427.2074
        15.7504         15.0004
  22882455.8984    -465181.22441   -109007.32541                  22882460.3284
         3.0004          0.7504
  20805842.9224   -2177306.35545  -1696600.08745                  20805846.5554
         9.2504          6.0004
  21385610.1644    2352693.84545   1816167.52943                  21385614.2424
         8.5004          3.0004
 98  6 15 19 31 15.0000000  0  7G 5G 6G30G10G26G17G24
  19857092.3054    2532942.63445   1973720.89645                  19857095.8674
        11.5004          9.0004
  19410006.8364   -1871217.79846  -1458090.22246                  19410009.7664
        15.0004         15.0004
  18639093.8674     213757.03846    135615.11746                  18639095.4844
        17.2504         18.7504
  19210344.7274     889982.58946    693493.34646                  19210347.5744
        15.7504         15.0004
  22875217.3444    -503223.51041   -138650.55741                  22875225.2584
         3.5004          0.7504
  20799876.2584   -2208661.45745  -1721032.59245                  20799880.9694
         9.2504          6.0004
  21393223.8134    2392703.95645   1847344.21543                  21393228.0084
         8.2504          2.7504
 98  6 15 19 31 30.0000000  0  7G 5G 6G30G10G26G17G24
  19865684.9304    2578097.05145   2008906.13645                  19865687.9304
        11.7504          8.7504
  19404930.2424   -1897895.16946  -1478877.76246                  19404933.0084
        15.0004         14.7504
  18642627.8134     232326.91146    150085.14746                  18642629.7464
        17.2504         18.7504
  19214304.7274     910792.75846    709709.08046                  19214307.5394
        15.5004         15.0004
  22867987.3594    -541217.36541   -168255.90041                  22867992.8674
         3.0004          0.5004
  20793931.6644   -2239900.83145  -1745374.92645                  20793935.9064
         9.5004          6.0004
  21400849.4144    2432776.74045   1878569.75343                  21400854.3714
         7.7504          3.0004
 98  6 15 19 31 45.0000000  0  7G 5G 6G30G10G26G17G24
  19874308.1254    2623412.54345   2044216.89245                  19874310.4694
        11.7504          9.0004
  19399873.9064   -1924465.24146  -1499581.68846                  19399876.8244
        14.7504         14.0004
  18646202.2344     251113.09946    164723.73846                  18646204.1334
        17.2504         18.5004
  19218304.8444     931812.92846    726088.43246                  19218307.4224
        15.7504         15.2504
  22860766.5314    -579160.27141   -197821.74841                  22860778.8404
         3.0004          0.5004
  20788009.6024   -2271021.70645  -1769624.91245                  20788014.5704
         9.2504          5.5004
  21408487.6884    2472916.36345   1909847.38943                  21408493.9344
         8.2504          3.0004
 98  6 15 19 32  0.0000000  0  7G 5G 6G30G10G26G17G24
  19882962.3444    2668888.10345   2079652.37545                  19882965.4144
        11.7504          8.7504
  19394838.9304   -1950925.39646  -1520199.96946                  19394841.6374
        15.0004         14.7504
  18649819.1174     270117.65346    179532.47246                  18649820.9104
        17.2504         18.5004
  19222344.9304     953044.03246    742632.15646                  19222347.4844
        15.7504         15.2504
  22853556.1954    -617051.83341   -227347.35841                  22853570.5904
         3.0004          1.0004
  20782110.0004   -2302023.24545  -1793781.89445                  20782113.7734
         9.2504          6.0004
  21416139.5004    2513124.74545   1941178.55543                  21416145.0554
         7.7504          3.2504
 98  6 15 19 32 15.0000000  0  7G 5G 6G30G10G26G17G24
  19891645.6174    2714519.40945   2115209.22245                  19891648.8754
        11.7504          9.2504
  19389824.7664   -1977274.66246  -1540731.83846                  19389827.3324
        15.0004         14.7504
  18653476.7974     289340.82446    194511.56946                  18653478.5784
        17.2504         19.0004
  19226424.5084     974481.69846    759336.84146                  19226427.5554
        15.5004         15.0004
  22846354.2974    -654896.68641   -256836.79341                  22846365.1524
         3.0004          0.7504
  20776233.6484   -2332903.98145  -1817844.78745                  20776237.5514
         9.0004          5.5004
  21423803.2034    2553401.22045   1972562.82043                  21423808.3244
         7.5004          3.0004
 98  6 15 19 32 30.0000000  0  7G 5G 6G30G10G26G17G24
  19900357.2274    2760300.90246   2150883.09645                  19900360.1334
        12.0004          8.7504
  19384830.4614   -2003518.18946  -1561181.31946                  19384833.4734
        14.7504         14.7504
  18657175.4924     308777.10446    209656.72146                  18657177.2624
        17.2504         19.0004
  19230541.9304     996120.07846    776197.91646                  19230544.8244
        15.5004         14.7504
  22839157.6334    -692701.93941   -286295.29641                  22839166.6484
         2.7504          0.5004
  20770379.6254   -2363665.58145  -1841814.81845                  20770383.9024
         9.0004          5.7504
  21431480.2734    2593742.23145   2003997.37843                  21431486.4964
         7.5004          2.7504
 98  6 15 19 32 45.0000000  0  7G 5G 6G30G10G26G17G24
  19909097.5084    2806232.06945   2186673.59645                  19909100.6844
        11.7504          9.0004
  19379857.2664   -2029654.67146  -1581547.38646                  19379859.5744
        15.0004         14.2504
  18660914.8524     328427.66146    224968.84146                  18660916.4804
        17.2504         19.2504
  19234697.7894    1017957.70946    793214.26346                  19234700.5084
        15.2504         14.7504
  22831973.2504    -730463.48541   -315719.78341                  22831979.9304
         2.7504          0.7504
  20764548.5004   -2394305.86845  -1865690.31945                  20764553.0594
         8.7504          5.7504
  21439169.6644    2634152.11244   2035485.57143                  21439173.9884
         7.2504          2.7504
 98  6 15 19 33  0.0000000  0  7G 5G 6G30G10G26G17G24
  19917865.8834    2852309.75045   2222578.25945                  19917868.6374
        11.5004          8.7504
  19374903.3984   -2055687.32946  -1601832.55546                  19374906.1174
        14.7504         14.5004
  18664694.9144     348291.22346    240446.93946                  18664696.5554
        17.2504         18.7504
  19238890.7584    1039993.03046    810384.63746                  19238893.4414
        15.2504         14.7504
  22824796.8204    -768180.93341
         2.7504
  20758741.6484   -2424824.98345  -1889471.41345                  20758745.4924
         8.7504          5.5004
  21446872.3594    2674630.95844   2067027.48743                  21446877.1294
         7.0004          3.0004
 98  6 15 19 33 15.0000000  0  7G 5G 6G30G10G26G17G24
  19926662.4534    2898532.33445   2258595.84345                  19926665.3594
        11.7504          8.5004
  19369969.5314   -2081614.45446  -1622035.49346                  19369972.2154
        15.0004         14.7504
  18668515.4924     368367.05646    256090.44246                  18668517.0514
        17.5004         18.5004
  19243122.0554    1062228.33246    827710.86446                  19243124.8094
        15.5004         15.0004
  22817627.7274    -805852.99541
         3.0004
  20752957.5234   -2455217.26245  -1913153.66845                  20752962.3284
         8.5004          5.5004
  21454589.1094    2715178.43244   2098622.92243                  21454591.4774
         7.2504          3.0004
 98  6 15 19 33 30.0000000  0  7G 5G 6G30G10G26G17G24
  19935485.6334    2944901.29645   2294727.47145                  19935488.4104
        11.5004          8.2504
  19365056.0864   -2107435.12146  -1642155.47046                  19365058.4884
        14.7504         14.2504
  18672376.5234     388657.51646    271901.18646                  18672378.1524
        17.5004         18.5004
  19247391.9534    1084666.87746    845195.44246                  19247394.8484
        15.5004         14.7504
  22810466.2664    -843480.25141
         2.7504
  20747199.6024   -2485480.17045  -1936735.12245                  20747205.0744
         8.7504          5.5004
  21462318.6484    2755798.42544   2130274.89443                  21462323.8284
         7.2504          2.5004
 98  6 15 19 33 45.0000000  0  7G 5G 6G30G10G26G17G24
  19944335.8984    2991410.91045   2330968.72645                  19944338.6884
        11.5004          8.2504
  19360162.0164   -2133152.64346  -1662195.07546                  19360164.6524
        14.7504         14.5004
  18676277.8364     409159.71246    287876.92346                  18676279.2664
        17.5004         18.7504
  19251699.8914    1107304.58046    862835.20946                  19251702.7734
        15.5004         14.7504
  22803314.5004    -881069.91041
         2.7504
  20741464.6094   -2515616.86745  -1960218.21045                  20741469.0044
         9.0004          6.0004
  21470061.5164    2796486.53245   2161979.86043                  21470065.7234
         7.5004          2.7504
 98  6 15 19 34  0.0000000  0  7G 5G 6G30G10G26G17G24
  19953213.4304    3038060.95345   2367319.38345                  19953216.8404
        11.2504          8.0004
  19355288.3594   -2158764.10046  -1682152.03546                  19355290.7504
        15.0004         15.0004
  18680220.3284     429876.81146    304020.10846                  18680221.7584
        17.2504         18.7504
  19256045.6804    1130143.09846    880631.46546                  19256048.4694
        15.0004         15.0004
  22796169.2194    -918619.27141
         3.0004
  20735753.8284   -2545624.64045  -1983600.84145                  20735758.8794
         9.0004          6.0004
  21477817.1484    2837243.49344   2193738.54043                  21477822.0824
         7.0004          2.5004
 98  6 15 19 34 15.0000000  0  7G 5G 6G30G10G26G17G24
  19962117.2584    3084851.68045   2403779.66845                  19962120.3164
        11.5004          8.2504
  19350434.5234   -2184271.53146  -1702027.93946                  19350437.0554
        14.7504         14.2504
  18684202.9384     450806.72746    320329.13246                  18684204.6954
        17.2504         19.0004
  19260429.7664    1153181.66246    898583.58546                  19260432.7774
        15.2504         15.0004
  22789029.1954    -956129.71841     -5841.68051                  22789037.3324
         2.7504          1.0004
  20730068.2584   -2575503.01845  -2006882.65345                  20730073.1684
         9.2504          6.0004
  21485585.8204    2878067.77144   2225549.64243                  21485591.1054
         7.2504          2.7504
 98  6 15 19 34 30.0000000  0  7G 5G 6G30G10G26G17G24
  19971048.4534    3131785.42245   2440351.39445                  19971051.9574
        11.5004          8.2504
  19345600.1644   -2209675.62946  -1721823.31846                  19345602.4844
        15.0004         14.2504
  18688226.0704     471947.64846    336802.58146                  18688227.7464
        17.2504         18.2504
  19264852.0314    1176421.48746    916692.54546                  19264854.9494
        15.2504         15.0004
  22781899.3444    -993598.59641    -35038.00441                  22781909.0044
         2.7504          0.5004
  20724407.4454   -2605250.86845  -2030062.76145                  20724411.0204
         9.5004          6.2504
  21493366.4774    2918959.15344   2257413.04343                  21493370.7894
         7.0004          2.5004
 98  6 15 19 34 45.0000000  0  7G 5G 6G30G10G26G17G24
  19980007.3594    3178863.68345   2477035.73745                  19980009.7624
        11.5004          8.2504
  19340786.1414   -2234972.92146  -1741535.47846                  19340788.4964
        14.7504         14.7504
  18692288.8284     493297.61846    353438.91746                  18692290.5044
        17.2504         18.7504
  19269313.8914    1199868.31346    934962.80046                  19269316.8554
        15.2504         14.7504
  22774778.7894   -1031019.24741    -64196.92841                  22774789.1414
         2.7504          0.7504
  20718771.4774   -2634868.58145  -2053141.45645                  20718775.2854
         9.5004          6.2504
  21501161.2114    2959918.71444   2289329.56943                  21501166.4844
         7.0004          2.7504
 98  6 15 19 35  0.0000000  0  7G 5G 6G30G10G26G17G24
  19988993.9774    3226088.77545   2513834.49145                  19988997.6094
        11.5004          8.0004
  19335993.6484   -2260158.32246  -1761160.44646                  19335996.3204
        14.7504         14.5004
  18696391.2894     514857.50346    370238.82646                  18696392.8244
        17.2504         18.7504
  19273815.9064    1223526.61146    953397.84046                  19273819.0704
        15.2504         15.0004
  22767668.2344   -1068387.60541    -93314.81941                  22767678.6454
         2.7504          0.5004
  20713160.0554   -2664357.99045  -2076120.18345                  20713165.0124
         9.2504          6.0004
  21508968.8524    3000947.60544   2321300.12343                  21508973.3634
         7.0004          2.7504
 98  6 15 19 35 15.0000000  0  7G 5G 6G30G10G26G17G24
  19998008.4064    3273460.46845   2550747.48145                  19998011.4534
        11.2504          8.5004
  19331222.8524   -2285229.89746  -1780696.71946                  19331225.0204
        15.5004         15.0004
  18700534.1724     536626.71246    387201.84046                  18700535.8134
        17.0004         18.5004
  19278359.0474    1247400.22946    972000.65946                  19278362.3164
        15.2504         14.7504
  22760565.6884   -1105705.08041   -122393.24141                  22760577.8204
         2.5004          0.5004
  20707572.0864   -2693720.61845  -2099000.10245                  20707576.6564
         9.2504          6.2504
  21516788.7814    3042044.56844   2353323.71843                  21516793.1294
         7.0004          2.5004
 98  6 15 19 35 30.0000000  0  7G 5G 6G30G10G26G17G24
  20007050.8914    3320977.20245   2587773.49245                  20007053.8914
        11.5004          8.5004
  19326473.8204   -2310187.54446  -1800144.21546                  19326476.0594
        15.5004         15.2504
  18704716.4064     558605.10946    404327.86446                  18704718.2464
        17.0004         18.5004
  19282942.8674    1271488.50746    990770.74646                  19282945.5984
        15.0004         14.2504
  22753474.1484   -1142975.67441   -151435.19241                  22753487.5594
         2.7504          0.5004
  20702008.5084   -2722958.61545  -2121782.91545                  20702012.8674
         9.2504          6.2504
  21524623.0944    3083208.54044   2385399.49443                  21524626.9024
         7.0004          2.5004
 98  6 15 19 35 45.0000000  0  7G 5G 6G30G10G26G17G24
  20016121.0314    3368642.79845   2624915.49645                  20016123.5864
        11.0004          8.2504
  19321746.0784   -2335030.74646  -1819502.54046                  19321748.0474
        15.5004         14.7504
  18708938.5004     580793.38646    421617.42546                  18708940.3754
        16.7504         18.5004
  19287567.1254    1295789.25046   1009706.38646                  19287569.9614
        15.5004         14.5004
  22746390.7584   -1180197.40641
         2.7504
  20696468.3444   -2752072.16945  -2144468.76445                  20696473.0084
         9.5004          6.2504
  21532469.1564    3124441.43244   2417529.01242                  21532474.5124
         7.0004          2.2504
 98  6 15 19 36  0.0000000  0  7G 5G 6G30G10G26G17G24
  20025220.0944    3416456.90645   2662173.22045                  20025223.1644
        11.5004          7.7504
  19317040.6804   -2359758.00546  -1838770.51846                  19317042.9184
        15.7504         15.2504
  18713200.6804     603189.60546    439069.02546                  18713202.5904
        16.5004         18.5004
  19292230.8204    1320297.57046   1028803.78446                  19292233.5164
        15.2504         14.5004
  22739317.9224   -1217366.44441
         2.7504
  20690951.7664   -2781060.64145  -2167057.15945                  20690956.3364
         9.5004          6.2504
  21540328.9774    3165742.93444   2449711.98643                  21540333.1374
         7.0004          2.5004
 98  6 15 19 36 15.0000000  0  7G 5G 6G30G10G26G17G24
  20034346.7504    3464416.38445   2699544.21445                  20034349.9614
        11.5004          8.0004
  19312356.4224   -2384374.11346  -1857951.87546                  19312358.7194
        15.5004         15.5004
  18717500.7974     625788.28746    456678.38046                  18717502.8834
        16.5004         18.2504
  19296933.3054    1345010.42246   1048060.54946                  19296936.0474
        15.2504         14.5004
  22732252.8674   -1254482.75641
         2.7504
  20685458.3674   -2809929.01345  -2189551.95545                  20685462.7734
         9.5004          6.7504
  21548200.3284    3207110.08444   2481946.06042                  21548201.4884
         6.7504          2.2504
 98  6 15 19 36 30.0000000  0  7G 5G 6G30G10G26G17G24
  20043500.3754    3512520.97145   2737028.28345                  20043503.3164
        11.0004          8.2504
  19307693.8984   -2408875.78946  -1877044.07946                  19307695.8914
        15.5004         15.5004
  18721839.7424     648588.56046    474444.82846                  18721841.7934
        16.2504         18.2504
  19301675.1334    1369928.01046   1067476.85846                  19301677.6764
        15.0004         14.2504
  22725200.7274   -1291545.86141
         2.7504
  20679987.8594   -2838677.53545  -2211953.35845                  20679992.2074
         9.2504          6.5004
  21556084.0394    3248540.07444   2514229.17343                  21556089.1484
         7.0004          2.7504
 98  6 15 19 36 45.0000000  0  7G 5G 6G30G10G26G17G24
  20052680.5314    3560765.44645   2774621.37245                  20052684.0594
        11.0004          8.2504
  19303053.2504   -2433262.13846  -1896046.40746                  19303055.1604
        15.7504         15.5004
  18726216.6334     671589.72446    492367.81046                  18726219.0004
        16.2504         17.7504
  19306455.8284    1395049.85646   1087052.32046                  19306458.6414
        14.7504         14.0004
  22718158.3364   -1328553.74241
         3.2504
  20674538.7424   -2867310.15945  -2234264.46645                  20674542.5864
         9.7504          6.7504
  21563979.4224    3290029.11144   2546558.28243                  21563984.6024
         7.0004          2.5004
 98  6 15 19 37  0.0000000  0  7G 5G 6G30G10G26G17G24
  20061887.8754    3609148.15045   2812322.14745                  20061891.4964
        11.0004          8.2504
  19298434.9844   -2457532.32246  -1914958.22546                  19298437.1294
        15.7504         15.5004
  18730632.4844     694795.11146    510449.92646                  18730634.5124
        16.2504         17.5004
  19311275.1484    1420374.38546   1106785.71546                  19311278.1024
        14.7504         14.0004
  22711126.3754   -1365510.14841
         3.0004
  20669112.6024   -2895827.92145  -2256486.05345                  20669116.1524
        10.0004          7.2504
  21571885.9774    3331575.31844   2578931.91543                  21571889.9964
         7.0004          2.5004
 98  6 15 19 37 15.0000000  0  7G 5G 6G30G10G26G17G24
  20071121.5864    3657670.36245   2850131.65945                  20071124.5044
        10.7504          7.7504
  19293837.8284   -2481688.16946  -1933780.94346                  19293840.3244
        15.7504         15.7504
  18735088.0474     718208.94246    528694.46946                  18735089.9454
        16.2504         18.0004
  19316132.6254    1445901.39146   1126676.89246                  19316135.5904
        15.0004         13.7504
  22704103.2814   -1402415.56441
         3.0004
  20663708.6724   -2924227.55745  -2278615.60445                  20663713.0554
        10.2504          7.0004
  21579802.2894    3373178.60145   2611350.01743                  21579806.9654
         7.5004          2.7504
 98  6 15 19 37 30.0000000  0  7G 5G 6G30G10G26G17G24
  20080380.3364    3706327.89345   2888046.57845                  20080383.2894
        10.7504          7.2504
  19289262.4304   -2505732.69746  -1952516.92546                  19289264.9734
        15.5004         16.0004
  18739583.0554     741830.49546    547100.87046                  18739584.8134
        16.2504         17.7504
  19321027.3914    1471624.50446   1146720.88246                  19321030.5314
        14.7504         13.5004
  22697088.6484   -1439276.10941
         3.0004
  20658326.2034   -2952508.11745  -2300652.37345                  20658330.1994
        10.0004          7.0004
  21587729.6024    3414836.52144   2643810.73442                  21587734.2544
         7.0004          2.2504
 98  6 15 19 37 45.0000000  0  7G 5G 6G30G10G26G17G24
  20089666.0394    3755124.10045   2926069.58145                  20089669.0514
        10.7504          7.7504
  19284708.3834   -2529663.84146  -1971164.55146                  19284710.8794
        15.7504         16.0004
  18744117.7274     765659.51446    565668.93246                  18744119.5204
        16.2504         18.0004
  19325959.2894    1497540.71546   1166915.33046                  19325962.2304
        14.7504         14.2504
  22690083.1174   -1476086.59341
         2.7504
  20652968.3834   -2980664.63245  -2322592.46645                  20652971.6994
        10.0004          6.7504
  21595667.3364    3456549.44345   2676314.28143                  21595669.5514
         7.5004          2.7504
 98  6 15 19 38  0.0000000  0  7G 5G 6G30G10G26G17G24
  20098978.0634    3804058.97445   2964200.62545                  20098981.2504
        10.5004          8.0004
  19280176.4844   -2553479.60746  -1989722.27546                  19280178.8054
        15.5004         15.5004
  18748691.0084     789693.12646    584396.42346                  18748692.8954
        16.5004         18.2504
  19330927.6414    1523650.77946   1187260.83946                  19330930.7234
        14.7504         13.7504
  22683090.3754   -1512842.63341
         3.0004
  20647634.0634   -3008697.21145  -2344435.99445                  20647638.3634
        10.0004          6.7504
  21603615.0004    3498317.66444   2708860.93043                  21603617.9414
         7.0004          2.5004
 98  6 15 19 38 15.0000000  0  7G 5G 6G30G10G26G17G24
  20108315.2424    3853125.67045   3002434.38845                  20108318.3364
        10.5004          8.0004
  19275665.7274   -2577183.24146  -2008192.62246                  19275668.2704
        15.5004         15.7504
  18753302.9454     813928.74146    603281.31446                  18753304.8914
        16.5004         18.0004
  19335933.3674    1549955.12846   1207757.72746                  19335936.0274
        15.0004         14.0004
  22676103.7114   -1549548.60241
         3.2504
  20642323.1174   -3036607.78245  -2366184.46845                  20642326.7504
         9.7504          6.7504
  21611573.2664    3540135.80145   2741446.46943                  21611577.0864
         7.5004          2.7504
 98  6 15 19 38 30.0000000  0  7G 5G 6G30G10G26G17G24
  20117678.2894    3902324.81945   3040771.36745                  20117681.6294
        10.7504          7.7504
  19271175.7664   -2600777.57846  -2026577.80746                  19271178.5084
        15.2504         16.2504
  18757953.6254     838368.01946    622324.90546                  18757955.4184
        16.5004         18.2504
  19340976.0474    1576456.48346   1228408.14046                  19340978.9884
        15.0004         14.0004
  22669127.9384   -1586208.01841
         3.0004
  20637034.3914   -3064396.15445  -2387837.70845                  20637038.2344
        10.0004          7.2504
  21619540.0784    3582002.05244   2774069.47142                  21619545.8674
         7.0004          2.2504
 98  6 15 19 38 45.0000000  0  7G 5G 6G30G10G26G17G24
  20127065.6954    3951658.61145   3079213.25545                  20127069.4804
        10.2504          7.7504
  19266707.0004   -2624262.27646  -2044877.55646                  19266709.4734
        15.5004         15.5004
  18762643.8524     863015.59446    641530.80846                  18762645.8554
        16.5004         18.0004
  19346057.0474    1603156.27546   1249213.17246                  19346059.7544
        15.2504         14.0004
  22662160.9144   -1622819.91341
         3.0004
  20631770.5004   -3092059.45045  -2409393.49545                  20631774.6024
        10.0004          7.0004
  21627516.4064    3623918.94344   2806732.01743                  21627519.4304
         7.2504          2.5004
 98  6 15 19 39  0.0000000  0  7G 5G 6G30G10G26G17G24
  20136479.8674    4001131.08745   3117763.20845                  20136483.6054
        10.2504          7.7504
  19262258.1884   -2647640.15546  -2063094.06346                  19262260.7544
        15.2504         15.5004
  18767374.0474     887871.48646    660899.03446                  18767376.0864
        16.5004         18.0004
  19351175.3524    1630053.49146   1270172.04546                  19351178.0474
        15.2504         14.0004
  22655203.7194   -1659385.33141
         3.0004
  20626530.8834   -3119594.28145  -2430849.17445                  20626535.2074
         9.7504          7.5004
  21635504.3054    3665892.45944   2839438.62443                  21635509.5084
         7.2504          2.5004
 98  6 15 19 39 15.0000000  0  7G 5G 6G30G10G26G17G24
  20145920.4304    4050742.65145   3156421.55645                  20145923.5824
        10.2504          7.7504
  19257828.6564   -2670918.19346  -2081232.78046                  19257831.1884
        15.2504         15.2504
  18772142.5864     912930.94046    680425.87146                  18772144.4144
        16.5004         17.7504
  19356330.3984    1657142.67346   1291280.50046                  19356332.9654
        14.7504         14.2504
  22648252.9924   -1695909.99241
         3.2504
  20621315.6724   -3147001.27345  -2452205.22545                  20621319.9614
        10.0004          7.0004
  21643501.7584    3707921.44044   2872188.43543                  21643506.1994
         7.0004          2.5004
 98  6 15 19 39 30.0000000  0  7G 5G 6G30G10G26G17G24
  20155387.9224    4100492.47145   3195187.61945                  20155391.1334
        10.0004          7.5004
  19253417.4454   -2694098.58546  -2099295.40646                  19253419.6254
        15.2504         15.7504
  18776948.9534     938189.79246    700108.09946                  18776950.8054
        16.5004         18.0004
  19361521.4224    1684420.55246   1312535.98746                  19361524.3054
        15.2504         14.0004
  22641309.3284   -1732394.49441
         3.5004
  20616124.1334   -3174280.38845  -2473461.64145                  20616128.4694
        10.0004          7.2504
  21651510.5944    3750008.16444   2904983.29342                  21651515.8674
         6.7504          2.0004
 98  6 15 19 39 45.0000000  0  7G 5G 6G30G10G26G17G24
  20164881.0554    4150380.31245   3234061.25445                  20164884.4064
        10.0004          7.2504
  19249024.9844   -2717181.49146  -2117282.06946                  19249027.2234
        15.5004         15.5004
  18781793.0554     963644.71546    719943.10546                  18781795.0124
        16.2504         17.7504
  19366747.3674    1711885.56946   1333937.30846                  19366750.1094
        15.2504         14.0004
  22634374.4924   -1768836.53341    -18925.76451                  22634380.0354
         3.5004          0.7504
  20610958.2114   -3201431.18445  -2494618.07245                  20610962.4654
        10.0004          7.0004
  21659531.2424    3792152.94844   2937823.33643                  21659535.2734
         7.0004          2.5004
 98  6 15 19 40  0.0000000  0  7G 5G 6G30G10G26G17G24
  20174402.1484    4200414.11645   3273048.59645                  20174405.7234
        10.0004          7.2504
  19244652.5394   -2740159.40846  -2135186.92346                  19244654.8484
        15.2504         15.7504
  18786675.6094     989303.75746    739937.15546                  18786677.3094
        16.5004         17.7504
  19372012.1884    1739550.21846   1355494.18246                  19372015.1644
        15.0004         14.5004
  22627450.0474   -1805225.35241    -47280.52341                  22627458.9574
         3.2504          0.5004
  20605816.7584   -3228447.98645  -2515670.08945                  20605821.0944
        10.0004          7.0004
  21667563.6724    3834364.44144   2970715.40442                  21667568.3014
         6.7504          2.2504
 98  6 15 19 40 15.0000000  0  7G 5G 6G30G10G26G17G24
  20183949.3364    4250586.10045   3312143.61945                  20183952.9344
        10.0004          7.0004
  19240298.8984   -2763038.02546  -2153014.40446                  19240301.0904
        15.5004         15.5004
  18791596.7034    1015164.87346    760088.67346                  18791598.4384
        16.5004         18.0004
  19377314.0164    1767411.21846   1377204.05046                  19377316.8874
        15.0004         14.2504
  22620533.8914   -1841569.83041    -75600.71641                  22620536.9494
         3.5004          0.7504
  20600699.3444   -3255338.53045  -2536623.71745                  20600703.1994
        10.0004          7.5004
  21675608.1174    3876637.24644   3003655.18342                  21675612.6414
         6.7504          2.2504
 98  6 15 19 40 30.0000000  0  7G 5G 6G30G10G26G17G24
  20193524.3674    4300900.78845   3351349.84045                  20193527.4964
        10.0004          7.2504
  19235963.9694   -2785816.48146  -2170763.82246                  19235966.0784
        15.5004         15.5004
  18796557.4614    1041233.39546    780401.80546                  18796559.5234
        16.2504         18.0004
  19382653.3134    1795470.28246   1399068.26546                  19382655.7274
        15.0004         14.0004
  22613625.1884   -1877869.93041   -103886.33241                  22613633.1724
         3.2504          0.7504
  20595606.5704   -3282100.64045  -2557477.28045                  20595610.4264
         9.7504          7.5004
  21683664.1414    3918974.79344   3036645.49742                  21683667.0824
         6.2504          2.2504
 98  6 15 19 40 45.0000000  0  7G 5G 6G30G10G26G17G24
  20203126.2814    4351359.73345   3390668.47145                  20203129.2704
        10.2504          7.0004
  19231648.8984   -2808494.83946  -2188435.26046                  19231651.0784
        15.5004         15.2504
  18801557.0084    1067505.67146    800873.69646                  18801558.7194
        16.5004         18.2504
  19388030.4924    1823727.64446   1421086.98646                  19388033.3874
        15.0004         14.2504
  22606726.8284   -1914124.38841   -132136.41041                  22606736.2774
         3.5004          0.7504
  20590537.9384   -3308737.53045  -2578233.25845                  20590542.3554
        10.0004          7.0004
  21691733.0704    3961378.16143   3069687.06342                  21691737.9454
         6.0004          2.0004
 98  6 15 19 41  0.0000000  0  7G 5G 6G30G10G26G17G24
  20212754.8204    4401957.69445   3430095.44445                  20212758.2424
        10.0004          6.7504
  19227352.3204   -2831070.77046  -2206026.87846                  19227354.6764
        15.0004         15.7504
  18806594.0704    1093975.86446    821499.82146                  18806595.9574
        16.5004         18.2504
  19393445.0394    1852181.20746   1443258.59746                  19393447.9344
        14.7504         13.5004
  22599837.3674   -1950332.18741   -160350.04541                  22599841.7504
         3.2504          1.0004
  20585492.9304   -3335250.31245  -2598892.52745                  20585497.1954
        10.2504          7.2504
  21699814.1804    4003845.16344   3102778.18643                  21699818.8204
         6.2504          2.5004
 98  6 15 19 41 15.0000000  0  7G 5G 6G30G10G26G17G24
  20222409.3594    4452691.76745   3469628.46545                  20222412.7934
        10.2504          6.7504
  19223076.3284   -2853541.02046  -2223536.14846                  19223079.0124
        15.2504         15.2504
  18811668.8914    1120642.99246    842279.39646                  18811670.7894
        16.5004         18.0004
  19398897.2894    1880832.79246   1465584.50146                  19398900.0204
        15.0004         14.2504
  22592955.6174   -1986491.84341   -188526.30041                  22592962.4384
         3.2504          0.5004
  20580470.6884   -3361639.32245  -2619455.36045                  20580474.4024
        10.0004          7.0004
  21707907.4064    4046374.64943   3135918.03042                  21707912.1054
         6.0004          2.2504
 98  6 15 19 41 30.0000000  0  7G 5G 6G30G10G26G17G24
  20232088.9774    4503560.03645   3509266.06445                  20232092.1174
        10.0004          6.7504
  19218821.3364   -2875902.09246  -2240960.33346                  19218823.9964
        15.0004         15.5004
  18816781.2344    1147509.35446    863214.22446                  18816783.1914
        16.5004         18.0004
  19404387.8594    1909685.57046   1488067.19846                  19404390.5554
        15.0004         13.7504
  22586083.8054   -2022598.29541   -216660.91341                  22586094.2854
         3.5004          0.7504
  20575472.3914   -3387907.25345  -2639923.83845                  20575476.4344
        10.0004          7.2504
  21716012.0554    4088965.90243   3169105.97242                  21716016.8594
         6.0004          2.0004
 98  6 15 19 41 45.0000000  0  7G 5G 6G30G10G26G17G24
  20241794.2504    4554558.95445   3549005.45045                  20241798.1294
        10.2504          6.7504
  19214587.1484   -2898152.28746  -2258298.13546                  19214589.6804
        15.2504         15.5004
  18821931.3364    1174572.60146    884302.46346                  18821933.0234
        16.7504         18.0004
  19409916.5084    1938737.89646   1510705.37246                  19409919.5554
        14.7504         13.7504
  22579222.6174   -2058650.71441
         3.2504
  20570496.0004   -3414056.97745  -2660300.22145                  20570499.6334
        10.0004          6.7504
  21724127.3204    4131615.65443   3202339.49642                  21724132.0204
         5.7504          2.0004
 98  6 15 19 42  0.0000000  0  7G 5G 6G30G10G26G17G24
  20251523.5474    4605688.90745   3588846.94645                  20251527.2154
        10.2504          6.7504
  19210374.6254   -2920289.18046  -2275547.64246                  19210377.1334
        15.2504         15.5004
  18827119.1884    1201834.65646    905545.61546                  18827120.7114
        16.7504         18.5004
  19415483.2894    1967992.72146   1533501.34646                  19415486.5474
        15.0004         13.7504
  22572373.4064   -2094647.52241
         3.0004
  20565542.6884   -3440089.70245  -2680585.42545                  20565546.3914
        10.0004          7.0004
  21732255.4064    4174321.06543   3235616.48342                  21732261.1604
         6.0004          1.7504
 98  6 15 19 42 15.0000000  0  7G 5G 6G30G10G26G17G24
  20261278.6644    4656951.54845   3628791.85045                  20261281.3484
        10.0004          6.7504
  19206184.0084   -2942309.92446  -2292706.64146                  19206186.1884
        15.5004         15.5004
  18832344.9534    1229298.19946    926945.77446                  18832346.6414
        17.0004         19.0004
  19421088.9614    1997450.99546   1556455.84446                  19421091.8444
        14.7504         14.0004
  22565534.2974   -2130588.29441
         3.2504
  20560610.6644   -3466005.83445  -2700779.77045                  20560614.2504
        10.2504          7.2504
  21740392.0864    4217083.88743   3268938.10542                  21740396.7274
         5.0004          1.7504
 98  6 15 19 42 30.0000000  0  7G 5G 6G30G10G26G17G24
  20271058.6484    4708345.62645   3668839.15545                  20271061.7664
        10.0004          6.2504
  19202015.5084   -2964217.45246  -2309777.43046                  19202017.6994
        15.5004         15.7504
  18837608.7894    1256958.56946    948499.30946                  18837610.4414
        17.0004         18.7504
  19426731.6644    2027105.23446   1579563.04146                  19426734.6414
        14.7504         13.7504
  22558704.1644   -2166477.35441
         3.0004
  20555700.3674   -3491806.88045  -2720884.45445                  20555704.0594
        10.0004          7.2504
  21748540.1094    4259900.92743   3302302.00542                  21748545.7344
         6.0004          2.0004
 98  6 15 19 42 45.0000000  0  7G 5G 6G30G10G26G17G24
  20280863.0554    4759867.44745   3708985.99245                  20280865.8444
        10.0004          6.5004
  19197867.9384   -2986013.87646  -2326761.64146                  19197870.0944
        15.5004         15.7504
  18842909.0474    1284812.42646    970203.60446                  18842910.8164
        17.0004         19.0004
  19432411.6724    2056952.58946   1602820.72846                  19432414.9414
        14.2504         13.2504
  22551886.2274   -2202313.35341
         3.2504
  20550812.5634   -3517493.80445  -2740900.20545                  20550816.4414
        10.0004          7.2504
  21756697.8984    4302768.26643   3335705.07642                  21756703.5474
         5.5004          2.0004
 98  6 15 19 43  0.0000000  0  7G 5G 6G30G10G26G17G24
  20290690.7504    4811512.89245   3749229.16045                  20290694.1024
        10.0004          7.0004
  19193742.1564   -3007696.15146  -2343656.90746                  19193744.1134
        15.7504         15.5004
  18848246.3754    1312859.63146    992058.56446                  18848247.8754
        17.0004         19.0004
  19438127.7034    2086990.04846   1626226.53946                  19438130.6914
        14.2504         13.5004
  22545076.4694   -2238093.07641    -18581.04951                  22545087.9694
         3.2504          0.7504
  20545946.3204   -3543065.96845  -2760826.52545                  20545949.8834
        10.0004          7.2504
  21764864.3444    4345683.07043   3369145.21642                  21764867.2504
         5.7504          2.0004
 98  6 15 19 43 15.0000000  0  7G 5G 6G30G10G26G17G24
  20300541.9694    4863280.76245   3789567.75645                  20300545.3094
        10.0004          6.2504
  19189637.6804   -3029264.91446  -2360463.72046                  19189639.6484
        15.7504         15.5004
  18853621.0944    1341103.26846   1014066.58746                  18853622.8404
        16.7504         19.0004
  19443878.6644    2117212.83246   1649776.76146                  19443881.6174
        14.0004         13.2504
  22538276.3834   -2273816.75841    -46417.39141                  22538284.4844
         3.0004          1.0004
  20541102.2034   -3568522.19645  -2780662.51845                  20541106.0594
        10.0004          7.5004
  21773039.3204    4388645.46443   3402622.38942                  21773043.8444
         5.2504          1.7504
 98  6 15 19 43 30.0000000  0  7G 5G 6G30G10G26G17G24
  20310417.0164    4915171.31545   3830001.91645                  20310420.1804
        10.0004          6.5004
  19185553.2114   -3050727.38946  -2377187.71246                  19185555.1454
        15.7504         16.0004
  18859032.7034    1369541.57946   1036226.30746                  18859034.5204
        17.0004         18.7504
  19449664.4304    2147615.63046   1673467.24646                  19449667.6524
        14.2504         13.5004
  22531488.9694   -2309487.20841    -74212.39841                  22531495.5554
         3.0004          1.0004
  20536279.1564   -3593867.39545  -2800411.99645                  20536283.4574
        10.0004          7.2504
  21781223.3914    4431652.03043   3436133.95842                  21781225.1254
         6.0004          2.0004
 98  6 15 19 43 45.0000000  0  7G 5G 6G30G10G26G17G24
  20320315.2194    4967188.78745   3870534.98845                  20320318.2304
        10.0004          6.7504
  19181489.6024   -3072082.07146  -2393827.70346                  19181491.4534
        15.7504         15.7504
  18864481.6804    1398176.10246   1058538.91346                  18864483.4144
        17.0004         18.7504
  19455484.2734    2178200.16046   1697299.34746                  19455487.8484
        14.2504         13.2504
  22524712.0164   -2345102.24841   -101964.19641                  22524716.7034
         3.0004          0.7504
  20531478.5704   -3619095.87645  -2820070.51045                  20531483.1764
        10.0004          7.2504
  21789415.7274    4474706.50243   3469682.85642                  21789422.3484
         5.7504          2.0004
 98  6 15 19 44  0.0000000  0  7G 5G 6G30G10G26G17G24
  20330236.5234    5019328.81045   3911163.55245                  20330239.7814
        10.0004          6.7504
  19177445.3134   -3093333.47346  -2410387.23046                  19177447.3874
        15.7504         16.0004
  18869967.0554    1427002.20146   1081000.80946                  18869968.9064
        17.0004         18.7504
  19461338.5554    2208962.84646   1721270.27146                  19461342.2464
        14.2504         13.2504
  22517944.5944   -2380667.92841   -129677.57241                  22517948.3094
         3.5004          0.7504
  20526698.6884   -3644210.43645  -2839640.27345                  20526702.8244
         9.7504          7.0004
  21797617.0944    4517804.62543   3503265.78142                  21797623.5744
         5.7504          1.7504
 98  6 15 19 44 15.0000000  0  7G 5G 6G30G10G26G17G24
  20340182.8754    5071592.58545   3951888.54345                  20340185.3134
        10.0004          6.7504
  19173421.4224   -3114479.60946  -2426864.71846                  19173423.7424
        15.7504         16.2504
  18875489.4924    1456022.02046   1103613.64646                  18875491.3554
        17.0004         18.7504
  19467227.1334    2239907.31946   1745382.84346                  19467230.5664
        14.2504         13.0004
  22511185.9064   -2416182.63341   -157351.11741                  22511193.3524
         3.2504          0.7504
  20521941.9774   -3669208.31645  -2859119.09545                  20521946.7234
         9.7504          7.5004
  21805828.6954    4560951.49743   3536886.67942                  21805833.2544
         6.0004          2.0004
 98  6 15 19 44 30.0000000  0  7G 5G 6G30G10G26G17G24
  20350152.2194    5123981.19545   3992710.81245                  20350155.8874
        10.0004          6.7504
  19169417.8134   -3135519.86546  -2443259.71046                  19169419.8164
        15.5004         16.0004
  18881048.6024    1485235.32346   1126377.25546                  18881050.5704
        16.7504         19.0004
  19473150.3284    2271034.65946   1769637.91146                  19473153.6454
        14.5004         13.2504
  22504438.1414   -2451643.93541
         3.5004
  20517207.5784   -3694087.20345  -2878505.20545                  20517211.6804
        10.0004          7.2504
  21814048.3674    4604150.20743   3570548.00542                  21814054.4144
         6.0004          2.2504
 98  6 15 19 44 45.0000000  0  7G 5G 6G30G10G26G17G24
  20360144.4144    5176492.71245   4033628.84145                  20360147.3094
        10.0004          6.7504
  19165434.1564   -3156453.77946  -2459571.83946                  19165436.3834
        15.7504         15.7504
  18886645.0634    1514643.16446   1149292.45146                  18886646.8554
        17.0004         18.7504
  19479108.7894    2302347.42446   1794037.47846                  19479111.7774
        14.7504         13.2504
  22497701.7344   -2487047.17841
         3.0004
  20512496.4774   -3718844.80045  -2897796.81745                  20512500.8134
         9.7504          7.7504
  21822279.5004    4647400.86744   3604249.77942                  21822285.1724
         6.2504          2.0004
 98  6 15 19 45  0.0000000  0  7G 5G 6G30G10G26G17G24
  20370160.0234    5229124.22145   4074640.39645                  20370162.8134
        10.2504          6.5004
  19161470.3364   -3177283.15746  -2475802.50946                  19161472.5744
        15.7504         16.0004
  18892277.6484    1544243.95846   1172357.99746                  18892279.3484
        17.0004         18.5004
  19485102.7894    2333845.76946   1818581.64146                  19485105.6024
        14.7504         13.7504
  22490975.3444   -2522391.16741
         3.2504
  20507808.0314   -3743485.33945  -2916997.19545                  20507812.4734
        10.0004          7.5004
  21830519.0634    4690701.93343   3637990.86942                  21830525.0634
         6.0004          2.0004
 98  6 15 19 45 15.0000000  0  7G 5G 6G30G10G26G17G24
  20380198.5164    5281879.18145   4115748.13345                  20380202.1134
        10.0004          6.5004
  19157526.6724   -3198007.14046  -2491951.05146                  19157529.0274
        15.7504         16.2504
  18897947.0864    1574036.31146   1195572.80846                  18897948.9964
        17.0004         18.2504
  19491132.7664    2365531.39146   1843271.73646                  19491135.7194
        14.7504         13.0004
  22484260.0784   -2557676.05441
         3.0004
  20503141.6884   -3768007.38845  -2936105.24345                  20503146.2114
        10.0004          7.7504
  21838769.4384    4734057.65244   3671774.49542                  21838776.4614
         6.2504          2.0004
 98  6 15 19 45 30.0000000  0  7G 5G 6G30G10G26G17G24
  20390261.5004    5334760.49945   4156954.33345                  20390265.2624
        10.0004          6.7504
  19153602.6564   -3218628.34546  -2508019.50746                  19153605.0234
        15.7504         16.0004
  18903652.7974    1604020.94646   1218937.45546                  18903654.3554
        17.0004         18.7504
  19497198.3674    2397408.18546   1868110.79546                  19497201.5784
        14.7504         13.2504
  22477557.9694   -2592901.51641
         3.5004
  20498497.2584   -3792410.61445  -2955120.71645                  20498501.7584
        10.2504          7.5004
  21847030.0554    4777467.94744   3705600.66742                  21847034.2034
         6.2504          2.0004
 98  6 15 19 45 45.0000000  0  7G 5G 6G30G10G26G17G24
  20400349.0084    5387771.24245   4198261.36845                  20400352.9454
        10.0004          6.0004
  19149699.3444   -3239141.23246  -2524003.56246                  19149701.2894
        15.7504         16.2504
  18909395.7814    1634200.82546   1242454.23346                  18909397.4924
        16.7504         18.2504
  19503301.7664    2429481.59046   1893103.05646                  19503304.9654
        14.5004         13.0004
  22470865.8834   -2628065.45341
         3.5004
  20493876.8204   -3816691.70045  -2974041.01345                  20493880.4534
        10.2504          7.5004
  21855302.0394    4820936.16843   3739472.05842                  21855309.8714
         6.0004          1.7504
 98  6 15 19 46  0.0000000  0  7G 5G 6G30G10G26G17G24
  20410460.7274    5440906.76345   4239665.65545                  20410464.4414
         9.7504          6.2504
  19145816.6174   -3259544.00046  -2539901.80446                  19145818.5984
        15.5004         16.2504
  18915175.6334    1664574.97346   1266122.39546                  18915177.3914
        16.7504         18.2504
  19509442.1254    2461749.57746   1918246.94246                  19509445.0314
        15.0004         13.2504
  22464184.8984   -2663169.61641    -25527.61051                  22464183.4344
         3.5004          0.7504
  20489278.9774   -3840852.66445  -2992867.70145                  20489282.8094
        10.0004          7.5004
  21863584.3134    4864460.87444   3773387.36842                  21863590.9694
         6.2504          2.0004
 98  6 15 19 46 15.0000000  0  7G 5G 6G30G10G26G17G24
  24018096.5784    5494121.39445   4281131.56845                  24018100.0354
         9.7504          6.7504
  22739467.3284   -3279820.70246  -2555701.82146                  22739469.3794
        15.7504         16.7504
  22518497.4064    1695118.37746   1289922.44646                  22518499.3634
        16.7504         18.0004
  23113123.7274    2494183.73946   1943520.31046                  23113126.4574
        14.7504         13.2504
  26055033.0234   -2698185.43942    -52812.43241                  26055041.9344
         3.7504          0.5004
  24082216.6484   -3864877.95245  -3011588.66745                  24082221.1134
        10.0004          7.2504
  25469380.9144    4908004.96943   3807317.79042                  25469384.8754
         6.0004          1.7504
 98  6 15 19 46 30.0000000  0  7G 5G 6G30G10G26G17G24
  24028254.2034    5547502.39145   4322727.12945                  24028258.3404
         9.7504          6.2504
  22735627.3984   -3300001.76246  -2571427.31246                  22735629.4844
        15.7504         16.5004
  22524351.5554    1725882.92646   1313894.81646                  22524353.5234
        16.5004         18.7504
  23119337.0314    2526835.65946   1968963.36846                  23119339.7854
        14.5004         13.5004
  26048375.2274   -2733165.29841    -80069.31841                  26048383.7034
         3.5004          0.7504
  24077663.8364   -3888804.16145  -3030232.43445                  24077667.4924
        10.2504          7.7504
  25477684.1644    4951639.86044   3841318.99042                  25477689.9654
         6.2504          2.0004
 98  6 15 19 46 45.0000000  0  7G 5G 6G30G10G26G17G24
  24038436.7274    5601007.19245   4364419.14045                  24038440.2664
         9.5004          6.2504
  22731808.2894   -3320070.63846  -2587065.38346                  22731810.5274
        15.5004         16.5004
  22530243.6094    1756844.83746   1338020.97146                  22530245.5314
        16.5004         18.0004
  23125586.3204    2559675.86046   1994553.13346                  23125588.7934
        14.7504         13.2504
  26041731.1094   -2768080.50241   -107275.77141                  26041743.4534
         3.5004          1.0004
  24073132.4384   -3912613.04245  -3048784.76345                  24073136.9264
        10.2504          7.7504
  25485996.6094    4995327.60643   3875361.37442                  25486003.2544
         6.0004          1.7504
 98  6 15 19 47  0.0000000  0  7G 5G 6G30G10G26G17G24
  24048641.4454    5654635.10545   4406207.09845                  24048645.6414
         9.5004          6.0004
  22728010.9534   -3340026.37646  -2602615.29646                  22728013.0634
        15.7504         16.0004
  22536173.4844    1788006.81846   1362303.03646                  22536175.6414
        16.5004         18.5004
  23131871.3284    2592703.52046   2020288.96546                  23131874.2464
        14.7504         13.2504
  26035098.7194   -2802932.84742   -134433.36641                  26035106.4924
         3.7504          1.2504
  24068624.6644   -3936304.13845  -3067245.32545                  24068628.3204
        10.5004          7.7504
  25494320.9304    5039069.64643   3909446.01842                  25494324.9384
         6.0004          2.2504
 98  6 15 19 47 15.0000000  0  7G 5G 6G30G10G26G17G24
  24058869.1564    5708382.53045   4448088.17845                  24058872.5314
         9.2504          6.0004
  22724234.2274   -3359871.87046  -2618079.30146                  22724236.1954
        15.7504         16.0004
  22542140.3134    1819362.69446   1386736.17946                  22542142.4694
        16.5004         18.7504
  23138191.0314    2625913.45246   2046166.83646                  23138193.9144
        14.5004         13.2504
  26028476.9924   -2837729.07242   -161547.26141                  26028484.5314
         3.7504          1.2504
  24064138.2424   -3959879.99445  -3085616.08645                  24064142.1564
        10.2504          7.5004
  25502654.7034    5082865.38443   3943572.61442                  25502658.0084
         6.0004          1.7504
 98  6 15 19 47 30.0000000  0  7G 5G 6G30G10G26G17G24
  24069119.1644    5762247.44545   4490060.80645                  24069122.1524
         9.2504          6.2504
  22720478.3674   -3379608.46046  -2633458.45246                  22720480.0204
        15.5004         16.2504
  22548143.8914    1850911.65146   1411319.77446                  22548145.6604
        16.5004         18.5004
  23144544.9064    2659302.17746   2072184.01446                  23144547.8954
        14.7504         13.0004
  26021865.8594   -2872470.61242   -188618.25841                  26021873.1174
         3.7504          0.7504
  24059674.4384   -3983339.92945  -3103896.51045                  24059677.8954
        10.5004          8.0004
  25510999.5554    5126714.65243   3977740.77342                  25511005.7424
         5.7504          1.7504
 98  6 15 19 47 45.0000000  0  7G 5G 6G30G10G26G17G24
  24079391.5084    5816227.77145   4532123.35945                  24079395.3164
         9.2504          6.2504
  22716743.6804   -3399234.83146  -2648751.71146                  22716745.7544
        15.7504         16.0004
  22554184.7114    1882655.83346   1436055.49646                  22554186.4924
        16.7504         18.7504
  23150932.4064    2692869.26846   2098340.19846                  23150935.7704
        14.7504         13.5004
  26015265.3674   -2907157.46842   -215646.88941                  26015272.5434
         3.7504          1.0004
  24055232.2734   -4006682.54745  -3122085.52845                  24055235.9654
        10.7504          8.0004
  25519354.8054    5170619.46244   4011952.29742                  25519360.5234
         6.2504          2.0004
 98  6 15 19 48  0.0000000  0  7G 5G 6G30G10G26G17G24
  24089685.3834    5870319.96045   4574273.09745                  24089689.2854
         9.2504          5.7504
  22713029.9224   -3418749.99946  -2663958.32346                  22713031.7974
        15.7504         16.0004
  22560261.8914    1914592.12846   1460940.90846                  22560263.6024
        16.7504         18.2504
  23157353.4844    2726612.41346   2124633.54846                  23157356.4964
        14.5004         13.7504
  26008674.4304   -2941789.92842   -242633.11641                  26008682.8364
         3.7504          1.0004
  24050812.3754   -4029909.30045  -3140184.25345                  24050816.3134
        10.7504          8.2504
  25527719.7034    5214580.98543   4046207.99742                  25527724.5784
         5.5004          1.7504
 98  6 15 19 48 15.0000000  0  7G 5G 6G30G10G26G17G24
  24099998.7974    5924522.44645   4616508.76645                  24100003.1454
         8.7504          6.0004
  22709337.2894   -3438155.79146  -2679079.70646                  22709339.1884
        15.7504         16.0004
  22566375.9144    1946719.93846   1485975.55846                  22566377.7304
        16.5004         18.5004
  23163807.7814    2760529.48046   2151062.43046                  23163811.1804
        14.7504         13.5004
  26002094.9694   -2976368.02842   -269576.89341                  26002101.6374
         3.7504          1.2504
  24046414.2194   -4053021.17445  -3158193.47845                  24046417.8874
        10.7504          8.2504
  25536095.9774    5258598.68443   4080507.52542                  25536101.1684
         5.7504          1.7504
 98  6 15 19 48 30.0000000  0  7G 5G 6G30G10G26G17G24
  24110334.6644    5978836.65545   4658831.50445                  24110337.8524
         8.7504          5.7504
  22705664.9224   -3457453.48046  -2694116.85246                  22705666.9844
        15.5004         15.5004
  22572525.8754    1979039.54046   1511159.65746                  22572527.4924
        16.5004         17.7504
  23170294.7504    2794620.27646   2177626.68646                  23170298.1844
        14.5004         13.5004
  25995524.3284   -3010892.08341   -296478.62341                  25995529.0394
         3.5004          0.7504
  24042037.9224   -4076017.74745  -3176112.85145                  24042042.5164
        10.7504          8.0004
  25544483.1804    5302672.97943   4114851.05542                  25544487.4694
         5.5004          1.7504
 98  6 15 19 48 45.0000000  0  7G 5G 6G30G10G26G17G24
  24120691.7114    6033262.96545   4701241.58145                  24120695.0044
         9.0004          6.0004
  22702013.3524   -3476643.34146  -2709069.97446                  22702015.3554
        15.5004         16.2504
  22578712.3284    2011549.47346   1536492.06546                  22578714.2504
        16.5004         18.0004
  23176815.0084    2828884.75546   2204326.28246                  23176817.8204
        14.5004         13.0004
  25988964.6804   -3045364.10241   -323339.72141                  25988970.4104
         3.5004          1.0004
  24037683.5164   -4098899.25045  -3193942.56445                  24037688.0864
        10.7504          8.0004
  25552881.2034    5346801.74843   4149237.10141                  25552888.2624
         5.7504          1.2504
 98  6 15 19 49  0.0000000  0  7G 5G 6G30G10G26G17G24
  24131069.7974    6087800.44645   4743738.29545                  24131073.7704
         8.5004          5.5004
  22698381.7194   -3495726.91346  -2723940.27846                  22698383.7704
        16.0004         16.0004
  22584934.4774    2044247.58346   1561971.10446                  22584936.3164
        16.2504         18.0004
  23183368.7504    2863323.61846   2231161.75846                  23183371.8914
        14.5004         13.0004
  25982413.4614   -3079786.88741   -350162.50841                  25982413.1804
         3.2504          0.7504
  24033351.0944   -4121665.67545  -3211682.59145                  24033354.9614
        10.7504          8.5004
  25561287.6564    5390982.67543   4183663.78542                  25561292.6484
         5.2504          1.5004
 98  6 15 19 49 15.0000000  0  7G 5G 6G30G10G26G17G24
  24141469.6024    6142448.89845   4786321.47245                  24141473.5634
         9.0004          5.5004
  22694770.2664   -3514705.59746  -2738728.84846                  22694772.3634
        15.7504         16.5004
  22591192.2814    2077131.31346   1587594.78046                  22591194.3324
        16.2504         17.5004
  23189956.0234    2897940.98646   2258136.32246                  23189959.3524
        14.5004         13.0004
  25975872.7894   -3114160.99841   -376947.19841                  25975875.1334
         3.5004          0.7504
  24029040.5084   -4144318.81545  -3229334.36545                  24029044.0944
        10.5004          8.5004
  25569705.2034    5435214.11843   4218129.80442                  25569709.9144
         5.2504          1.7504
 98  6 15 19 49 30.0000000  0  7G 5G 6G30G10G26G17G24
  24151890.5784    6197212.01745   4828993.99345                  24151893.9184
         9.0004          5.7504
  22691178.7664   -3533579.08546  -2753435.44946                  22691180.8054
        15.7504         16.7504
  22597484.8754    2110198.74646   1613361.60446                  22597487.1254
        16.2504         17.2504
  23196578.2894    2932738.98646   2285251.65146                  23196581.7114
        14.2504         13.0004
  25969340.2194   -3148482.17541   -403691.05341                  25969345.4104
         3.2504          1.0004
  24024751.3364   -4166858.26745  -3246897.53645                  24024755.8954
        10.7504          8.0004
  25578130.5864    5479493.35543   4252633.06042                  25578135.7894
         5.5004          1.5004
 98  6 15 19 49 45.0000000  0  7G 5G 6G30G10G26G17G24
  24162333.8834    6252091.73545   4871757.38745                  24162337.7154
         9.0004          5.7504
  22687607.2584   -3552345.55846  -2768058.65746                  22687609.3444
        15.7504         16.5004
  22603812.4614    2143451.49746   1639272.83146                  22603814.5594
        16.0004         17.5004
  23203234.7974    2967720.65346   2312510.08946                  23203237.6334
        14.7504         13.0004
  25962819.7504   -3182751.26341   -430393.93941                  25962830.5704
         3.2504          1.2504
  24020483.7424   -4189285.85345  -3264373.54845                  24020487.6914
        11.0004          8.5004
  25586565.2974    5523816.85843   4287170.85342                  25586569.6094
         5.5004          1.5004
 98  6 15 19 50  0.0000000  0  7G 5G 6G30G10G26G17G24
  24172799.3594    6307089.10745   4914612.45045                  24172803.6134
         9.0004          5.7504
  22684057.5704   -3571002.04246  -2782596.17346                  22684059.8094
        15.7504         16.7504
  22610175.6644    2176889.49646   1665328.41046                  22610177.7504
        16.0004         17.5004
  23209927.1804    3002888.41946   2339913.54646                  23209929.8284
        14.7504         12.7504
  25956308.9304   -3216968.75741   -457056.78641                  25956318.9774
         3.5004          1.2504
  24016236.8524   -4211603.44845  -3281763.84945                  24016241.2584
        11.0004          8.2504
  25595008.1804    5568181.44743   4321740.62442                  25595012.8204
         5.2504          1.5004
 98  6 15 19 50 15.0000000  0  7G 5G 6G30G10G26G17G24
  24183288.0784    6362206.64345   4957561.13445                  24183292.4964
         9.0004          5.7504
  22680527.9844   -3589549.18546  -2797048.46746                  22680530.1764
        15.7504         16.5004
  22616573.1564    2210510.39646   1691526.50646                  22616575.3954
        16.0004         17.0004
  23216654.5164    3038242.00846   2367461.80146                  23216657.3524
        14.5004         13.0004
  25949806.8364   -3251133.73641   -483678.67041                  25949812.2624
         3.5004          1.2504
  24012010.4064   -4233813.26545  -3299070.16845                  24012014.5314
        10.7504          8.7504
  25603457.8674    5612584.39743   4356340.31041                  25603462.9184
         5.2504          1.2504
 98  6 15 19 50 30.0000000  0  7G 5G 6G30G10G26G17G24
  24193799.6804    6417445.94745   5000604.73345                  24193804.0634
         9.0004          5.5004
  22677018.6564   -3607990.29246  -2811418.15346                  22677021.0594
        15.7504         16.2504
  22623005.8054    2244312.92846   1717866.14046                  22623008.2194
        16.2504         17.2504
  23223417.3524    3073781.33846   2395154.79046                  23223420.0824
        14.7504         12.7504
  25943315.5234   -3285246.32141   -510259.70441                  25943326.8484
         3.5004          1.2504
  24007804.5004   -4255914.91245  -3316292.20145                  24007808.6024
        10.7504          8.5004
  25611914.0634    5657023.28243   4390967.96742                  25611917.6604
         5.0004          1.5004
 98  6 15 19 50 45.0000000  0  7G 5G 6G30G10G26G17G24
  24204335.6564    6472810.23145   5043745.69845                  24204340.2624
         9.0004          5.5004
  22673530.3284   -3626322.90346  -2825703.29046                  22673532.4494
        16.0004         16.7504
  22629472.7584    2278296.22746   1744346.62046                  22629475.0784
        16.5004         17.2504
  23230216.6884    3109511.29046   2422996.30646                  23230219.6764
        14.5004         13.0004
  25936835.1804   -3319301.18242   -536795.79641                  25936838.4024
         3.7504          1.0004
  24003619.5554   -4277906.06245  -3333428.12745                  24003623.2814
        11.0004          8.5004
  25620378.0864    5701502.07743   4425626.78442                  25620382.9494
         5.2504          1.5004
 98  6 15 19 51  0.0000000  0  7G 5G 6G30G10G26G17G24
  24214894.9924    6528301.51345   5086985.62645                  24214899.0234
         9.0004          5.7504
  22670062.8834   -3644543.63646  -2839901.25146                  22670065.0274
        16.0004         17.0004
  22635973.8674    2312460.23846   1770967.92146                  22635976.0824
        16.2504         17.7504
  23237052.1884    3145432.88046   2450987.15746                  23237055.0824
        14.5004         12.7504
  25930365.3284   -3353296.08641   -563285.25041                  25930368.7154
         3.5004          1.0004
  23999457.0944   -4299783.15645  -3350475.17745                  23999460.5634
        11.5004          9.0004
  25628849.5394    5746022.69543   4460318.11542                  25628855.8674
         5.2504          1.7504
 98  6 15 19 51 15.0000000  0  7G 5G 6G30G10G26G17G24
  24225477.1724    6583913.04745   5130319.26845                  24225480.4654
         9.0004          5.2504
  22666616.3444   -3662656.66846  -2854015.29446                  22666618.6994
        16.2504         17.2504
  22642508.2734    2346799.52446   1797725.80246                  22642510.1134
        16.2504         17.7504
  23243923.5234    3181541.38946   2479123.65946                  23243926.4654
        14.5004         12.7504
  25923906.5314   -3387234.85941   -589730.86541                  25923910.9144
         3.5004          0.7504
  23995314.3754   -4321551.75045  -3367437.69745                  23995317.9844
        11.5004          8.7504
  25637329.8594    5790582.02043   4495039.62842                  25637332.8484
         5.2504          1.7504
 98  6 15 19 51 30.0000000  0  7G 5G 6G30G10G26G17G24
  24236083.2034    6639647.10845   5173748.34745                  24236087.5744
         9.0004          5.2504
  22663190.8364   -3680657.50146  -2868041.90146                  22663192.8404
        16.2504         17.2504
  22649076.8984    2381317.36546   1824622.81346                  22649078.8204
        16.2504         17.5004
  23250830.7194    3217837.65146   2507406.45346                  23250833.9184
        14.2504         12.7504
  25917461.2504   -3421109.81341   -616126.63841                  25917472.6334
         3.5004          1.2504
  23991193.3364   -4343207.31845  -3384312.13145                  23991197.0984
        11.5004          9.0004
  25645817.5864    5835185.61243   4529795.64942                  25645823.8324
         5.2504          1.5004
 98  6 15 19 51 45.0000000  0  7G 5G 6G30G10G26G17G24
  24846295.6564    6695493.64145   5217265.10445                  24846300.3324
         9.0004          5.2504
  23259372.5704   -3698540.95746  -2881977.05246                  23259374.7154
        16.2504         17.2504
  23255264.0234    2416012.03846   1851657.61646                  23255265.8754
        16.2504         17.2504
  23857356.2504    3254312.45046   2535828.37246                  23857359.1334
        14.2504         12.7504
  26510612.9384   -3454916.99942   -642469.80941                  26510619.4654
         3.7504          1.0004
  24586679.7504   -4364745.89545  -3401095.40145                  24586683.6764
        11.7504          9.0004
  26253898.4924    5879831.05743   4564584.30942                  26253902.4414
         5.2504          1.5004
 98  6 15 19 52  0.0000000  0  7G 5G 6G30G10G26G17G24
  24856946.4774    6751463.69545   5260878.10745                  24856951.3874
         8.5004          5.0004
  23255991.0394   -3716311.13646  -2895823.93446                  23255992.9844
        16.5004         17.5004
  23261901.7504    2450894.67846   1878838.88946                  23261903.7774
        16.5004         17.7504
  23864332.1024    3290971.28446   2564393.70146                  23864335.1604
        14.2504         12.5004
  26504190.0784   -3488666.00942   -668767.68341                  26504193.8754
         3.7504          1.0004
  24582602.7424   -4386171.04245  -3417790.29445                  24582606.8094
        11.5004          9.2504
  26262404.0234    5924531.52643   4599415.75641                  26262407.4224
         5.0004          1.0004
 98  6 15 19 52 15.0000000  0  7G 5G 6G30G10G26G17G24
  24867618.0164    6807545.94045   5304578.52345                  24867622.3754
         8.5004          5.0004
  23252630.5164   -3733970.87646  -2909584.76346                  23252632.4024
        16.2504         17.2504
  23268574.3594    2485958.94246   1906161.68346                  23268576.2464
        16.5004         18.0004
  23871341.1334    3327803.21346   2593093.90646                  23871343.8164
        14.2504         12.7504
  26497779.4844   -3522350.27042   -695014.95041                  26497790.1054
         3.7504          0.7504
  24578547.4224   -4407479.86345  -3434394.53645                  24578551.1844
        11.7504          9.5004
  26270920.5704    5969282.46443   4634286.61642                  26270923.5594
         5.5004          2.0004
 98  6 15 19 52 30.0000000  0  7G 5G 6G30G10G26G17G24
  24878310.6724    6863736.23445   5348363.14145                  24878313.6604
         8.5004          5.2504
  23249290.5314   -3751523.09646  -2923261.80646                  23249292.4884
        16.2504         17.5004
  23275281.1884    2521202.71146   1933624.35746                  23275283.0274
        16.5004         17.7504
  23878382.8364    3364805.84246   2621927.12246                  23878385.9534
        14.2504         12.0004
  26491383.0004   -3555969.18742   -721211.35842                  26491390.5634
         3.7504          1.5004
  24574515.1174   -4428670.56345  -3450906.75145                  24574518.5634
        11.5004          9.2504
  26279445.1724    6014083.86743   4669196.74442                  26279450.0944
         5.2504          2.0004
 98  6 15 19 52 45.0000000  0  7G 5G 6G30G10G26G17G24
  24889023.1094    6920030.65345   5392228.89145                  24889027.3284
         8.5004          5.5004
  23245971.1724   -3768965.77546  -2936853.49246                  23245973.4454
        16.5004         17.5004
  23282022.3054    2556625.98646   1961226.90046                  23282024.4614
        17.0004         17.7504
  23885455.9534    3401976.33246   2650891.13846                  23885459.2704
        14.0004         12.2504
  26484998.0394   -3589525.07542   -747358.56341                  26485006.0824
         3.7504          0.7504
  24570505.6024   -4449742.46145  -3467326.37545                  24570509.6454
        11.5004          9.7504
  26287980.6174    6058935.14343   4704145.75442                  26287986.0554
         5.2504          2.0004
 98  6 15 19 53  0.0000000  0  7G 5G 6G30G10G26G17G24
  24899755.5084    6976425.51345   5436172.90045                  24899759.4694
         8.5004          5.0004
  23242673.1484   -3786296.49246  -2950357.93746                  23242675.1764
        16.5004         17.2504
  23288796.8284    2592227.85346   1988968.60846                  23288798.6564
        16.5004         18.2504
  23892560.0864    3439310.09946   2679982.38846                  23892563.0984
        14.2504         12.2504
  26478623.4144   -3623021.56142   -773459.70441                  26478629.4024
         3.7504          1.0004
  24566518.1094   -4470696.15845  -3483653.88745                  24566522.1054
        11.7504          9.5004
  26296524.3364    6103833.13843   4739131.19442                  26296529.9844
         6.0004          1.7504
 98  6 15 19 53 15.0000000  0  7G 5G 6G30G10G26G17G24
  24910507.2194    7032927.37245   5480200.28645                  24910510.6174
         8.5004          5.2504
  23239397.8444   -3803509.00246  -2963770.27346                  23239399.8134
        16.5004         17.7504
  23295607.5944    2628017.88346   2016856.93946                  23295609.1054
        16.7504         18.0004
  23899696.6174    3476811.72346   2709204.43146                  23899699.5354
        14.5004         12.5004
  26472260.2974   -3656452.64441   -799509.71541                  26472269.2074
         3.5004          1.0004
  24562554.6724   -4491524.48645  -3499883.73145                  24562558.1054
        11.7504          9.5004
  26305078.3834    6148783.23143   4774157.24042                  26305083.5274
         5.7504          1.7504
 98  6 15 19 53 30.0000000  0  7G 5G 6G30G10G26G17G24
  24921277.9694    7089528.64145   5524305.12845                  24921282.7274
         8.2504          4.7504
  23236143.2894   -3820611.43246  -2977096.83146                  23236145.2344
        16.7504         17.2504
  23302453.0084    2663991.17346   2044888.06146                  23302454.8714
        16.5004         18.0004
  23906863.8444    3514475.64646   2738552.94946                  23906866.6094
        14.2504         12.2504
  26465911.0394   -3689819.81541   -825510.02141                  26465917.9804
         3.5004          0.7504
  24558613.8834   -4512233.19746  -3516020.36745                  24558617.4574
        12.2504          9.5004
  26313640.9694    6193780.35643   4809219.88042                  26313645.7974
         5.2504          1.7504
 98  6 15 19 53 45.0000000  0  7G 5G 6G30G10G26G17G24
  24932067.8674    7146228.42645   5568486.74745                  24932072.0984
         8.2504          5.0004
  23232909.6804   -3837605.64646  -2990339.07046                  23232911.5784
        16.7504         17.5004
  23309333.5554    2700148.64746   2073062.71146                  23309335.5704
        16.5004         18.0004
  23914060.9454    3552297.00546   2768024.13246                  23914063.7234
        14.2504         12.2504
  26459573.2344   -3723125.55541   -851462.32941                  26459581.6644
         3.5004          0.7504
  24554695.2974   -4532823.95245  -3532065.07845                  24554699.0704
        11.7504          9.2504
  26322212.7664    6238824.60643   4844319.29642                  26322217.2424
         6.0004          2.0004
 98  6 15 19 54  0.0000000  0  7G 5G 6G30G10G26G17G24
  24942875.7974    7203026.77245   5612745.18445                  24942880.0984
         8.2504          4.7504
  23229695.6884   -3854493.17146  -3003498.16646                  23229697.6804
        17.0004         17.7504
  23316248.6954    2736487.32046   2101378.55546                  23316250.6884
        16.5004         18.0004
  23921288.1174    3590275.86846   2797618.05846                  23921291.0474
        14.2504         12.2504
  26453246.0474   -3756372.85541   -877369.12441                  26453254.8404
         3.5004          1.0004
  24550799.1804   -4553298.63345  -3548019.34545                  24550803.2464
        11.5004          9.2504
  26330793.1884    6283913.91143   4879453.79842                  26330797.8874
         5.5004          1.5004
 98  6 15 19 54 15.0000000  0  7G 5G 6G30G10G26G17G24
  24953703.1804    7259924.16445   5657080.76945                  24953706.5904
         8.2504          4.7504
  23226501.6884   -3871279.05646  -3016578.06846                  23226503.4454
        17.0004         18.0004
  23323197.6484    2773004.58846   2129833.56046                  23323199.4654
        16.5004         17.7504
  23928544.8914    3628411.14946   2827333.85145                  23928547.4574
        14.0004         11.7504
  26446930.9924   -3789559.68541   -903228.90941                  26446938.6724
         3.5004          0.7504
  24546924.5704   -4573658.91045  -3563884.46745                  24546928.1094
        11.5004          9.2504
  26339380.7344    6329044.93543   4914620.76142                  26339383.9924
         5.7504          1.7504
 98  6 15 19 54 30.0000000  0  7G 5G 6G30G10G26G17G24
  24964549.6174    7316923.79145   5701496.02145                  24964552.9574
         8.5004          5.0004
  23223328.1254   -3887956.94746  -3029573.81446                  23223329.7894
        17.0004         18.0004
  23330180.5784    2809700.62646   2158427.87246                  23330182.4884
        16.2504         17.7504
  23935832.5784    3666708.81446   2857176.19146                  23935835.6844
        14.0004         12.0004
  26440628.7894   -3822681.73341   -929038.21541                  26440635.6844
         3.5004          1.0004
  24543072.1254   -4593903.38145  -3579659.34845                  24543075.5474
        11.7504          9.5004
  26347977.3204    6374221.08143   4949822.94342                  26347984.4494
         5.7504          1.7504
 98  6 15 19 54 45.0000000  0  7G 5G 6G30G10G26G17G24
  24975416.1724    7374025.25445   5745990.65545                  24975420.0634
         8.5004          5.0004
  23220175.1644   -3904526.28746  -3042484.97946                  23220177.0864
        17.0004         17.7504
  23337197.2114    2846573.57646   2187160.03246                  23337199.3674
        16.5004         18.2504
  23943151.3834    3705168.08346   2887144.45545                  23943154.3484
        14.0004         11.7504
  26434335.7114   -3855743.39041   -954800.41041                  26434343.0274
         3.5004          1.2504
  24539240.8204   -4614035.14545  -3595346.39545                  24539244.7584
        11.5004          9.5004
  26356582.4454    6419437.57243   4985056.54742                  26356588.8674
         5.5004          1.5004
 98  6 15 19 55  0.0000000  0  7G 5G 6G30G10G26G17G24
  24986302.4064    7431229.73245   5790565.51245                  24986305.7464
         8.5004          4.5004
  23217042.1644   -3920988.67646  -3055312.80846                  23217043.9924
        16.7504         17.7504
  23344247.2504    2883622.38946   2216029.23446                  23344249.2194
        16.5004         17.7504
  23950500.8134    3743790.32346   2917239.70645                  23950503.6604
        14.2504         11.5004
  26428057.2424   -3888743.96942   -980515.04941                  26428063.3954
         3.7504          1.2504
  24535431.3134   -4634056.64045  -3610947.54045                  24535435.3444
        11.7504          9.5004
  26365194.6884    6464695.78343   5020322.63742                  26365197.4774
         5.2504          1.7504
 98  6 15 19 55 15.0000000  0  7G 5G 6G30G10G26G17G24
  24997207.5704    7488540.09745   5835222.91645                  24997211.3794
         8.5004          4.7504
  23213929.5394   -3937344.58646  -3068057.66046                  23213931.4144
        16.7504         17.7504
  23351331.8594    2920850.08046   2245037.81146                  23351334.0394
        16.2504         17.5004
  23957882.4064    3782579.33446   2947464.90645                  23957885.1954
        13.7504         11.5004
  26421789.6024   -3921678.64542  -1006178.25741                  26421794.7344
         3.7504          1.2504
  24531642.0944   -4653968.32645  -3626463.11445                  24531646.3014
        11.5004          9.2504
  26373815.1724    6509998.16643   5055623.21542                  26373822.0434
         5.0004          1.5004
 98  6 15 19 55 30.0000000  0  7G 5G 6G30G10G26G17G24
  25008132.9534    7545951.50045   5879959.04445                  25008137.3484
         8.7504          5.0004
  23210836.6024   -3953598.94446  -3080723.38546                  23210838.3134
        17.0004         17.2504
  23358449.2664    2958254.50446   2274184.10546                  23358451.2934
        16.2504         17.5004
  23965295.0944    3821533.83246   2977819.06045                  23965297.5554
        14.0004         11.7504
  26415534.3364   -3954548.38142  -1031790.94141                  26415540.4774
         3.7504          1.2504
  24527872.7664   -4673775.93845  -3641897.59245                  24527876.9264
        11.5004          9.2504
  26382444.4454    6555344.67643   5090958.07342                  26382449.0164
         5.0004          1.5004
 98  6 15 19 55 45.0000000  0  7G 5G 6G30G10G26G17G24
  25019076.4304    7603460.96345   5924771.57345                  25019080.2974
         8.2504          4.7504
  23207763.5084   -3969750.27546  -3093308.83146                  23207765.2194
        16.7504         17.0004
  23365600.8754    2995834.63646   2303467.31646                  23365602.9844
        16.2504         17.2504
  23972739.4304    3860653.78146   3008302.13645                  23972742.2074
        14.0004         11.5004
  26409291.6804   -3987355.91542  -1057355.14441                  26409297.0824
         4.0004          1.2504
  24524122.6804   -4693482.15945  -3657253.06645                  24524126.5004
        11.7504          9.2504
  26391081.7734    6600732.05943   5126324.83842                  26391083.5204
         5.2504          1.7504
 98  6 15 19 56  0.0000000  0  7G 5G 6G30G10G26G17G24
  25030039.2504    7661072.72645   5969663.81545                  25030042.2384
         8.2504          4.7504
  23204710.3204   -3985792.87746  -3105809.55346                  23204712.1724
        16.5004         16.7504
  23372785.4144    3033591.59246   2332888.31546                  23372787.4184
        16.2504         17.5004
  23980216.5234    3899945.91946   3038919.38845                  23980219.9344
        14.0004         11.2504
  26403059.6724   -4020100.31042  -1082870.20541                  26403066.9884
         4.0004          1.0004
  24520392.5004   -4713083.92945  -3672527.13845                  24520396.0634
        11.7504          9.5004
  26399725.7814    6646162.28542   5161725.01542                  26399730.1294
         4.7504          1.5004
 98  6 15 19 56 15.0000000  0  7G 5G 6G30G10G26G17G24
  25041022.6024    7718787.88145   6014636.63445                  25041025.9654
         8.5004          5.0004
  23201678.1414   -4001725.82746  -3118224.82746                  23201679.9104
        17.0004         17.5004
  23380003.7814    3071524.15146   2362446.14346                  23380005.9024
        16.2504         17.0004
  23987726.7034    3939413.67246   3069673.47945                  23987729.8794
        13.7504         11.5004
  26396841.5394   -4052779.78542  -1108334.55141                  26396846.6254
         4.0004          1.0004
  24516682.1804   -4732581.24745  -3687719.82945                  24516685.4844
        11.7504          9.5004
  26408379.4614    6691633.77542   5197157.30641                  26408385.9534
         4.7504          1.2504
 98  6 15 19 56 30.0000000  0  7G 5G 6G30G10G26G17G24
  25052023.7344    7776600.09045   6059685.06945                  25052026.9344
         8.5004          4.7504
  23198666.7274   -4017550.82746  -3130555.98646                  23198668.5314
        16.5004         17.5004
  23387255.0164    3109629.16346   2392138.35246                  23387256.9384
        16.2504         17.2504
  23995270.4844    3979055.44546   3100563.17845                  23995273.6374
        13.7504         11.5004
  26390634.8674   -4085397.42142  -1133750.82341                  26390640.4574
         4.0004          1.2504
  24512991.4614   -4751978.25845  -3702834.34745                  24512995.9264
        11.7504          9.5004
  26417039.5944    6737144.05143   5232619.79441                  26417046.5944
         5.0004          1.2504
 98  6 15 19 56 45.0000000  0  7G 5G 6G30G10G26G17G24
  25063044.3054    7834512.30445   6104811.44545                  25063047.7974
         8.2504          4.7504
  23195677.1804   -4033261.74146  -3142798.25146                  23195679.1844
        16.5004         16.7504
  23394539.6094    3147909.73246   2421967.35346                  23394541.5904
        16.5004         17.2504
  24002848.0554    4018877.17846   3131593.09845                  24002851.7234
        13.7504         11.5004
  26384439.0704   -4117952.44642  -1159118.26041                  26384444.9184
         4.2504          1.0004
  24509319.7034   -4771272.73045  -3717868.97645                  24509323.0434
        11.7504          9.5004
  26425707.9694    6782697.06842   5268115.61741                  26425715.0044
         4.7504          1.2504
 98  6 15 19 57  0.0000000  0  7G 5G 6G30G10G26G17G24
  25074083.3984    7892524.88745   6150016.01045                  25074087.0204
         8.2504          4.5004
  23192708.5944   -4048861.78646  -3154954.11846                  23192710.2934
        16.5004         17.5004
  23401857.9454    3186366.83746   2451933.91646                  23401859.7854
        16.5004         17.5004
  24010460.0004    4058875.46946   3162760.59245                  24010462.7544
        13.5004         11.5004
  26378256.3444   -4150445.72842  -1184437.55841                  26378261.3244
         4.2504          1.0004
  24505667.4614   -4790465.14445  -3732824.07545                  24505670.8014
        11.7504          9.5004
  26434385.2194    6828293.34843   5303645.18842                  26434390.0944
         5.0004          1.5004
 98  6 15 19 57 15.0000000  0  7G 5G 6G30G10G26G17G24
  25085142.4454    7950638.63645   6195299.42445                  25085145.9734
         8.2504          4.5004
  23189761.2584   -4064350.54446  -3167023.27546                  23189762.8874
        16.5004         16.7504
  23409209.7034    3225001.06746   2482038.50746                  23409211.2854
        16.5004         17.5004
  24018104.3594    4099048.69346   3194064.40845                  24018107.4064
        13.7504         11.5004
  26372084.1564   -4182876.37142  -1209708.14642                  26372091.2854
         4.2504          1.5004
  24502034.6884   -4809555.38145  -3747699.55945                  24502037.7344
        11.7504          9.7504
  26443070.1414    6873934.41743   5339209.63942                  26443077.1764
         5.0004          1.5004
 98  6 15 19 57 30.0000000  0  7G 5G 6G30G10G26G17G24
  25096219.4844    8008848.82845   6240657.96844                  25096223.4104
         8.2504          4.0004
  23186834.7194   -4079728.48946  -3179006.07746                  23186836.7814
        16.5004         17.2504
  23416595.0784    3263809.92046   2512279.16546                  23416596.8954
        16.7504         17.5004
  24025781.8204    4139392.17146   3225500.88945                  24025785.0314
        13.7504         11.2504
  26365924.7734   -4215249.65742  -1234933.92041                  26365931.4774
         4.2504          1.0004
  24498421.1564   -4828546.52946  -3762497.82545                  24498424.3554
        12.0004          9.5004
  26451763.1414    6919616.28943   5374805.96041                  26451770.8094
         5.0004          1.2504
 98  6 15 19 57 45.0000000  0  7G 5G 6G30G10G26G17G24
  25107314.4534    8067154.09045   6286090.61745                  25107316.7974
         8.2504          4.7504
  23183929.4614   -4094995.26146  -3190902.25646                  23183931.3594
        16.5004         17.5004
  23424012.3674    3302789.45346   2542652.81546                  23424014.1724
        16.7504         18.0004
  24033490.3054    4179902.47246   3257067.34945                  24033493.3054
        14.0004         11.0004
  26359774.4064   -4247566.08242  -1260115.50941                  26359780.6524
         4.0004          1.2504
  24494825.9384   -4847437.99446  -3777218.42045                  24494829.1134
        12.0004          9.7504
  26460464.2814    6965335.82943   5410431.39842                  26460468.8524
         5.0004          1.5004
 98  6 15 19 58  0.0000000  0  7G 5G 6G30G10G26G17G24
  25118428.9384    8125561.00845   6331602.46745                  25118433.3914
         8.2504          4.7504
  23181046.2664   -4110147.32046  -3202709.04746                  23181048.1054
        16.7504         17.2504
  23431462.7894    3341940.59546   2573160.18546                  23431464.6414
        17.0004         18.0004
  24041231.2814    4220581.76646   3288765.50045                  24041234.3754
        14.0004         11.2504
  26353636.8834   -4279821.50142  -1285249.48441                  26353644.9264
         4.2504          1.2504
  24491250.7504   -4866224.92145  -3791857.55745                  24491254.5234
        11.7504          9.2504
  26469171.5314    7011096.36643   5446088.98041                  26469180.2894
         5.0004          1.2504
 98  6 15 19 58 15.0000000  0  7G 5G 6G30G10G26G17G24
  25129563.7734    8184072.79145   6377196.02045                  25129566.8444
         8.2504          4.5004
  23178184.5314   -4125186.25846  -3214427.69046                  23178186.4414
        16.5004         17.2504
  23438945.6414    3381262.71246   2603800.78746                  23438947.0944
        17.0004         17.7504
  24049004.4614    4261428.48646   3320594.11745                  24049007.3094
        14.0004         11.2504
  26347510.2734   -4312011.75542  -1310332.65741                  26347514.5274
         4.2504          1.0004
  24487696.1024   -4884906.24745  -3806414.40345                  24487699.9574
        11.7504          9.5004
  26477887.6804    7056901.08843   5481780.94941                  26477895.0784
         5.0004          1.0004
 98  6 15 19 58 30.0000000  0  7G 5G 6G30G10G26G17G24
  25140716.8674    8242684.23445   6422867.25445                  25140720.5704
         8.2504          4.7504
  23175343.3204   -4140115.93546  -3226061.19446                  23175345.3134
        16.5004         17.5004
  23446460.6334    3420755.20546   2634574.15246                  23446462.6374
        17.0004         17.7504
  24056807.2274    4302434.38846   3352546.76245                  24056810.0984
        13.7504         11.5004
  26341397.5004   -4344138.14642  -1335366.11241                  26341405.6024
         4.2504          1.2504
  24484160.2274   -4903485.35546  -3820891.60445                  24484164.2114
        12.0004          9.5004
  26486611.4694    7102746.02743   5517504.19142                  26486616.4144
         5.2504          1.5004
 98  6 15 19 58 45.0000000  0  7G 5G 6G30G10G26G17G24
  25151889.1724    8301394.63345   6468615.57345                  25151893.2384
         8.5004          4.5004
  23172523.4224   -4154936.39646  -3237609.59646                  23172525.4494
        16.5004         17.5004
  23454008.1644    3460417.27346   2665479.65046                  23454009.9924
        17.0004         17.5004
  24064640.1414    4343595.55646   3384620.39745                  24064643.1414
        14.0004         11.2504
  26335295.2734   -4376200.22042  -1360349.50741                  26335301.3444
         4.5004          1.0004
  24480643.9144   -4921960.58845  -3835287.87645                  24480647.3484
        11.7504          9.5004
  26495343.7274    7148629.43243   5553257.48441                  26495348.4964
         5.2504          1.2504
 98  6 15 19 59  0.0000000  0  7G 5G 6G30G10G26G17G24
  25163080.4924    8360205.23345   6514441.96745                  25163084.5004
         8.2504          4.7504
  23169723.2814   -4169650.08146  -3249074.80046                  23169725.1454
        16.5004         17.0004
  23461587.6024    3500247.52146   2696516.20046                  23461589.6414
        17.2504         17.7504
  24072501.3134    4384907.07846   3416811.19345                  24072504.3244
        13.7504         11.2504
  26329206.1804   -4408196.52942  -1385281.53141                  26329213.6134
         4.5004          1.0004
  24477148.3134   -4940333.51945  -3849604.40945                  24477151.8164
        11.7504          9.5004
  26504081.2974    7194546.89643   5589037.27741                  26504084.3094
         5.5004          1.2504
 98  6 15 19 59 15.0000000  0  7G 5G 6G30G10G26G17G24
  25174290.3204    8419112.61145   6560343.78845                  25174294.5514
         8.2504          4.5004
  23166942.8674   -4184260.65846  -3260459.65246                  23166944.9184
        16.5004         17.7504
  23469198.1884    3540241.77446   2727680.54346                  23469200.0634
        17.2504         17.7504
  24080390.5704    4426365.58246   3449116.52645                  24080393.6524
        14.0004         11.2504
  26323130.7504   -4440127.57242  -1410162.81441                  26323133.1764
         4.5004          1.2504
  24473671.3524   -4958604.98546  -3863841.89745                  24473675.1604
        12.2504         10.0004
  26512824.1954    7240495.81043   5624841.64942                  26512827.8164
         5.2504          1.7504
 98  6 15 19 59 30.0000000  0  7G 5G 6G30G10G26G17G24
  25185518.5394    8478121.40145   6606324.63045                  25185522.4064
         7.7504          4.5004
  23164184.3594   -4198757.83746  -3271756.15146                  23164186.3404
        16.5004         17.5004
  23476841.7194    3580408.06946   2758978.94746                  23476843.5354
        17.2504         18.0004
  24088310.1884    4467983.05146   3481545.72145                  24088313.3984
        14.0004         11.0004
  26317068.5164   -4471984.24942  -1434986.09242                  26317071.3754
         4.2504          1.5004
  24470215.6254   -4976767.32746  -3877994.34445                  24470219.3404
        12.5004         10.0004
  26521575.6484    7286482.36143   5660675.24142                  26521580.1374
         5.2504          1.7504
 98  6 15 19 59 45.0000000  0  7G 5G 6G30G10G26G17G24
  25196766.3524    8537225.79145   6652379.94545                  25196770.6524
         7.7504          4.5004
  23161447.2274   -4213142.31546  -3282964.82346                  23161449.2894
        16.2504         17.7504
  23484516.9454    3620741.65846   2790407.71146                  23484518.5744
        17.2504         17.7504
  24096259.5164    4509757.57446   3514097.29645                  24096262.3404
        13.7504         11.5004
  26311020.5704   -4503766.40042  -1459751.30442                  26311028.8364
         4.2504          1.5004
  24466779.8674   -4994819.66346  -3892061.08445                  24466783.2774
        12.0004          9.7504
  26530332.9924    7332502.35043   5696534.96342                  26530341.0234
         5.2504          1.5004
 98  6 15 20  0  0.0000000  0  7G 5G 6G30G10G26G17G24
  25208031.7974    8596425.51445   6698509.58944                  25208035.9454
         7.7504          4.2504
  23158730.8284   -4227415.29746  -3294086.61846                  23158732.9264
        16.5004         17.7504
  23492224.0634    3661242.26746   2821966.61146                  23492225.9024
        17.2504         18.0004
  24104239.2034    4551689.44546   3546771.48045                  24104242.1684
        14.0004         11.0004
  26304987.0704   -4535471.29642  -1484456.36841                  26304996.7424
         4.2504          1.2504
  24463366.1414   -5012760.85946  -3906041.20045                  24463369.6214
        12.2504          9.5004
  26539096.7344    7378555.17943   5732420.26741                  26539104.8244
         5.2504          1.2504
 98  6 15 20  0 15.0000000  0  7G 5G 6G30G10G26G17G24
  25219314.3914    8655717.91345   6744711.41144                  25219318.0234
         7.7504          4.2504
  23156036.3674   -4241575.08946  -3305120.21546                  23156038.5944
        16.5004         17.5004
  23499962.9774    3701910.46546   2853656.10446                  23499964.6764
        17.5004         18.2504
  24112249.0234    4593782.62446   3579571.35545                  24112251.8954
        14.0004         11.5004
  26298967.9694   -4567099.30942  -1509101.41942                  26298977.1374
         4.2504          1.5004
  24459972.6094   -5030590.09446  -3919934.08545                  24459976.3014
        12.2504          9.5004
  26547866.9304    7424642.94243   5768332.73842                  26547867.7974
         5.7504          1.5004
 98  6 15 20  0 30.0000000  0  7G 5G 6G30G10G26G17G24
  25230615.3284    8715102.54445   6790985.12544                  25230620.1334
         7.7504          3.7504
  23153364.6174   -4255616.30046  -3316061.41146                  23153366.7154
        16.5004         17.5004
  23507734.6254    3742749.74646   2885478.91246                  23507736.4774
        17.7504         18.5004
  24120290.8364    4636041.77346   3612500.56045                  24120293.8134
        14.0004         11.7504
  26292964.3834   -4598648.43242  -1533685.13941                  26292967.0084
         4.2504          1.0004
  24456601.9844   -5048303.55546  -3933736.76245                  24456604.8324
        12.2504          9.7504
  26556644.1094    7470767.89243   5804274.24741                  26556650.2734
         5.2504          1.2504
 98  6 15 20  0 45.0000000  0  7G 5G 6G30G10G26G17G24
  23143390.3444    8774599.44945   6837346.30144                  23143394.4574
         7.7504          4.0004
  21052165.8594   -4269548.20046  -3326917.43246                  21052168.0394
        16.5004         17.5004
  21416993.4534    3783771.80346   2917444.13846                  21416995.0124
        17.7504         18.5004
  22029819.9534    4678482.51946   3645571.27245                  22029822.9064
        14.0004         11.2504
  24188424.0394   -4630141.28242  -1558224.82542                  24188432.6334
         4.2504          1.5004
  22354703.8444   -5065913.80646  -3947459.02045                  22354706.8554
        12.5004          9.7504
  24466883.6804    7516946.20743   5840257.27441                  24466890.9614
         5.0004          1.2504
 98  6 15 20  1  0.0000000  0  7G 5G 6G30G10G26G17G24
  23154723.3984    8834156.05345   6883754.02144                  23154725.7544
         7.7504          4.0004
  21049539.1724   -4283353.63446  -3337674.90346                  21049541.2344
        16.2504         17.2504
  21424826.9064    3824937.47346   2949521.27846                  21424828.6994
        17.5004         18.5004
  22037924.3284    4721071.91946   3678757.81445                  22037927.1294
        14.0004         11.7504
  24182447.5164   -4661547.39042  -1582697.00242                  24182453.2344
         4.5004          1.5004
  22351375.8284   -5083403.62246  -3961087.42045                  22351378.9574
        12.2504         10.2504
  24475674.9384    7563139.14343   5876251.77641                  24475680.6454
         5.7504          1.0004
 98  6 15 20  1 15.0000000  0  7G 5G 6G30G10G26G17G24
  23166072.9454    8893799.54545   6930229.41045                  23166075.6884
         7.7504          4.5004
  21046934.7504   -4297037.92946  -3348337.98246                  21046936.7544
        16.0004         17.2504
  21432692.1884    3866269.24746   2981727.84546                  21432693.7234
        17.7504         18.7504
  22046061.1334    4763832.26746   3712077.56645                  22046064.1334
        14.2504         11.5004
  24176484.5474   -4692883.68442  -1607114.84142                  24176491.0514
         4.5004          1.5004
  22348069.1024   -5100778.38546  -3974626.17345                  22348072.1954
        12.5004         10.2504
  24484473.2114    7609371.71943   5912277.12841                  24484475.9884
         5.5004          1.2504
 98  6 15 20  1 30.0000000  0  7G 5G 6G30G10G26G17G24
  23177439.2034    8953529.68245   6976772.33744                  23177443.8204
         7.7504          3.7504
  21044354.6094   -4310598.35346  -3358904.53846                  21044356.5204
        16.5004         17.2504
  21440589.5234    3907769.37746   3014065.60046                  21440591.0474
        17.7504         18.5004
  22054231.0784    4806764.73046   3745531.43745                  22054233.7974
        14.2504         11.2504
  24170534.8754   -4724152.80643  -1631480.19642                  24170543.3634
         5.0004          1.5004
  22344785.5474   -5118036.35446  -3988073.92245                  22344789.0744
        12.5004         10.0004
  24493278.6724    7655647.99343   5948336.49041                  24493283.6994
         5.2504          1.2504
 98  6 15 20  1 45.0000000  0  7G 5G 6G30G10G26G17G24
  23188822.5084    9013345.90745   7023382.33544                  23188827.1024
         7.7504          4.0004
  21041797.0314   -4324037.12846  -3369376.29746                  21041799.2934
        16.2504         17.2504
  21448518.4844    3949436.87546   3046533.76646                  21448520.1254
        17.7504         18.5004
  22062432.7584    4849865.28746   3779116.28545                  22062435.7814
        14.2504         11.0004
  24164597.3914   -4755355.46643  -1655793.91042                  24164602.8984
         5.0004          1.5004
  22341522.9304   -5135179.12046  -4001431.89245                  22341526.6804
        12.5004         10.2504
  24502092.5634    7701967.03443   5984429.23042                  24502096.6884
         5.5004          1.7504
 98  6 15 20  2  0.0000000  0  7G 5G 6G30G10G26G17G24
  23200220.4694    9073243.62945   7070055.85444                  23200224.9924
         7.7504          3.7504
  21039260.5004   -4337366.27146  -3379762.63946                  21039262.4694
        16.2504         17.5004
  21456477.8444    3991262.04146   3079124.79246                  21456479.3914
        18.0004         18.5004
  22070664.6414    4893122.29646   3812823.03645                  22070667.2544
        14.5004         11.2504
  24158670.1024   -4786500.25743  -1680062.44942                  24158674.4964
         5.0004          1.7504
  22338280.5474   -5152218.74346  -4014709.50245                  22338283.7114
        13.0004         11.0004
  24510914.6804    7748321.11343   6020549.30942                  24510920.5274
         5.0004          1.5004
 98  6 15 20  2 15.0000000  0  7G 5G 6G30G10G26G17G24
  23211633.9924    9133225.00145   7116794.55944                  23211637.6024
         7.5004          3.7504
  21036744.6884   -4350586.28046  -3390063.93246                  21036746.7154
        16.2504         17.5004
  21464466.9064    4033246.29546   3111839.79146                  21464468.6294
        17.5004         18.5004
  22078925.3834    4936534.31846   3846650.59445                  22078928.1024
        14.0004         11.2504
  24152753.9614   -4817590.20743  -1704288.34642                  24152757.9454
         5.0004          1.5004
  22335056.6804   -5169160.98046  -4027911.22145                  22335059.2814
        13.0004         11.0004
  24519742.1024    7794711.82343   6056697.83541                  24519747.0474
         5.0004          1.0004
 98  6 15 20  2 30.0000000  0  7G 5G 6G30G10G26G17G24
  23223065.5864    9193295.81045   7163602.93144                  23223069.5354
         7.5004          4.0004
  21034250.5164   -4363693.98046  -3400277.72046                  21034252.5314
        16.2504         17.7504
  21472487.0234    4075392.99946   3144681.36646                  21472488.6644
        17.5004         18.0004
  22087216.2894    4980101.08846   3880598.71345                  22087219.1844
        14.2504         11.5004
  24146848.4454   -4848623.32943  -1728469.80342                  24146853.7424
         5.2504          1.5004
  22331851.6954   -5186002.76446  -4041034.66545                  22331855.1884
        12.7504         10.7504
  24528577.3754    7841141.34343   6092876.65341                  24528578.0554
         5.0004          1.2504
 98  6 15 20  2 45.0000000  0  7G 5G 6G30G10G26G17G24
  23234514.6254    9253461.13945   7210484.95944                  23234518.9844
         7.5004          3.7504
  21031777.7974   -4376688.82146  -3410403.56346                  21031779.9884
        16.2504         17.7504
  21480538.9064    4117706.30146   3177652.75946                  21480540.5704
        17.5004         17.5004
  22095535.2664    5023819.19746   3914664.77745                  22095538.3484
        14.2504         11.2504
  24140954.7114   -4879595.44943  -1752603.86542                  24140960.0784
         5.0004          1.5004
  22328666.5164   -5202742.30446  -4054078.44645                  22328669.5394
        13.2504         10.7504
  24537420.1334    7887611.56942   6129087.18441                  24537426.7304
         4.2504          1.2504
 98  6 15 20  3  0.0000000  0  7G 5G 6G30G10G26G17G24
  23245981.8284    9313721.00745   7257440.66244                  23245986.9734
         7.5004          3.5004
  21029325.6804   -4389574.77846  -3420444.55746                  21029327.7194
        16.7504         17.5004
  21488622.7034    4160184.55546   3210752.68646                  21488624.1684
        17.5004         18.2504
  22103882.8134    5067685.79446   3948846.53545                  22103885.7424
        14.2504         11.2504
  24135071.6254   -4910506.88743  -1776690.58342                  24135078.0354
         5.0004          1.7504
  22325499.9454   -5219383.48446  -4067045.57445                  22325503.1804
        13.0004         11.2504
  24546269.8524    7934121.36442   6165328.56641                  24546275.3714
         4.2504          1.0004
 98  6 15 20  3 15.0000000  0  7G 5G 6G30G10G26G17G24
  23257467.5554    9374079.09344   7304472.90343                  23257471.6334
         7.2504          3.2504
  21026894.4224   -4402351.04046  -3430400.07746                  21026896.5784
        16.7504         17.5004
  21496738.6644    4202834.26746   3243986.21746                  21496740.1174
        17.5004         17.7504
  22112258.9844    5111703.66446   3983146.17145                  22112262.0904
        14.2504         11.2504
  24129201.9534   -4941351.13143  -1800724.96042                  24129209.2464
         5.2504          1.7504
  22322352.2344   -5235922.57646  -4079933.16045                  22322355.4694
        13.2504         11.2504
  24555128.8444    7980672.41542   6201602.01641                  24555131.0594
         4.5004          1.0004
 98  6 15 20  3 30.0000000  0  7G 5G 6G30G10G26G17G24
  23268970.4384    9434528.67844   7351576.43644                  23268973.2854
         7.2504          4.0004
  21024482.2274   -4415026.96446  -3440277.41146                  21024483.9024
        17.0004         18.5004
  21504885.7664    4245649.36046   3277348.61646                  21504887.3594
        17.5004         17.7504
  22120662.1334    5155861.76446   4017555.07345                  22120665.1094
        14.5004         11.5004
  24123346.5864   -4972130.66343  -1824708.89442                  24123350.9104
         5.5004          2.0004
  22319222.9384   -5252368.25246  -4092747.95745                  22319225.7854
        13.5004         11.2504
  24563994.0164    8027257.80742   6237902.38841                  24563995.8914
         4.7504          1.2504
 98  6 15 20  3 45.0000000  0  7G 5G 6G30G10G26G17G24
  23280492.3134    9495073.08245   7398753.85143                  23280495.5124
         7.5004          3.2504
  21022089.8754   -4427600.45946  -3450074.92846                  21022091.7154
        17.0004         18.7504
  21513064.6804    4288629.74046   3310839.81246                  21513066.1914
        17.2504         17.7504
  22129092.9614    5200164.11746   4052076.38845                  22129095.5744
        14.5004         11.2504
  24117502.0554   -5002836.10243  -1848635.15742                  24117509.0784
         5.2504          2.2504
  22316111.1884   -5268720.43846  -4105489.89845                  22316114.1524
        13.2504         10.7504
  24572865.6254    8073880.53442   6274231.68941                  24572871.1094
         4.5004          1.0004
 98  6 15 20  4  0.0000000  0  7G 5G 6G30G10G26G17G24
  23292031.4224    9555711.96745   7446004.88244                  23292035.6054
         7.5004          3.7504
  21019716.5084   -4440070.58546  -3459791.90546                  21019718.4774
        17.0004         18.5004
  21521274.8914    4331774.26546   3344458.92246                  21521276.4384
        17.2504         17.7504
  22137550.6724    5244612.18846   4086711.24045                  22137553.5664
        14.5004         11.2504
  24111673.9924   -5033464.32543  -1872501.12842                  24111678.0704
         5.2504          1.7504
  22313016.9844   -5284978.58346  -4118158.56145                  22313020.3014
        13.7504         11.0004
  24581744.2504    8120540.31642   6310589.98641                  24581748.3284
         4.2504          1.0004
 98  6 15 20  4 15.0000000  0  7G 5G 6G30G10G26G17G24
  23303587.7344    9616444.30445   7493328.74944                  23303591.3554
         7.5004          4.0004
  21017364.4144   -4452432.46546  -3469424.53346                  21017366.0554
        17.2504         18.5004
  21529516.9534    4375086.44246   3378208.65546                  21529518.8874
        17.2504         17.5004
  22146037.2034    5289208.07446   4121461.27745                  22146040.2624
        14.2504         11.2504
  24105861.3364   -5064014.35343  -1896306.27642                  24105868.5474
         5.2504          1.5004
  22309941.9224   -5301138.51746  -4130750.69145                  22309944.8634
        13.2504         11.0004
  24590631.6884    8167238.59842   6346978.13941                  24590643.9964
         4.5004          1.2504
 98  6 15 20  4 30.0000000  0  7G 5G 6G30G10G26G17G24
  23315162.3054    9677263.86345   7540720.58044                  23315166.1724
         7.5004          3.5004
  21015032.2814   -4464688.14846  -3478974.40746                  21015034.0634
        17.0004         18.5004
  21537789.6174    4418560.11046   3412084.23846                  21537791.3984
        17.2504         17.5004
  22154551.0164    5333949.08046   4156324.39145                  22154553.6994
        14.2504         11.5004
  24100061.3364   -5094490.63943  -1920053.92942                  24100064.5124
         5.2504          1.7504
  22306886.1174   -5317198.50446  -4143264.95445                  22306889.3754
        13.2504         10.7504
  24599524.4224    8213970.58842   6383392.70341                  24599531.3984
         4.5004          1.0004
 98  6 15 20  4 45.0000000  0  7G 5G 6G30G10G26G17G24
  23326751.4454    9738165.73445   7588176.52944                  23326757.1294
         7.5004          4.0004
  21012718.9144   -4476843.43146  -3488446.05146                  21012720.7304
        17.0004         18.5004
  21546092.3914    4462191.22146   3446082.49446                  21546094.0784
        17.2504         17.5004
  22163092.7274    5378835.07646   4191300.48845                  22163095.0824
        14.5004         11.5004
  24094275.0944   -5124893.33443  -1943744.27642                  24094277.5904
         5.2504          2.0004
  22303848.6564   -5333160.45746  -4155702.81345                  22303851.8204
        13.2504         11.2504
  24608422.4144    8260732.53342   6419830.45041                  24608427.7234
         4.5004          1.0004
 98  6 15 20  5  0.0000000  0  7G 5G 6G30G10G26G17G24
  23338356.1024    9799151.26345   7635697.67244                  23338360.3794
         7.5004          3.5004
  21010425.5474   -4488895.79046  -3497837.49046                  21010427.5394
        17.2504         18.5004
  21554425.7034    4505981.40546   3480204.69846                  21554427.7774
        17.0004         17.2504
  22171663.2504    5423872.90346   4226394.89145                  22171665.7464
        14.5004         11.2504
  24088504.6884   -5155219.55643  -1967374.96942                  24088508.2384
         5.5004          2.0004
  22300830.0234   -5349021.93846  -4168062.39245                  22300832.9774
        13.7504         11.5004
  24617328.2814    8307528.52742   6456294.88241                  24617335.5394
         4.5004          1.2504
 98  6 15 20  5 15.0000000  0  7G 5G 6G30G10G26G17G24
  23349977.6484    9860219.29145   7683283.10644                  23349982.1024
         7.7504          3.5004
  21008152.4384   -4500841.17946  -3507145.57646                  21008154.3244
        17.2504         18.7504
  21562788.6414    4549931.37746   3514451.42046                  21562790.2814
        17.0004         17.2504
  22180263.0784    5469065.15046   4261609.62645                  22180266.1484
        14.7504         11.0004
  24082748.0554   -5185469.31243  -1990946.12242                  24082751.6524
         5.2504          1.7504
  22297831.2194   -5364781.35546  -4180342.44245                  22297834.3714
        13.2504         11.2504
  24626238.7034    8354358.97042   6492786.04941                  24626247.7894
         4.5004          1.0004
 98  6 15 20  5 30.0000000  0  7G 5G 6G30G10G26G17G24
  23361613.5234    9921369.29945   7730932.45144                  23361616.6884
         7.7504          4.0004
  21005900.1564   -4512678.46446  -3516369.42346                  21005902.1844
        17.0004         18.7504
  21571182.6174    4594041.52546   3548822.95846                  21571184.3754
        17.0004         17.2504
  22188891.6024    5514408.22646   4296941.88745                  22188893.9344
        14.0004         11.0004
  24077005.9384   -5215643.17143  -2014458.11342                  24077008.5984
         5.2504          1.5004
  22294851.9694   -5380438.36546  -4192542.68445                  22294854.6054
        13.5004         11.5004
  24635158.2734    8401224.09643   6529304.37441                  24635165.2734
         5.0004          1.0004
 98  6 15 20  5 45.0000000  0  7G 5G 6G30G10G26G17G24
  23373265.5234    9982599.25745   7778644.03144                  23373269.8714
         7.7504          4.0004
  21003668.1644   -4524406.74146  -3525508.33446                  21003670.2154
        17.0004         18.2504
  21579606.0864    4638306.07346   3583314.80146                  21579607.9144
        16.7504         17.2504
  22197547.9384    5559898.08246   4332388.52645                  22197550.6684
        14.0004         11.0004
  24071278.2194   -5245746.85843  -2037915.44142                  24071283.9024
         5.0004          1.7504
  22291891.1954   -5395995.13446  -4204664.83545                  22291893.6094
        13.5004         11.5004
  24644082.8674    8448123.36042   6565849.15041                  24644086.6884
         4.7504          1.2504
 98  6 15 20  6  0.0000000  0  7G 5G 6G30G10G26G17G24
  23384932.8134   10043910.51845   7826418.99044                  23384936.6684
         7.5004          4.0004
  21001457.4844   -4536022.81246  -3534559.81346                  21001459.3244
        17.2504         18.5004
  21588058.7894    4682725.25046   3617927.14146                  21588060.5704
        17.0004         17.2504
  22206232.6644    5605538.32446   4367952.34545                  22206235.5354
        14.0004         11.0004
  24065561.6954   -5275783.06043  -2061320.16442                  24065569.7974
         5.0004          2.0004
  22288950.9224   -5411448.61346  -4216706.48245                  22288953.6174
        13.7504         11.7504
  24653012.9384    8495054.96042   6602419.24941                  24653018.2464
         4.7504          1.2504
 98  6 15 20  6 15.0000000  0  7G 5G 6G30G10G26G17G24
  23396615.3914   10105302.34045   7874256.74844                  23396620.7464
         7.5004          3.7504
  20999268.8594   -4547524.80646  -3543522.39646                  20999270.8754
        17.0004         18.7504
  21596540.7424    4727298.37446   3652659.43746                  21596542.7704
        17.0004         17.0004
  22214946.5084    5651328.29646   4403632.83045                  22214948.9574
        14.2504         10.7504
  24059858.5314   -5305755.82743  -2084675.52642                  24059863.7234
         5.2504          2.2504
  22286029.8674   -5426796.98646  -4228666.22845                  22286032.9964
        13.2504         11.5004
  24661949.5704    8542017.08243   6639013.04942                  24661957.2974
         5.0004          1.5004
 98  6 15 20  6 30.0000000  0  7G 5G 6G30G10G26G17G24
  23408313.6094   10166779.37544   7922160.88244                  23408318.8714
         7.2504          3.5004
  20997102.2034   -4558910.05046  -3552394.01046                  20997104.2544
        17.0004         18.2504
  21605052.6174    4772028.18346   3687513.82246                  21605054.3054
        16.7504         17.2504
  22223688.9454    5697269.31646   4439431.02945                  22223691.6294
        14.0004         10.7504
  24054166.6954   -5335662.67843  -2107979.43342                  24054170.9384
         5.2504          1.5004
  22283129.7974   -5442037.89046  -4240542.24945                  22283133.1374
        13.2504         11.7504
  24670892.0394    8589012.26842   6675632.70241                  24670900.3874
         4.7504          1.2504
 98  6 15 20  6 45.0000000  0  7G 5G 6G30G10G26G17G24
  23420029.2274   10228341.63145   7970131.43544                  23420032.9414
         7.5004          3.5004
  20994957.5084   -4570181.68446  -3561177.09446                  20994959.5824
        17.0004         18.7504
  21613594.1484    4816914.04846   3722489.81146                  21613596.1884
        17.0004         17.2504
  22232459.6884    5743361.37246   4475346.90645                  22232462.4534
        14.0004         11.2504
  24048488.5084   -5365502.55643  -2131231.24342                  24048494.0164
         5.2504          2.0004
  22280249.2424   -5457173.92046  -4252336.53445                  22280252.4884
        13.2504         11.7504
  24679842.1024    8636040.23442   6712277.79241                  24679848.8754
         4.5004          1.0004
 98  6 15 20  7  0.0000000  0  7G 5G 6G30G10G26G17G24
  23431759.8284   10289985.59445   8018165.62344                  23431764.6564
         7.5004          3.5004
  20992834.2584   -4581338.58846  -3569870.77446                  20992836.3204
        17.0004         18.2504
  21622165.1804    4861954.84746   3757586.52746                  21622166.9614
        17.2504         17.2504
  22241258.9064    5789600.89946   4511377.70445                  22241261.9654
        13.5004         10.5004
  24042822.1254   -5395275.49643  -2154430.82342                  24042829.8984
         5.2504          1.7504
  22277388.6484   -5472207.35246  -4264050.88945                  22277391.9774
        13.2504         11.5004
  24688796.7894    8683100.27542   6748947.93841                  24688802.2154
         4.7504          1.2504
 98  6 15 20  7 15.0000000  0  7G 5G 6G30G10G26G17G24
  23443505.3134   10351710.81944   8066263.16843                  23443508.8404
         7.2504          3.2504
  20990734.0944   -4592374.60546  -3578470.26846                  20990736.1564
        17.2504         18.5004
  21630765.9064    4907153.14946   3792805.97146                  21630767.7344
        17.0004         17.5004
  22250085.4844    5835985.38746   4547521.43545                  22250088.2274
        14.0004         10.2504
  24037169.5704   -5424979.34143  -2177576.56142                  24037174.1174
         5.2504          1.7504
  22274547.7664   -5487135.08546  -4275682.86446                  22274550.9304
        13.5004         12.0004
  24697758.7504    8730195.32643   6785645.28542                  24697767.5664
         5.0004          1.5004
 98  6 15 20  7 30.0000000  0  7G 5G 6G30G10G26G17G24
  23455267.1484   10413516.94345   8114423.74544                  23455271.4614
         7.5004          3.7504
  20988657.3754   -4603287.45846  -3586973.78146                  20988659.4024
        17.0004         18.7504
  21639396.8444    4952508.83946   3828148.05346                  21639398.4844
        17.2504         17.2504
  22258939.5944    5882514.91546   4583778.21045                  22258942.2544
        13.5004         10.5004
  24031531.9064   -5454609.98043  -2200665.28242                  24031535.2234
         5.2504          2.0004
  22271727.1564   -5501956.74246  -4287232.19046                  22271730.5554
        13.5004         12.0004
  24706727.5704    8777326.15042   6822370.51641                  24706736.6684
         4.5004          1.0004
 98  6 15 20  7 45.0000000  0  7G 5G 6G30G10G26G17G24
  23467042.2664   10475400.08544   8162644.31343                  23467045.5354
         7.2504          3.2504
  20986603.6644   -4614080.80246  -3595384.16546                  20986605.7154
        17.2504         18.5004
  21648056.5394    4998016.18446   3863608.30846                  21648058.2734
        17.0004         17.2504
  22267821.5634    5929188.44146   4620147.19045                  22267824.3754
        13.2504         10.5004
  24025906.9694   -5484170.15743  -2223699.04542                  24025911.4924
         5.5004          1.7504
  22268926.7894   -5516673.97446  -4298700.13745                  22268930.1884
        13.7504         11.7504
  24715703.3834    8824488.69342   6859120.60341                  24715713.5354
         4.7504          1.2504
 98  6 15 20  8  0.0000000  0  7G 5G 6G30G10G26G17G24
  23478832.3364   10537354.18844   8210920.18843                  23478836.5204
         7.2504          3.2504
  20984571.7034   -4624757.73046  -3603703.84646                  20984573.7074
        17.0004         18.7504
  21656744.1884    5043670.39246   3899182.99846                  21656745.7234
        17.2504         17.5004
  22276730.6804    5976006.65346   4656628.89645                  22276733.9844
        13.5004         10.2504
  24020294.0084   -5513660.70143  -2246678.66442                  24020296.7974
         5.2504          2.0004
  22266145.3444   -5531289.96146  -4310089.20546                  22266148.0634
        13.5004         12.2504
  24724682.8834    8871678.38442   6895891.73141                  24724689.0004
         4.5004          1.0004
 98  6 15 20  8 15.0000000  0  7G 5G 6G30G10G26G17G24
  23490635.5164   10599380.33245   8259252.19244                  23490639.7344
         7.5004          3.5004
  20982562.8674   -4635314.34646  -3611929.77146                  20982565.0594
        17.0004         18.7504
  21665460.5474    5089475.10746   3934874.97546                  21665462.3164
        17.0004         17.2504
  22285667.7734    6022972.11146   4693225.34645                  22285670.8554
        13.7504         10.5004
  24014696.5944   -5543076.24243  -2269599.74442                  24014699.1134
         5.7504          2.2504
  22263384.0704   -5545801.61846  -4321396.97545                  22263387.0004
        13.2504         11.2504
  24733668.0554    8918897.34542   6932685.63041                  24733669.8714
         4.5004          1.2504
 98  6 15 20  8 30.0000000  0  7G 5G 6G30G10G26G17G24
  23502451.1884   10661473.91944   8307636.77644                  23502455.5594
         7.0004          3.7504
  20980576.8914   -4645752.50846  -3620063.40046                  20980578.9184
        17.0004         19.0004
  21674205.8754    5135431.31346   3970684.98946                  21674207.5864
        17.0004         17.2504
  22294632.2734    6070079.56346   4729932.44345                  22294635.4734
        13.7504         10.2504
  24009114.3834   -5572415.36043  -2292461.31242                  24009118.7424
         5.7504          2.0004
  22260642.0394   -5560210.65546  -4332624.77446                  22260644.9104
        13.7504         12.0004
  24742659.7114    8966148.19242   6969504.54641                  24742664.2934
         4.7504          1.0004
 98  6 15 20  8 45.0000000  0  6G 5G 6G30G10G26G17
  23514281.1644   10723636.64644   8356075.20944                  23514286.2154
         7.2504          3.7504
  20978613.1484   -4656070.45346  -3628103.34846                  20978615.1054
        17.2504         18.7504
  21682980.4534    5181542.64146   4006615.88546                  21682982.4694
        17.0004         17.2504
  22303624.1094    6117331.37046   4766752.01545                  22303626.9454
        13.7504         10.2504
  24003545.6334   -5601672.46243  -2315258.97542                  24003549.0434
         5.7504          1.7504
  22257919.4144   -5574518.09846  -4343773.41346                  22257922.8954
        13.7504         12.2504
 98  6 15 20  9  0.0000000  0  7G 5G 6G30G10G26G17G24
  23526122.1094   10785865.32244   8404565.01843                  23526125.4024
         7.0004          3.2504
  20976672.7584   -4666268.35146  -3636049.75246                  20976674.7734
        17.0004         18.7504
  21691784.0634    5227805.57846   4042664.91246                  21691785.9964
        16.7504         17.0004
  22312643.4454    6164728.34146   4803684.71545                  22312646.5634
        14.2504         10.7504
  23997994.3204   -5630845.52443  -2337991.10842                  23997998.5274
         5.5004          2.2504
  22255215.4304   -5588726.12646  -4354844.58446                  22255218.5124
        13.7504         12.0004
  24760662.1094      15772.88053
         5.0004
 98  6 15 20  9 15.0000000  0  8G 5G 6G30G10G26G17G24G13
  23537976.5944   10848158.68644   8453105.27044                  23537981.4104
         6.7504          3.7504
  20974754.6644   -4676347.38846  -3643903.53546                  20974756.7504
        17.0004         18.5004
  21700615.8284    5274217.15046   4078829.75946                  21700618.1134
        16.5004         16.7504
  22321689.7894    6212266.80346   4840727.66245                  22321692.6954
        14.0004         10.2504
  23992458.6334   -5659937.64143  -2360660.23242                  23992462.5824
         5.5004          1.7504
  22252530.7344   -5602837.52246  -4365840.45246                  22252533.7114
        13.7504         12.2504
  24769672.7734      63125.87642
         4.5004
  25070857.3054       7400.05052
         4.2504
 98  6 15 20  9 30.0000000  0  8G 5G 6G30G10G26G17G24G13
  23549843.3204   10910519.44344   8501698.00643                  23549847.8794
         6.7504          3.0004
  20972859.1804   -4686308.67046  -3651665.56546                  20972861.2664
        17.0004         18.5004
  21709476.3134    5320779.15446   4115111.82446                  21709478.4224
        16.5004         17.2504
  22330762.9534    6259948.47046   4877882.19645                  22330765.6954
        13.7504         10.5004
  23986938.7114   -5688947.22043  -2383265.01042                  23986943.1644
         5.2504          1.7504
  22249863.5864   -5616851.41446  -4376760.34246                  22249866.3054
        14.0004         12.5004
  24778689.4774     110511.64442
         4.2504
  25073523.7974      21407.37942
         4.2504
 98  6 15 20  9 45.0000000  0  8G 5G 6G30G10G26G17G24G13
  23561723.1024   10972947.55044   8550343.25143                  23561727.5084
         6.7504          3.2504
  20970984.9614   -4696156.87046  -3659339.48046                  20970986.7074
        17.2504         18.0004
  21718364.4924    5367487.22146   4151507.71246                  21718366.4264
        16.7504         16.7504
  22339863.3834    6307770.41746   4915146.03545                  22339866.6414
        13.7504         10.5004
  23981432.3754   -5717877.96943  -2405808.40342                  23981437.4614
         5.2504          2.0004
  22247215.0704   -5630769.82246  -4387605.84046                  22247217.5084
        14.0004         12.7504
  24787712.9304     157924.40542
         4.5004
  25076219.4144      35581.56742
         4.2504
 98  6 15 20 10  0.0000000  0  8G 5G 6G30G10G26G17G24G13
  23573615.7504   11035442.48744   8599040.53843                  23573621.0944
         7.0004          3.0004
  20969132.0704   -4705894.56746  -3666927.29346                  20969134.0984
        17.2504         18.7504
  21727280.8364    5414341.20546   4188017.29746                  21727282.8054
        16.5004         16.7504
  22348989.6564    6355730.29746   4952517.36345                  22348992.4224
        13.2504         10.2504
  23975941.4304   -5746731.12943  -2428291.23542                  23975944.9104
         5.2504          2.0004
  22244584.4534   -5644593.94646  -4398377.85946                  22244587.4304
        14.0004         12.7504
  24796740.6644     205365.97642
         4.7504
  25078948.2194      49920.37842
         4.2504
 98  6 15 20 10 15.0000000  0  8G 5G 6G30G10G26G17G24G13
  21786772.5554   11098037.33744   8647815.65743                  21786778.5554
         6.5004          3.0004
  19168545.5314   -4715519.60446  -3674427.31146                  19168547.3014
        17.0004         18.0004
  19937474.8524    5461366.83646   4224660.63146                  19937476.5394
        16.5004         16.5004
  20559392.2584    6403850.78246   4990013.82445                  20559395.6334
        13.5004         10.2504
  22171710.1414   -5775513.15343  -2450718.73742                  22171714.5594
         5.2504          2.0004
  20443216.7274   -5658324.21746  -4409076.74346                  20443220.3134
        13.7504         12.5004
  23007023.8984     252862.30842      9865.19951                  23007029.0664
         4.5004          1.2504
  23282955.2194      64433.42642
         4.2504
 98  6 15 20 10 30.0000000  0  8G 5G 6G30G10G26G17G24G13
  21798692.7814   11160679.59644   8696627.76943                  21798699.6994
         6.5004          3.0004
  19166735.7504   -4725030.20646  -3681838.16346                  19166737.6134
        17.0004         18.5004
  19946448.8524    5508526.44446   4261408.36546                  19946450.5044
        16.5004         16.5004
  20568571.4454    6452088.71346   5027601.81745                  20568574.8094
        13.2504         10.0004
  22166251.0234   -5804205.40643  -2473076.26442                  22166253.6954
         5.2504          1.7504
  20440623.4844   -5671951.13346  -4419695.10946                  20440626.5204
        13.7504         13.2504
  23016064.8134     300374.10742     46887.37541                  23016070.2624
         4.2504          0.7504
  23285747.2424      79105.23942      5349.81351                  23285752.1174
         4.2504          1.0004
 98  6 15 20 10 45.0000000  0  8G 5G 6G30G10G26G17G24G13
  21810627.2894   11223396.45744   8745498.01843                  21810632.0474
         6.2504          3.2504
  19164946.8524   -4734432.78046  -3689164.83046                  19164948.5394
        17.0004         18.0004
  19955452.1484    5555837.65046   4298274.23146                  19955453.9654
        17.0004         16.7504
  20577777.3444    6500464.73046   5065297.40645                  20577780.3324
        13.5004          9.7504
  22160803.6804   -5832821.41043  -2495374.31242                  22160811.5594
         5.0004          1.5004
  20438048.7584   -5685481.79546  -4430238.45746                  20438051.8634
        13.7504         12.7504
  23025112.0314     347918.43042     83934.86241                  23025117.7854
         4.2504          1.2504
  23288570.4304      93940.52442     16909.83241                  23288568.8244
         4.5004          1.2504
 98  6 15 20 11  0.0000000  0  8G 5G 6G30G10G26G17G24G13
  21822577.0084   11286191.64344   8794429.24643                  21822581.6254
         6.5004          3.2504
  19163178.3134   -4743725.44546  -3696405.86246                  19163180.0704
        17.2504         18.5004
  19964483.5944    5603298.79646   4335256.93046                  19964485.3524
        16.5004         17.0004
  20587009.3754    6548980.51846   5103101.90745                  20587012.1174
        13.2504          9.7504
  22155374.5474   -5861359.98143  -2517612.15242                  22155378.6604
         5.2504          1.7504
  20435493.2034   -5698912.31146  -4440703.77046                  20435496.2734
        14.0004         12.7504
  23034166.6724     395496.49242
         4.5004
  23291424.1884     108939.91142     28597.70441                  23291427.8674
         4.2504          0.7504
 98  6 15 20 11 15.0000000  0  7G 5G 6G30G10G26G17G13
  21834541.1414   11349061.96544   8843419.07544                  21834546.2854
         6.5004          3.5004
  19161430.1954   -4752911.92346  -3703564.14546                  19161431.7544
        17.2504         18.7504
  19973542.8834    5650905.70546   4372353.20746                  19973544.3014
        16.7504         16.5004
  20596266.5394    6597628.53646   5141009.43345                  20596269.1054
        13.2504          9.7504
  22149956.5864   -5889827.52043  -2539794.55842                  22149961.8244
         5.2504          2.0004
  20432956.5944   -5712242.90946  -4451091.23046                  20432959.9224
        13.7504         12.7504
  23294308.8204     124100.94742     40411.53241                  23294313.3094
         4.5004          0.7504
 98  6 15 20 11 30.0000000  0  8G 5G 6G30G10G26G17G24G13
  21846519.5164   11412008.07044   8892467.90143                  21846525.4104
         6.7504          3.2504
  19159702.2034   -4761992.80346  -3710640.14946                  19159703.7624
        17.5004         18.5004
  19982630.4534    5698660.95446   4409565.07746                  19982632.3874
        16.7504         16.7504
  20605549.2974    6646407.74546   5179019.19745                  20605552.4494
        13.2504          9.7504
  22144553.3134   -5918224.52043  -2561922.05942                  22144560.0864
         5.2504          2.2504
  20430438.4144   -5725473.17246  -4461400.50746                  20430441.6374
        14.0004         12.5004
  23052292.0554      31758.32352
         4.5004
  23297226.1094     139424.80842     52352.15241                  23297231.5124
         4.5004          0.7504
 98  6 15 20 11 45.0000000  0  8G 5G 6G30G10G26G17G24G13
  21858511.5234   11475030.73844   8941576.45843                  21858515.9654
         6.7504          3.2504
  19157994.3984   -4770967.42246  -3717633.34746                  19157995.9694
        17.0004         18.5004
  19991745.6564    5746562.08146   4446890.62246                  19991747.3554
        16.5004         16.7504
  20614856.7734    6695318.94046   5217131.79745                  20614859.3874
        13.2504          9.5004
  22139162.4064   -5946549.91543  -2583993.67542                  22139168.9804
         5.5004          1.7504
  20427940.2034   -5738602.95446  -4471631.49546                  20427943.1564
        13.7504         12.7504
  23061362.5394      79423.78142
         4.2504
  23300171.7424     154910.73442     64419.19241                  23300174.6604
         4.5004          1.0004
 98  6 15 20 12  0.0000000  0  8G 5G 6G30G10G26G17G24G13
  21870519.6024   11538128.61444   8990743.55743                  21870524.0664
         6.7504          3.0004
  19156306.9694   -4779834.96346  -3724543.11446                  19156308.6684
        17.2504         18.2504
  20000888.4304    5794607.49546   4484328.58946                  20000890.1764
        16.7504         16.5004
  20624189.0474    6744362.04946   5255347.18945                  20624191.9184
        13.0004          9.7504
  22133785.4614   -5974804.04743  -2606009.82742                  22133792.7664
         5.2504          1.5004
  20425460.3594   -5751634.03846  -4481785.56546                  20425463.5704
        14.0004         12.7504
  23070439.7034     127120.57442
         4.5004
  23303149.4924     170555.64242     76609.95341                  23303151.3324
         4.5004          0.7504
 98  6 15 20 12 15.0000000  0  8G 5G 6G30G10G26G17G24G13
  21882540.5944   11601302.02844   9039969.53843                  21882544.8484
         6.7504          3.0004
  19154640.3984   -4788592.72246  -3731367.33146                  19154642.5434
        17.2504         18.5004
  20010059.2584    5842798.59546   4521880.09046                  20010061.0394
        17.0004         16.5004
  20633547.7894    6793539.85446   5293667.54445                  20633550.9884
        13.5004         10.0004
  22128423.2894   -6002985.08643  -2627968.96642                  22128430.0744
         5.2504          2.0004
  20422999.4534   -5764565.75046  -4491862.20246                  20423002.4654
        14.0004         13.0004
  23079521.3284     174851.54742
         4.2504
  23306156.8674     186361.05142     88925.85241                  23306162.6334
         4.2504          0.7504
 98  6 15 20 12 30.0000000  0  8G 5G 6G30G10G26G17G24G13
  21894576.8284   11664549.73444   9089253.42643                  21894581.6094
         6.7504          3.2504
  19152994.5394   -4797241.45446  -3738106.59746                  19152996.3324
        17.2504         18.2504
  20019256.9224    5891135.32546   4559545.05946                  20019258.9844
        16.7504         16.7504
  20642931.3594    6842850.25346   5332091.22045                  20642934.7934
        12.7504          9.5004
  22123074.4064   -6031093.49843  -2649871.58942                  22123081.1094
         5.2504          2.2504
  20420556.9064   -5777399.75446  -4501862.70346                  20420560.1884
        13.5004         12.5004
  23088610.1724     222613.67842
         4.2504
  23309196.4844     202328.20842    101367.92241                  23309200.5744
         4.2504          0.7504
 98  6 15 20 12 45.0000000  0  8G 5G 6G30G10G26G17G24G13
  21906625.9614   11727870.68044   9138594.34443                  21906630.2624
         6.7504          3.0004
  19151369.6174   -4805780.92646  -3744760.72746                  19151371.3874
        17.2504         18.7504
  20028482.8984    5939616.12646   4597322.29046                  20028484.6804
        17.0004         16.7504
  20652339.4924    6892293.36246   5370618.30645                  20652342.5514
        13.2504          9.5004
  22117739.4844   -6059126.82243  -2671715.67042                  22117742.0274
         5.5004          1.7504
  20418133.0784   -5790137.99546  -4511788.59146                  20418136.3834
        13.7504         13.0004
  23097705.9454     270406.19442     24826.77351                  23097706.9414
         4.2504          0.7504
  23312264.8134     218457.44242
         4.2504
 98  6 15 20 13  0.0000000  0  8G 5G 6G30G10G26G17G24G13
  21918689.7274   11791264.73544   9187992.27143                  21918693.8874
         7.0004          3.2504
  19149766.1024   -4814207.42546  -3751326.81746                  19149767.8954
        17.2504         18.7504
  20037734.8054    5988235.33546   4635207.37346                  20037736.5744
        17.0004         17.0004
  20661773.5164    6941866.65546   5409246.83245                  20661776.4344
        13.5004         10.2504
  22112420.1724   -6087082.49443  -2693499.28742                  22112423.4774
         5.5004          1.7504
  20415726.7114   -5802784.03546  -4521642.62446                  20415730.2974
        13.5004         12.0004
  23106804.3204     318226.07042     62088.98341                  23106811.3204
         4.2504          0.7504
  23315364.6954     234748.53442
         4.2504
 98  6 15 20 13 15.0000000  0  8G 5G 6G30G10G26G17G24G13
  21930767.5004   11854730.07044   9237445.68343                  21930772.1174
         7.0004          3.0004
  19148184.2344   -4822520.22046  -3757804.31346                  19148185.8984
        17.5004         18.5004
  20047013.1724    6036994.39446   4673201.43146                  20047015.2344
        16.7504         16.5004
  20671231.6484    6991569.72946   5447976.48845                  20671234.5904
        13.2504          9.7504
  22107115.8754   -6114956.22143  -2715218.97642                  22107120.3164
         5.2504          2.2504
  20413338.0394   -5815336.63546  -4531423.85846                  20413341.4264
        13.5004         12.2504
  23115909.7424     366072.85942     99372.16441                  23115915.6844
         4.5004          1.0004
  23318495.9064     251203.25742
         4.0004
 98  6 15 20 13 30.0000000  0  8G 5G 6G30G10G26G17G24G13
  21942858.0784   11918267.77244   9286955.56443                  21942862.7304
         7.0004          3.2504
  19146624.4534   -4830716.43646  -3764190.96846                  19146626.0004
        17.5004         18.0004
  20056318.8524    6085896.77146   4711307.17246                  20056320.9264
        16.7504         17.0004
  20680715.1724    7041408.29546   5486811.72545                  20680718.1134
        13.5004          9.7504
  22101827.4774   -6142745.98443  -2736873.28242                  22101833.7704
         5.5004          1.7504
  20410967.1484   -5827796.23746  -4541132.62146                  20410970.7584
        13.2504         12.2504
  23125020.6484     413946.09642    136675.87741                  23125027.7424
         4.5004          0.7504
  23321659.6334     267824.30242
         4.2504
 98  6 15 20 13 45.0000000  0  8G 5G 6G30G10G26G17G24G13
  21954962.2424   11981876.25744   9336520.54843                  21954966.9064
         6.7504          3.0004
  19145087.0394   -4838796.31546  -3770486.96746                  19145088.3404
        17.7504         18.0004
  20065651.6484    6134939.55446   4749522.31346                  20065653.4654
        16.5004         16.5004
  20690225.0704    7091382.96146   5525753.00945                  20690228.3054
        13.2504          9.7504
  22096555.5704   -6170451.09443  -2758461.60642                  22096561.3484
         5.7504          2.2504
  20408613.5634   -5840164.95946  -4550770.56546                  20408616.5634
        13.7504         12.5004
  23134133.9144     461843.24442    173998.34241                  23134136.4694
         4.2504          0.7504
  23324854.1724     284612.05442
         4.0004
 98  6 15 20 14  0.0000000  0  8G 5G 6G30G10G26G17G24G13
  21967079.5004   12045551.77844   9386137.78343                  21967083.6954
         7.0004          3.2504
  19143571.5634   -4846759.95846  -3776692.40446                  19143573.0744
        17.7504         18.7504
  20075010.1804    6184119.19946   4787844.10846                  20075012.1374
        16.5004         16.2504
  20699760.3524    7141490.10546   5564797.52645                  20699763.5394
        13.0004          9.7504
  22091299.5084   -6198072.93243  -2779985.09642                  22091302.4734
         6.0004          2.0004
  20406276.9844   -5852443.86446  -4560338.52645                  20406280.0314
        13.7504         11.7504
  23143254.1954     509765.92842    211340.70541                  23143258.7304
         4.2504          0.7504
  23328079.5314     301565.86342      6179.95251                  23328081.2544
         4.0004          0.7504
 98  6 15 20 14 15.0000000  0  8G 5G 6G30G10G26G17G24G13
  21979208.4064   12109291.56044   9435805.07943                  21979212.0394
         7.0004          3.0004
  19142078.0554   -4854607.90646  -3782807.67946                  19142079.2384
        17.7504         18.0004
  20084395.2504    6233438.27846   4826274.54146                  20084397.2424
        16.5004         16.2504
  20709320.6884    7191728.50746   5603944.31745                  20709323.9804
        13.2504         10.0004
  22086059.1254   -6225611.23543  -2801443.39442                  22086065.1134
         6.0004          2.2504
  20403957.2664   -5864633.07346  -4569836.59446                  20403960.1374
        13.7504         12.5004
  23152379.4144     557715.76342    248704.13541                  23152391.6994
         4.5004          1.0004
  23331337.4774     318687.30742     19521.41341                  23331342.2704
         4.0004          1.2504
 98  6 15 20 14 30.0000000  0  8G 5G 6G30G10G26G17G24G13
  21991350.2734   12173095.71444   9485522.52743                  21991353.1214
         7.0004          3.0004
  19140606.7734   -4862340.08046  -3788832.74046                  19140608.0744
        17.7504         18.2504
  20093807.3284    6282897.90646   4864814.50046                  20093809.5084
        16.2504         16.0004
  20718905.5704    7242099.49046   5643194.42545                  20718908.6414
        13.0004         10.0004
  22080833.7034   -6253066.26043  -2822836.89542                  22080839.0594
         6.0004          2.0004
  20401654.8984   -5876731.63146  -4579264.02346                  20401657.8874
        13.7504         12.5004
  23161507.9144     605688.29242    286085.39141                  23161513.3284
         4.5004          1.0004
  23334628.4454     335977.87342     32994.54441                  23334632.0084
         4.0004          1.2504
 98  6 15 20 14 45.0000000  0  8G 5G 6G30G10G26G17G24G13
  22003503.1484   12236959.95944   9535286.82143                  22003506.4304
         6.7504          3.2504
  19139157.4384   -4869956.38646  -3794767.51546                  19139159.0904
        17.7504         18.7504
  20103245.3754    6332496.06846   4903462.41246                  20103247.6024
        16.2504         15.7504
  20728515.7504    7292601.42546   5682546.57645                  20728518.9844
        13.0004          9.7504
  22075625.5314   -6280438.88143  -2844166.13343                  22075630.8284
         6.0004          2.7504
  20399369.5474   -5888742.28246  -4588622.95346                  20399372.6644
        13.7504         12.2504
  23170640.4844     653681.60042    323482.62941                  23170646.1564
         4.2504          0.7504
  23337949.5004     353433.63942     46596.44041                  23337954.6564
         3.7504          1.0004
 98  6 15 20 15  0.0000000  0  8G 5G 6G30G10G26G17G24G13
  22015667.8834   12300884.02544   9585097.72743                  22015671.6564
         6.7504          2.7504
  19137731.0004   -4877453.04446  -3800609.06246                  19137732.7344
        17.5004         18.2504
  20112709.6954    6382231.29746   4942217.12346                  20112711.8164
        16.2504         16.2504
  20738151.4844    7343235.56046   5722001.72745                  20738155.1174
        13.0004         10.0004
  22070431.9534   -6307727.30043  -2865429.78742                  22070435.4454
         6.0004          2.0004
  20397100.8444   -5900663.77746  -4597912.41246                  20397103.6684
        13.7504         12.7504
  23179778.0004     701695.90142    360896.52841                  23179781.6214
         4.0004          0.5004
  23341303.8674     371056.73042     60328.77541                  23341299.4024
         4.2504          0.7504
 98  6 15 20 15 15.0000000  0  8G 5G 6G30G10G26G17G24G13
  22027842.6884   12364865.04244   9634953.01143                  22027846.8714
         6.2504          2.7504
  19136327.0394   -4884830.32946  -3806357.58846                  19136328.6564
        17.7504         18.2504
  20122200.1564    6432103.87846   4981078.86346                  20122202.2664
        16.2504         16.2504
  20747812.3524    7394002.50846   5761560.36745                  20747815.9614
        13.0004          9.7504
  22065255.6644   -6334930.44943  -2886626.96042                  22065260.4574
         6.0004          2.2504
  20394849.3134   -5912493.28146  -4607130.18746                  20394852.2074
        14.0004         13.0004
  23188918.9384     749732.58942    398327.56941                  23188929.5704
         4.5004          1.0004
  23344688.9224     388847.53742     74191.74441                  23344689.9184
         4.2504          0.5004
 98  6 15 20 15 30.0000000  0  8G 5G 6G30G10G26G17G24G13
  22040026.7274   12428895.91144   9684847.10643                  22040031.6024
         6.5004          2.7504
  19134944.6094   -4892093.42346  -3812017.14046                  19134946.3094
        17.2504         18.0004
  20131716.1334    6482112.00646   5020046.22146                  20131718.0434
        16.2504         16.2504
  20757497.2114    7444899.32946   5801220.21345                  20757500.9844
        12.7504          9.5004
  22060094.1484   -6362055.95044  -2907763.67243                  22060096.9844
         6.2504          2.7504
  20392615.5394   -5924233.63946  -4616278.50446                  20392618.6684
        14.0004         12.5004
  23198063.6804     797790.22843    435774.98541                  23198067.1844
         5.0004          1.0004
  23348105.3834     406801.54742     88181.93341                  23348111.9224
         4.2504          1.0004
 98  6 15 20 15 45.0000000  0  8G 5G 6G30G10G26G17G24G13
  22052222.6094   12492980.16944   9734782.86043                  22052226.6054
         6.5004          3.0004
  19133585.5394   -4899237.34946  -3817583.82646                  19133587.0394
        17.5004         17.5004
  20141258.7344    6532257.26646   5059120.43946                  20141260.8204
        15.7504         15.7504
  20767207.6954    7495929.08046   5840983.64745                  20767211.3164
        13.0004          9.2504
  22054947.8984   -6389100.36043  -2928837.16243                  22054952.8324
         6.0004          2.5004
  20390398.8204   -5935882.16746  -4625355.26146                  20390401.9024
        14.2504         12.7504
  23207213.4304     845874.45742    473243.15441                  23207217.3914
         4.5004          1.0004
  23351554.0394     424921.04242    102301.02441                  23351558.5044
         4.2504          0.5004
 98  6 15 20 16  0.0000000  0  8G 5G 6G30G10G26G17G24G13
  22064426.7584   12557114.71844   9784757.76043                  22064430.7894
         6.2504          2.7504
  19132247.9924   -4906265.55946  -3823060.34946                  19132249.4104
        17.2504         17.7504
  20150826.3364    6582534.61946   5098297.58446                  20150828.1524
        15.7504         15.2504
  20776942.5004    7547085.73546   5880845.95645                  20776946.3554
        12.7504          9.5004
  22049816.3524   -6416066.33743  -2949849.55443                  22049821.8484
         6.0004          2.5004
  20388199.4224   -5947440.76046  -4634361.94046                  20388202.3404
        13.7504         12.7504
  23216367.9694     893984.16342    510731.19641                  23216369.3984
         4.2504          1.0004
  23355032.5784     443200.62242    116544.85241                  23355033.3754
         4.2504          1.2504
 98  6 15 20 16 15.0000000  0  8G 5G 6G30G10G26G17G24G13
  22076640.6414   12621298.51744   9834771.01743                  22076643.6524
         6.5004          3.0004
  19130932.6804   -4913176.22546  -3828445.28246                  19130934.0744
        17.2504         17.5004
  20160419.6024    6632947.19046   5137580.09446                  20160421.6414
        15.7504         15.5004
  20786701.8364    7598370.07946   5920807.75845                  20786705.2234
        12.5004          9.0004
  22044699.2664   -6442955.13243  -2970801.82242                  22044704.8554
         6.0004          2.2504
  20386016.8754   -5958909.35946  -4643298.49646                  20386020.2734
        13.7504         12.5004
  23225529.5554     942119.64742    548239.32241                  23225529.9884
         4.2504          0.7504
  23358540.0554     461639.34742    130912.62941                  23358540.3834
         4.0004          1.2504
 98  6 15 20 16 30.0000000  0  8G 5G 6G30G10G26G17G24G13
  22088862.8754   12685529.52944   9884821.10943                  22088867.3874
         6.2504          2.5004
  19129639.8204   -4919971.82746  -3833740.54646                  19129641.3204
        17.2504         18.0004
  20170037.8524    6683492.18646   5176965.79746                  20170040.1844
        15.7504         15.7504
  20796484.8284    7649781.76746   5960868.80345                  20796487.9694
        12.2504          9.2504
  22039596.2344   -6469768.99643  -2991695.66343                  22039599.7854
         6.0004          2.5004
  20383851.8284   -5970289.55746  -4652166.16846                  20383855.0274
        14.0004         13.0004
  23234691.3284     990272.77042    585761.20641                  23234700.5664
         4.2504          0.7504
  23362078.8284     480231.85642    145400.32741                  23362081.3484
         4.2504          1.0004
 98  6 15 20 16 45.0000000  0  8G 5G 6G30G10G26G17G24G13
  22101096.3834   12749813.61243   9934912.53543                  22101100.4734
         6.0004          2.5004
  19128369.9534   -4926644.69446  -3838940.18046                  19128371.4534
        17.2504         18.2504
  20179681.9454    6734172.38746   5216456.84746                  20179684.0784
        16.0004         15.7504
  20806293.2664    7701324.73846   6001032.13445                  20806296.2774
        12.5004          8.7504
  22034509.6024   -6496499.99943  -3012524.98143                  22034513.6804
         6.0004          3.0004
  20381703.3984   -5981576.88946  -4660961.47746                  20381706.8204
        13.7504         12.7504
  23243859.2424    1038449.95342    623301.87841                  23243867.7894
         4.2504          0.7504
  23365647.8834     498983.62242    160012.13341                  23365654.5744
         3.7504          1.2504
 98  6 15 20 17  0.0000000  0  8G 5G 6G30G10G26G17G24G13
  22113339.0944   12814149.49243   9985044.29943                  22113343.6884
         6.0004          2.7504
  19127122.8914   -4933198.45546  -3844047.00346                  19127124.5554
        17.2504         17.7504
  20189350.8754    6784983.19046   5256049.67446                  20189352.6094
        15.7504         15.2504
  20816125.7114    7752995.46146   6041295.02145                  20816128.8634
        12.5004          8.7504
  22029438.6254   -6523148.33344  -3033289.85343                  22029442.4344
         6.2504          3.0004
  20379572.8444   -5992773.86046  -4669686.37146                  20379576.1484
        14.0004         13.2504
  23253032.0864    1086651.13942    660861.22341                  23253039.8484
         4.2504          1.0004
  23369245.6334     517894.41642    174747.79341                  23369248.9614
         3.7504          0.7504
 98  6 15 20 17 15.0000000  0  8G 5G 6G30G10G26G17G24G13
  22125592.1954   12878540.26043  10035218.88143                  22125597.0594
         6.0004          2.5004
  19125897.7424   -4939636.26046  -3849063.47046                  19125899.4184
        17.0004         17.7504
  20199044.8284    6835925.26046   5295744.77646                  20199046.8324
        16.0004         15.5004
  20825982.6954    7804792.34746   6081656.20945                  20825985.8834
        12.2504          8.5004
  22024383.2894   -6549713.07844  -3053989.58843                  22024387.6724
         6.2504          2.7504
  20377459.6724   -6003878.46846  -4678339.29746                  20377462.8134
        14.0004         12.5004
  23262209.2814    1134875.72542    698438.75141                  23262213.0904
         4.2504          1.0004
  23372874.5084     536964.50842    189607.57541                  23372881.1414
         3.7504          0.7504
 98  6 15 20 17 30.0000000  0  8G 5G 6G30G10G26G17G24G13
  22137855.9144   12942988.07943  10085437.84542                  22137858.8914
         6.0004          2.2504
  19124694.1094   -4945960.26646  -3853991.25746                  19124695.7274
        17.0004         17.5004
  20208763.6724    6886998.70346   5335542.25446                  20208765.6764
        15.7504         15.2504
  20835863.6024    7856716.72946   6122116.74845                  20835866.7544
        12.5004          8.7504
  22019344.2424   -6576195.94844  -3074625.56543                  22019350.0554
         6.2504          2.5004
  20375363.6024   -6014891.59546  -4686920.93946                  20375366.5904
        13.7504         12.7504
  23271390.9694    1183125.68742    736036.02041                  23271396.1484
         4.2504          0.7504
  23376533.5394     556191.79842    204590.01241                  23376537.4304
         4.0004          1.2504
 98  6 15 20 17 45.0000000  0  8G 5G 6G30G10G26G17G24G13
  22150131.8444   13007494.65143  10135702.69643                  22150137.0354
         6.0004          2.5004
  19123512.5704   -4952169.76446  -3858829.82946                  19123514.1524
        17.0004         17.7504
  20218507.2424    6938203.00346   5375441.69546                  20218509.2114
        15.5004         14.7504
  20845767.8674    7908765.99346   6162674.60245                  20845771.1844
        12.0004          8.5004
  22014319.8444   -6602597.91843  -3095198.50242                  22014324.4964
         6.0004          2.2504
  20373284.7734   -6025816.53746  -4695433.86446                  20373288.2894
        14.0004         12.7504
  23280576.3674    1231397.86242    773650.69641                  23280580.2234
         4.0004          1.0004
  23380221.7504     575574.92642    219693.56041                  23380227.2584
         3.7504          1.0004
 98  6 15 20 18  0.0000000  0  8G 5G 6G30G10G26G17G24G13
  22162418.8284   13072060.35043  10186013.53243                  22162424.1604
         6.0004          2.5004
  19122352.3524   -4958265.15146  -3863579.47346                  19122354.0164
        17.0004         18.0004
  20228276.0314    6989535.70846   5415441.19046                  20228278.3284
        15.7504         14.7504
  20855695.7194    7960936.59146   6203326.98345                  20855699.0944
        12.5004          8.7504
  22009310.9454   -6628919.27244  -3115708.52843                  22009314.8594
         6.5004          2.5004
  20371222.3444   -6036655.29246  -4703879.64146                  20371225.3914
        14.0004         12.7504
  23289766.3914    1279690.99342    811281.76641                  23289767.8794
         4.0004          0.7504
  23383939.8524     595113.87942
         3.7504
 98  6 15 20 18 15.0000000  0  8G 5G 6G30G10G26G17G24G13
  22174715.8834   13136686.64643  10236371.58342                  22174720.8164
         6.0004          2.0004
  19121214.6094   -4964246.12446  -3868239.96646                  19121216.0864
        17.2504         18.0004
  20238068.9614    7041000.14546   5455543.33446                  20238070.9414
        15.5004         14.5004
  20865647.3674    8013231.39246   6244076.16445                  20865650.3324
        12.5004          8.5004
  22004317.9064   -6655157.31344  -3136153.69743                  22004321.4104
         6.5004          2.7504
  20369176.5864   -6047404.84646  -4712255.89246                  20369179.4454
        14.0004         13.2504
  23298960.5394    1328007.27742    848930.78641                  23298967.4224
         4.0004          0.7504
  23387688.6804     614811.56842
         3.7504
 98  6 15 20 18 30.0000000  0  8G 5G 6G30G10G26G17G24G13
  22187025.8284   13201374.78844  10286777.91043                  22187032.3794
         6.2504          2.5004
  19120097.9064   -4970114.25546  -3872812.53546                  19120099.5234
        17.2504         18.0004
  20247887.8364    7092596.81646   5495748.52446                  20247889.5354
        15.5004         14.7504
  20875622.9144    8065651.76346   6284923.18445                  20875625.3984
        12.5004          8.5004
  21999341.0234   -6681309.32644  -3156531.84343                  21999343.7774
         6.5004          3.0004
  20367147.8674   -6058066.32646  -4720563.52446                  20367150.7974
        14.2504         12.7504
  23308159.9064    1376347.36942    886598.28941                  23308164.8754
         4.0004          0.5004
  23391466.7664     634668.44842
         4.2504
 98  6 15 20 18 45.0000000  0  8G 5G 6G30G10G26G17G24G13
  22199347.7274   13266124.19244  10337231.89843                  22199351.2894
         6.2504          2.7504
  19119001.8524   -4975874.12846  -3877300.74046                  19119003.3754
        17.2504         18.2504
  20257730.2664    7144321.26046   5536053.26446                  20257732.2114
        15.2504         15.0004
  20885621.1644    8118193.79646   6325865.01145                  20885624.1884
        12.5004          8.7504
  21994381.8364   -6707374.17944  -3176842.06143                  21994387.8954
         6.2504          2.5004
  20365135.2974   -6068643.31646  -4728805.32446                  20365138.2274
        14.0004         13.2504
  23317362.4454    1424710.24742    924283.56241                  23317363.5704
         4.2504          1.0004
  23395274.9924     654681.97742
         3.7504
 98  6 15 20 19  0.0000000  0  8G 5G 6G30G10G26G17G24G13
  22211680.9844   13330938.15544  10387736.18343                  22211685.7424
         6.2504          2.7504
  19117926.2664   -4981525.60046  -3881704.48146                  19117927.8134
        17.0004         18.2504
  20267598.8594    7196177.64246   5576460.82946                  20267600.8634
        15.7504         15.0004
  20895643.1884    8170859.54246   6366903.23345                  20895646.8204
        12.7504          9.0004
  21989438.7894   -6733349.76444  -3197082.71643                  21989444.2384
         6.5004          2.5004
  20363138.8204   -6079135.48946  -4736981.03146                  20363141.9964
        14.0004         13.2504
  23326570.6094    1473101.61542    961991.21841                  23326578.8874
         4.0004          0.2504
  23399115.0394     674856.87142
         3.7504
 98  6 15 20 19 15.0000000  0  8G 5G 6G30G10G26G17G24G13
  22224027.0004   13395814.19444  10438288.93643                  22224030.9264
         6.5004          2.5004
  19116871.0234   -4987072.92846  -3886027.06646                  19116872.4064
        17.5004         18.2504
  20277491.3054    7248164.66646   5616970.17846                  20277492.7934
        15.7504         15.0004
  20905687.9384    8223646.03346   6408035.54645                  20905690.9384
        12.7504          8.5004
  21984511.2584   -6759240.51443  -3217257.25242                  21984516.2854
         6.0004          2.0004
  20361157.9774   -6089543.62746  -4745091.25746                  20361161.3404
        14.0004         13.5004
  23335784.1804    1521515.74142    999716.38441                  23335793.8054
         3.7504          0.7504
  23402983.8364     695189.13042      7407.52151                  23402988.0314
         3.7504          1.2504
 98  6 15 20 19 30.0000000  0  8G 5G 6G30G10G26G17G24G13
  22236382.3674   13460742.41144  10488882.21743                  22236384.8164
         6.2504          2.5004
  19115834.7424   -4992517.13346  -3890269.30646                  19115836.3364
        17.5004         18.5004
  20287407.8204    7300277.33046   5657577.44246                  20287409.6374
        15.5004         15.0004
  20915754.7274    8276546.65346   6449256.78845                  20915758.1954
        12.7504          9.2504
  21979599.1724   -6785053.45744  -3237371.18043                  21979604.2344
         6.2504          3.0004
  20359192.6644   -6099871.60646  -4753139.01646                  20359196.2274
        14.0004         13.5004
  23345000.0474    1569947.34042   1037455.34541                  23345003.4694
         4.0004          1.2504
  23406881.3364     715669.74742     23366.56641                  23406886.9144
         3.7504          0.7504
 98  6 15 20 19 45.0000000  0  8G 5G 6G30G10G26G17G24G13
  22248746.9614   13525723.29543  10539516.63142                  22248751.2734
         6.0004          2.2504
  19114819.8054   -4997851.31446  -3894425.80346                  19114821.2114
        17.7504         18.5004
  20297349.3284    7352518.78546   5698285.05546                  20297350.9924
        15.7504         14.7504
  20925844.1884    8329565.29046   6490569.99545                  20925847.0004
        12.7504          9.0004
  21974703.1094   -6810785.37144  -3257421.94543                  21974707.3164
         6.2504          2.7504
  20357243.4534   -6110114.25446  -4761120.28546                  20357246.8634
        14.2504         13.5004
  23354219.4844    1618401.58842   1075211.94141                  23354220.5864
         3.7504          0.5004
  23410807.6804     736306.02141     39446.50741                  23410807.7034
         3.5004          0.7504
 98  6 15 20 20  0.0000000  0  8G 5G 6G30G10G26G17G24G13
  22261123.6954   13590758.41343  10590193.24243                  22261128.3014
         6.0004          2.5004
  19113826.2504   -5003072.77346  -3898494.47346                  19113827.6454
        17.7504         19.2504
  20307315.6414    7404890.43946   5739094.12446                  20307317.4804
        15.7504         15.0004
  20935955.5234    8382702.77446   6531975.80445                  20935958.1724
        13.0004          9.0004
  21969821.9844   -6836435.21043  -3277408.78143                  21969827.1994
         6.0004          2.7504
  20355311.4064   -6120267.56646  -4769031.93946                  20355315.0514
        14.0004         13.5004
  23363446.0164    1666880.03542   1112987.12741                  23363454.2234
         4.2504          0.7504
  23414765.4224     757100.95442     55650.48241                  23414766.6764
         4.0004          1.2504
 98  6 15 20 20 15.0000000  0  8G 5G 6G30G10G26G17G24G13
  22273509.7274   13655848.43043  10640912.65942                  22273514.6254
         6.0004          2.2504
  19112853.6564   -5008183.72546  -3902477.02946                  19112855.1454
        18.0004         19.0004
  20317306.4694    7457393.78146   5780005.80246                  20317308.2384
        15.5004         14.7504
  20946090.7814    8435961.58646   6573476.15545                  20946094.2624
        13.0004          8.7504
  21964955.5864   -6862003.12244  -3297331.76743                  21964960.5784
         6.2504          2.7504
  20353396.9304   -6130329.13446  -4776872.10446                  20353400.1174
        14.7504         13.7504
  23372676.1334    1715385.19242   1150783.44741                  23372690.2704
         3.7504          0.5004
  23418751.9144     778054.65042     71978.03441                  23418752.2074
         3.7504          0.7504
 98  6 15 20 20 30.0000000  0  8G 5G 6G30G10G26G17G24G13
  22285905.6094   13720990.65043  10691672.75343                  22285909.5474
         5.7504          2.5004
  19111902.1094   -5013184.54246  -3906373.76946                  19111903.7034
        18.0004         19.0004
  20327322.8444    7510029.23046   5821020.42446                  20327324.5084
        15.5004         15.0004
  20956247.9224    8489339.08046   6615068.98745                  20956251.1914
        13.0004          9.0004
  21960105.5164   -6887488.82444  -3317190.71043                  21960108.9144
         6.5004          3.0004
  20351499.2194   -6140301.02546  -4784642.39846                  20351502.4774
        14.2504         14.0004
  23381910.1174    1763913.11041   1188597.31641                  23381915.4734
         3.5004          0.5004
  23422770.6884     799169.00542     88430.77441                  23422770.9804
         4.0004          0.7504
 98  6 15 20 20 45.0000000  0  8G 5G 6G30G10G26G17G24G13
  22298311.6564   13786182.27243  10742471.35543                  22298315.8874
         6.0004          2.5004
  19110971.6884   -5018072.43346  -3910182.51746                  19110973.1764
        18.0004         19.2504
  20337363.6884    7562794.62646   5862136.30446                  20337365.6094
        15.2504         15.0004
  20966427.1884    8542832.00746   6656751.76745                  20966430.6334
        12.7504          9.0004
  21955271.5704   -6912893.88044  -3336986.79243                  21955277.1024
         6.2504          2.7504
  20349618.1254   -6150184.48446  -4792343.77646                  20349621.3134
        14.2504         13.7504
  23391148.9144    1812460.38241   1226426.44141                  23391154.0944
         3.5004          0.5004
  23426819.9534     820444.63842    105009.09941                  23426819.9654
         4.2504          0.7504
 98  6 15 20 21  0.0000000  0  8G 5G 6G30G10G26G17G24G13
  22310726.3524   13851420.87343  10793306.56442                  22310731.1094
         6.0004          2.2504
  19110063.6414   -5022844.55746  -3913901.04846                  19110065.2814
        18.0004         19.2504
  20347428.9694    7615689.14746   5903352.79846                  20347431.0204
        15.2504         14.5004
  20976628.5314    8596439.71446   6698523.99745                  20976631.0744
        13.0004          8.7504
  21950452.3134   -6938221.87844  -3356722.84343                  21950457.2704
         6.5004          3.0004
  20347754.5864   -6159978.80346  -4799975.70746                  20347757.3874
        14.0004         14.0004
  23400390.5634    1861024.76242   1264268.70541                  23400399.0044
         3.7504          0.5004
  23430899.2974     841884.30042    121715.38641                  23430903.2934
         4.2504          0.7504
 98  6 15 20 21 15.0000000  0  8G 5G 6G30G10G26G17G24G13
  22323149.1024   13916704.21743  10844176.58743                  22323153.9414
         5.7504          2.5004
  19109178.2504   -5027498.39246  -3917527.41046                  19109179.6564
        18.0004         19.0004
  20357519.0704    7668711.71046   5944669.06846                  20357521.2854
        15.0004         14.2504
  20986851.5474    8650161.83546   6740385.36845                  20986854.0434
        12.7504          8.5004
  21945646.5084   -6963473.50944  -3376399.39543                  21945650.4104
         7.0004          3.0004
  20345907.9224   -6169680.85246  -4807535.72246                  20345911.5664
        14.0004         13.7504
  23409635.7504    1909605.87042   1302124.10441                  23409639.0314
         3.7504          1.0004
  23435010.0944     863489.85042    138550.86541                  23435007.8204
         4.2504          1.0004
 98  6 15 20 21 30.0000000  0  8G 5G 6G30G10G26G17G24G13
  22335580.2424   13982030.44543  10895080.06142                  22335582.9844
         6.0004          2.2504
  19108315.6804   -5032030.85946  -3921059.20446                  19108317.0514
        18.0004         19.5004
  20367632.6024    7721857.95546   5986081.71446                  20367634.6884
        15.0004         14.2504
  20997096.0164    8703996.07046   6782334.09945                  20997099.0164
        13.0004          8.7504
  21940856.0784   -6988647.54344  -3396015.46243                  21940859.1024
         6.7504          3.0004
  20344079.7034   -6179289.81146  -4815023.21446                  20344083.0784
        14.2504         13.7504
  23418882.2894    1958202.90941   1339991.85641                  23418891.6804
         3.5004          1.0004
  23439151.7584     885259.76142    155514.42141                  23439154.4064
         3.7504          1.0004
 98  6 15 20 21 45.0000000  0  8G 5G 6G30G10G26G17G24G13
  22348020.4614   14047405.97243  10946021.94842                  22348027.7664
         5.7504          2.2504
  19107476.9774   -5036437.57046  -3924493.00246                  19107478.3014
        17.7504         19.0004
  20377770.0944    7775131.10146   6027593.24346                  20377772.0274
        15.2504         14.0004
  21007362.5164    8757948.82346   6824375.18745                  21007365.4694
        12.7504          8.5004
  21936081.9614   -7013737.06244  -3415565.67843                  21936086.0864
         7.0004          2.7504
  20342269.0004   -6188803.90246  -4822436.77646                  20342271.5904
        14.7504         14.2504
  23428135.3834    2006824.59941   1377878.83641                  23428141.3714
         3.5004          1.0004
  23443328.2734     907201.12142    172611.60141                  23443334.4144
         4.2504          0.7504
 98  6 15 20 22  0.0000000  0  8G 5G 6G30G10G26G17G24G13
  22360472.1334   14112832.72243  10997003.73842                  22360475.8014
         5.7504          2.2504
  19106661.1644   -5040725.22146  -3927834.02746                  19106662.4654
        18.0004         19.2504
  20387931.4384    7828529.11346   6069202.06646                  20387933.8164
        15.0004         14.5004
  21017652.1414    8812018.79546   6866507.61545                  21017655.5274
        12.5004          8.7504
  21931324.7424   -7038742.39844  -3435050.29143                  21931329.1604
         7.0004          2.7504
  20340475.9774   -6198227.86046  -4829780.11346                  20340479.2344
        14.2504         14.2504
  23437391.6484    2055467.31141   1415782.20541                  23437394.6374
         3.5004          0.5004
  23447536.0004     929313.60142    189842.06941                  23447542.3524
         4.2504          1.2504
 98  6 15 20 22 15.0000000  0  8G 5G 6G30G10G26G17G24G13
  22372930.4534   14178307.61043  11048023.06642                  22372935.2464
         5.7504          2.2504
  19105867.3984   -5044896.69946  -3931084.52546                  19105868.6994
        18.0004         19.0004
  20398115.8204    7882049.33646   6110906.12746                  20398117.8594
        15.5004         14.0004
  21027963.2974    8866204.85346   6908730.50545                  21027966.2504
        12.5004          8.7504
  21926582.1174   -7063662.98544  -3454468.87743                  21926584.9534
         7.0004          3.0004
  20338698.7664   -6207566.44246  -4837056.91046                  20338702.3164
        14.2504         14.7504
  23446651.5864    2104127.44641   1453699.24841                  23446663.5314
         3.2504          0.5004
  23451775.0784     951593.36342    207202.94241                  23451778.0434
         4.2504          1.0004
 98  6 15 20 22 30.0000000  0  8G 5G 6G30G10G26G17G24G13
  22385398.4224   14243827.14343  11099077.13542                  22385402.2544
         5.7504          2.2504
  19105096.0084   -5048951.10246  -3934243.79646                  19105097.4614
        18.0004         19.5004
  20408323.1254    7935690.19646   6152704.18946                  20408324.8834
        15.5004         14.0004
  21038296.3594    8920506.15946   6951043.18145                  21038299.4884
        12.2504          8.5004
  21921856.1094   -7088495.17144  -3473818.57443                  21921859.2974
         6.7504          3.0004
  20336938.0314   -6216820.37546  -4844267.75546                  20336941.0664
        14.2504         14.2504
  23455913.9454    2152804.92641
         3.5004
  23456046.8054     974041.46842    224695.10941                  23456062.3364
         3.7504          0.5004
 98  6 15 20 22 45.0000000  0  8G 5G 6G30G10G26G17G24G13
  22397875.8674   14309391.55243  11150166.21742                  22397881.8554
         5.7504          2.2504
  19104347.3834   -5052883.66546  -3937308.13446                  19104348.9774
        18.0004         19.0004
  20418553.0004    7989449.57246   6194594.59346                  20418554.7344
        15.2504         14.2504
  21048652.0004    8974924.73046   6993447.24745                  21048654.7424
        12.2504          8.5004
  21917147.9774   -7113235.18144  -3493096.44943                  21917151.1414
         7.2504          3.0004
  20335193.1644   -6225988.25046  -4851411.54146                  20335196.3284
        14.5004         14.7504
  23465180.7194    2201501.83441
         3.5004
  23460352.2424     996658.10642
         4.0004
 98  6 15 20 23  0.0000000  0  8G 5G 6G30G10G26G17G24G13
  22410360.8204   14375003.04343  11201291.96042                  22410366.4924
         5.7504          2.2504
  19103621.7734   -5056697.63446  -3940280.05646                  19103623.1454
        17.7504         19.2504
  20428805.9774    8043324.51646   6236575.05846                  20428807.7814
        15.0004         13.7504
  21059029.4694    9029459.35846   7035941.74145                  21059032.7154
        12.2504          8.5004
  21912456.3284   -7137884.40144  -3512303.60043                  21912458.3914
         6.7504          3.0004
  20333465.5234   -6235069.34346  -4858487.69646                  20333468.4884
        14.5004         14.5004
  23474451.0314    2250219.38041
         3.5004
  23464685.5634    1019436.21342
         4.2504
 98  6 15 20 23 15.0000000  0  8G 5G 6G30G10G26G17G24G13
  22422855.1024   14440658.93643  11252452.31942                  22422860.9734
         5.7504          2.0004
  19102917.3834   -5060398.30046  -3943163.69146                  19102918.9414
        17.7504         18.7504
  20439079.1484    8097312.66046   6278643.74046                  20439081.0004
        15.2504         13.7504
  21069428.4614    9084106.90446   7078524.22845                  21069431.5784
        12.2504          8.0004
  21907784.1954   -7162444.37544  -3531441.19543                  21907785.8954
         7.0004          3.0004
  20331753.1724   -6244066.51246  -4865498.47246                  20331756.2074
        15.0004         14.7504
  23483727.4064    2298957.65941
         3.5004
  23469050.1254    1042370.53842
         4.2504
 98  6 15 20 23 30.0000000  0  8G 5G 6G30G10G26G17G24G13
  22435357.1334   14506359.30343  11303647.33242                  22435362.0784
         5.7504          2.2504
  19102234.8524   -5063984.66446  -3945958.26046                  19102236.4924
        17.7504         19.0004
  20449374.2504    8151412.71446   6320799.60946                  20449376.2544
        15.5004         13.5004
  21079848.7274    9138865.65046   7121193.36045                  21079852.2774
        12.2504          8.2504
  21903127.4144   -7186911.84244  -3550506.68243                  21903131.8204
         6.7504          2.7504
  20330056.9774   -6252979.73746  -4872443.82746                  20330060.0474
        14.7504         14.7504
  23493005.5474    2347719.80341
         3.2504
  23473443.1644    1065457.67342
         4.5004
 98  6 15 20 23 45.0000000  0  8G 5G 6G30G10G26G17G24G13
  22447869.1254   14572107.12943  11354879.29342                  22447873.2734
         5.7504          2.2504
  19101573.9774   -5067457.62246  -3948664.45746                  19101575.4774
        17.7504         19.0004
  20459690.7194    8205628.11846   6363045.37246                  20459692.7234
        15.2504         13.7504
  21090290.9384    9193739.31245   7163952.03645                  21090294.4304
        11.7504          8.0004
  21898489.6024   -7211286.92744  -3569500.24643                  21898493.1524
         6.7504          2.7504
  20328376.7504   -6261809.38746  -4879324.06146                  20328379.9964
        14.7504         14.5004
  23502289.9304    2396507.56941
         3.2504
  23477865.7974    1088694.81842
         4.2504
 98  6 15 20 24  0.0000000  0  8G 5G 6G30G10G26G17G24G13
  22460389.8364   14637902.38643  11406148.26342                  22460396.9064
         5.7504          2.0004
  19100934.7194   -5070817.70046  -3951282.69346                  19100936.3954
        17.7504         19.0004
  20470030.3204    8259961.79246   6405383.28246                  20470032.2194
        15.2504         13.7504
  21100755.2114    9248728.55446   7206800.77345                  21100758.8324
        12.2504          8.2504
  21893868.3134   -7235570.70144  -3588422.59343                  21893871.9344
         7.0004          2.7504
  20326712.6484   -6270553.90246  -4886137.95846                  20326715.3324
        15.0004         14.7504
  23511578.7194    2445321.46941
         3.2504
  23482316.4694    1112082.10142      3652.02851                  23482321.7544
         4.2504          0.5004
 98  6 15 20 24 15.0000000  0  8G 5G 6G30G10G26G17G24G13
  22472918.2664   14703742.38043  11457452.06242                  22472922.3914
         5.7504          1.7504
  19100317.8834   -5074058.72546  -3953808.16646                  19100319.6294
        17.5004         18.7504
  20480392.3914    8314415.89946   6447815.02946                  20480394.1844
        15.0004         14.2504
  21111241.0704    9303831.80646   7249738.35745                  21111244.7274
        12.0004          8.2504
  21889264.8204   -7259764.03044  -3607274.48343                  21889268.4534
         7.2504          2.5004
  20325065.4534   -6279209.73546  -4892882.75146                  20325067.9384
        15.5004         14.7504
  23520872.4304    2494160.42941
         3.5004
  23486794.5234    1135617.07442     21991.16841                  23486797.0554
         3.7504          0.5004
 98  6 15 20 24 30.0000000  0  8G 5G 6G30G10G26G17G24G13
  22485455.7664   14769625.10143  11508789.12242                  22485460.5124
         5.5004          2.2504
  19099723.7894   -5077180.00446  -3956240.32946                  19099725.6644
        17.2504         18.5004
  20490777.5944    8368989.81546   6490340.15046                  20490779.3984
        15.5004         14.0004
  21121747.8834    9359046.29246   7292762.60145                  21121751.1884
        12.2504          8.2504
  21884677.2274   -7283865.51744  -3626054.83543                  21884680.9884
         6.7504          3.0004
  20323435.2194   -6287775.82446  -4899557.61446                  20323438.3244
        15.0004         14.7504
  23530170.8134    2543025.86541
         3.5004
  23491300.6644    1159298.40042
         3.7504
 98  6 15 20 24 45.0000000  0  8G 5G 6G30G10G26G17G24G13
  22498001.0554   14835550.33343  11560159.31242                  22498005.2034
         5.5004          2.2504
  19099152.4694   -5080183.19546  -3958580.47746                  19099154.2624
        17.7504         18.7504
  20501185.1174    8423682.70946   6532957.97946                  20501186.8874
        15.5004         13.7504
  21132275.1334    9414364.84546   7335867.95245                  21132278.1454
        12.5004          8.2504
  21880108.1484   -7307879.53544  -3644767.01743                  21880111.9224
         6.7504          2.5004
  20321822.2344   -6296254.86846  -4906164.65546                  20321825.3874
        15.2504         15.2504
  23539474.0004    2591914.57641
         3.5004
  23495834.6254    1183122.01542
         4.2504
 98  6 15 20 25  0.0000000  0  8G 5G 6G30G10G26G17G24G13
  22510554.7974   14901521.49443  11611565.33742                  22510557.1524
         5.5004          2.2504
  19098603.5554   -5083067.56046  -3960828.02946                  19098605.2424
        17.7504         19.0004
  20511616.5394    8478498.94746   6575671.90546                  20511618.7424
        15.5004         13.5004
  21142821.1884    9469786.22346   7379053.42945                  21142824.2114
        12.5004          8.2504
  21875554.9534   -7331806.23044  -3663411.13643                  21875557.8834
         6.7504          2.7504
  20320224.8914   -6304646.90546  -4912703.89446                  20320227.2584
        15.5004         15.2504
  23548782.4064    2640827.59841
         3.2504
  23500396.1644    1207088.56843
         5.0004
 98  6 15 20 25 15.0000000  0  8G 5G 6G30G10G26G17G24G13
  22523117.6724   14967539.79343  11663008.07842                  22523122.6884
         5.5004          2.0004
  19098077.3364   -5085832.38146  -3962982.43446                  19098079.2234
        17.7504         18.7504
  20522071.6024    8533441.03446   6618483.91346                  20522073.6764
        15.5004         13.7504
  21153387.4614    9525311.45146   7422319.82645                  21153390.5554
        12.5004          8.0004
  21871017.5084   -7355644.41544  -3681986.25743                  21871021.5044
         6.7504          2.7504
  20318644.7584   -6312951.23246  -4919174.78446                  20318647.5004
        15.5004         15.5004
  23558095.7344    2689766.99441
         3.5004
  23504983.6024    1231200.38043
         5.0004
 98  6 15 20 25 30.0000000  0  8G 5G 6G30G10G26G17G24G13
  22535688.6254   15033599.86143  11714483.36042                  22535694.0164
         5.2504          1.7504
  19097574.1724   -5088476.77746  -3965042.99946                  19097575.8244
        17.7504         19.0004
  20532550.6024    8588506.91946   6661392.37546                  20532552.4774
        15.5004         13.5004
  21163973.0004    9580939.58046   7465666.38945                  21163976.0944
        12.5004          8.2504
  21866499.4774   -7379394.83544  -3700493.06043                  21866501.8914
         6.2504          2.7504
  20317081.1804   -6321169.07546  -4925578.28346                  20317084.1334
        15.7504         15.5004
  23567411.7034    2738729.79241
         3.5004
  23509600.1954    1255457.49942
         4.5004
 98  6 15 20 25 45.0000000  0  8G 5G 6G30G10G26G17G24G13
  22548268.1804   15099704.56343  11765993.42942                  22548273.2194
         5.2504          2.0004
  19097094.3444   -5090999.85146  -3967009.03046                  19097096.1134
        18.0004         19.0004
  20543052.8054    8643698.38246   6704398.69246                  20543054.9144
        15.0004         13.2504
  21174578.3914    9636672.63146   7509094.72045                  21174581.7194
        12.2504          8.0004
  21861996.4384   -7403055.92544  -3718930.22043                  21862000.2934
         7.0004          2.7504
  20315533.9144   -6329298.54546  -4931912.92246                  20315536.4344
        15.7504         15.7504
  23576734.3594    2787715.22942
         3.7504
  23514243.4534    1279861.30942      1269.11851                  23514249.7584
         4.7504          1.0004
 98  6 15 20 26  0.0000000  0  8G 5G 6G30G10G26G17G24G13
  22560855.1254   15165852.02843  11817536.84942                  22560861.3954
         5.0004          1.7504
  19096636.5864   -5093404.56646  -3968882.83146                  19096637.8754
        18.0004         19.0004
  20553579.5864    8699015.94346   6747503.27746                  20553582.2234
        15.0004         13.5004
  21185203.7974    9692508.96746   7552603.52645                  21185206.7734
        12.2504          8.2504
  21857509.8754   -7426629.47944  -3737299.18243                  21857513.0044
         7.0004          2.7504
  20314003.8754   -6337340.54146  -4938179.39846                  20314006.8164
        15.7504         16.0004
  23586059.8524    2836719.69842
         3.7504
  23518915.1254    1304413.82843     20400.91341                  23518919.4964
         5.0004          1.2504
 98  6 15 20 26 15.0000000  0  8G 5G 6G30G10G26G17G24G13
  22573449.4924   15232038.17543  11869110.28242                  22573453.6294
         5.0004          1.5004
  19096201.4774   -5095690.93946  -3970664.41246                  19096202.7774
        18.0004         19.5004
  20564129.6024    8754457.30646   6790704.31846                  20564131.7704
        14.7504         12.7504
  21195848.6804    9748446.49046   7596191.19045                  21195851.6094
        12.2504          8.0004
  21853040.9614   -7450113.93544  -3755598.68743                  21853044.6994
         6.7504          3.0004
  20312489.5004   -6345296.57446  -4944378.88746                  20312492.3014
        15.7504         16.2504
  23595389.7344    2885742.97742
         4.2504
  23523617.0704    1329119.04642     39651.69541                  23523624.4104
         4.5004          0.7504
 98  6 15 20 26 30.0000000  0  8G 5G 6G30G10G26G17G24G13
  22586052.0704   15298259.35942  11920711.17842                  22586057.5434
         4.5004          1.7504
  19095787.8914   -5097864.99346  -3972358.47646                  19095789.2854
        18.0004         19.2504
  20574701.8204    8810015.57246   6833996.45446                  20574703.7424
        14.7504         13.2504
  21206511.3674    9804480.07246   7639853.69745                  21206514.6954
        12.2504          8.0004
  21848589.1724   -7473511.42444  -3773830.47643                  21848593.9654
         7.0004          3.0004
  20310991.0394   -6353172.14046  -4950515.68246                  20310993.9224
        16.0004         16.2504
  23604719.5634    2934778.88642
         3.7504
  23528345.7894    1353972.63142     59018.19741                  23528344.9804
         4.5004          1.0004
 98  6 15 20 26 45.0000000  0  8G 5G 6G30G10G26G17G24G13
  22598659.3984   15364514.93742  11972338.75442                  22598665.4574
         4.5004          1.7504
  19095395.0084   -5099929.63046  -3973967.27746                  19095396.7194
        18.0004         19.2504
  20585296.3914    8865688.28946   6877377.77646                  20585298.4184
        14.7504         13.7504
  21217192.6724    9860610.16946   7683591.42945                  21217196.4344
        12.2504          7.7504
  21844152.6564   -7496822.59844  -3791994.96643                  21844157.1684
         6.7504          2.7504
  20309507.2034   -6360970.24646  -4956592.11346                  20309510.1804
        15.7504         15.7504
  23614052.8594    2983825.85542
         3.7504
  23533104.9384    1378976.61442     78501.85741                  23533112.8404
         4.5004          1.2504
 98  6 15 20 27  0.0000000  0  8G 5G 6G30G10G26G17G24G13
  22611275.8284   15430809.38543  12023996.70442                  22611280.3874
         5.0004          1.5004
  19095023.8284   -5101879.89546  -3975486.96446                  19095025.5394
        18.0004         19.5004
  20595912.3204    8921476.38446   6920849.00046                  20595914.5944
        15.0004         13.5004
  21227893.3134    9916843.56246   7727409.63445                  21227896.4064
        12.0004          8.0004
  21839733.9844   -7520045.36844  -3810090.58443                  21839736.7974
         7.0004          3.0004
  20308038.7194   -6368687.36246  -4962605.43946                  20308041.7774
        15.5004         16.0004
  23623389.0704    3032886.93042     25484.38151                  23623395.5864
         4.0004          1.0004
  23537891.7504    1404136.27942     98106.72941                  23537897.1884
         4.2504          1.0004
 98  6 15 20 27 15.0000000  0  8G 5G 6G30G10G26G17G24G13
  22623896.4924   15497137.89842  12075681.14942                  22623899.5274
         4.7504          1.5004
  19094673.3834   -5103720.51546  -3976921.20746                  19094674.8014
        18.0004         19.0004
  20606548.9694    8977373.34046   6964405.05146                  20606551.3954
        14.7504         13.2504
  21238614.3444    9973182.42845   7771310.03145                  21238617.1804
        11.7504          7.2504
  21835331.3284   -7543180.60344  -3828117.97343                  21835334.9264
         6.7504          2.7504
  20306585.0234   -6376325.30246  -4968557.06846                  20306587.8244
        15.7504         15.5004
  23632727.7814    3081961.90442     63724.60141                  23632734.3554
         3.7504          0.7504
  23542707.9144    1429448.96342    117830.83241                  23542711.1724
         4.2504          1.0004
 98  6 15 20 27 30.0000000  0  8G 5G 6G30G10G26G17G24G13
  22636525.8284   15563499.09843  12127391.05142                  22636531.0664
         5.0004          1.7504
  19094344.3674   -5105450.11146  -3978268.94046                  19094346.0434
        18.0004         19.2504
  20617206.3594    9033376.45446   7008043.82946                  20617208.6914
        14.7504         13.2504
  21249355.9224   10029628.48646   7815293.93945                  21249358.9224
        12.2504          7.2504
  21830946.3594   -7566227.88944  -3846076.85143                  21830951.5394
         6.7504          2.7504
  20305146.7424   -6383883.08246  -4974446.23546                  20305149.4844
        15.5004         15.5004
  23642068.5234    3131049.41942    101974.46041                  23642068.2774
         4.0004          1.0004
  23547555.2114    1454915.70942    137675.18241                  23547560.0274
         4.2504          1.2504
 98  6 15 20 27 45.0000000  0  8G 5G 6G30G10G26G17G24G13
  22649160.7894   15629897.24043  12179129.73942                  22649166.3794
         5.0004          2.0004
  19094036.5944   -5107067.27946  -3979529.06446                  19094038.2814
        18.0004         19.5004
  20627884.1884    9089487.69546   7051766.85346                  20627886.0864
        15.0004         13.2504
  21260117.5864   10086182.41745   7859361.92945                  21260120.4694
        11.7504          7.5004
  21826576.6804   -7589184.99344  -3863965.45043                  21826580.7584
         6.2504          3.0004
  20303724.4534   -6391358.12146  -4980270.91746                  20303727.3134
        15.7504         16.0004
  23651412.8984    3180150.68441    140235.10941                  23651418.9694
         3.5004          0.2504
  23552431.6174    1480541.49842    157643.20041                  23552434.6764
         4.2504          0.5004
 98  6 15 20 28  0.0000000  0  8G 5G 6G30G10G26G17G24G13
  22661802.7274   15696328.88242  12230894.56742                  22661810.3244
         4.7504          1.5004
  19093749.3834   -5108576.93146  -3980705.40746                  19093750.9184
        18.0004         19.2504
  20638581.4144    9145701.98346   7095570.17346                  20638583.5124
        14.7504         13.5004
  21270899.3054   10142839.88046   7903510.57145                  21270902.6454
        12.0004          7.5004
  21822224.4384   -7612057.31144  -3881788.00443                  21822229.3014
         6.5004          3.0004
  20302315.8754   -6398758.64946  -4986037.55546                  20302318.6294
        15.5004         15.5004
  23660757.2814    3229261.17442    178503.03341                  23660760.9384
         3.7504          0.5004
  23557338.5004    1506325.92342    177735.07041                  23557339.6604
         4.2504          0.5004
 98  6 15 20 28 15.0000000  0  8G 5G 6G30G10G26G17G24G13
  22674450.7664   15762800.08142  12282690.20842                  22674455.9924
         4.7504          1.7504
  19093484.2734   -5109971.57246  -3981792.13546                  19093485.7034
        18.0004         19.5004
  20649298.4844    9202023.18246   7139456.81546                  20649300.3594
        14.5004         13.2504
  21281701.6024   10199606.08346   7947743.96745                  21281704.6954
        12.0004          7.2504
  21817889.8674   -7634835.72344  -3899537.36144                  21817894.6484
         6.7504          3.5004
  20300923.1954   -6406078.65746  -4991741.44346                  20300925.8674
        15.5004         15.5004
  23670106.5554    3278388.76541    216784.48241                  23670120.3524
         3.5004          0.5004
  23562277.1484    1532278.09042    197957.63841                  23562285.5554
         4.0004          0.7504
 98  6 15 20 28 30.0000000  0  8G 5G 6G30G10G26G17G24G13
  22687107.0634   15829306.02142  12334512.88142                  22687113.3554
         4.7504          1.7504
  19093239.4694   -5111255.95746  -3982792.95146                  19093240.9804
        17.7504         19.0004
  20660035.0084    9258443.45746   7183420.64546                  20660037.0944
        14.7504         12.7504
  21292523.2734   10256473.83245   7992056.47045                  21292526.7304
        11.7504          7.0004
  21813572.6024   -7657523.16345  -3917215.83143                  21813576.0944
         7.5004          3.2504
  20299544.0944   -6413325.42146  -4997388.25546                  20299546.8244
        15.7504         15.5004
  23679456.3984    3327524.09941
         3.0004
  23567246.1804    1558389.12242    218303.75242                  23567246.9654
         4.5004          1.5004
 98  6 15 20 28 45.0000000  0  8G 5G 6G30G10G26G17G24G13
  22699770.4844   15895853.66042  12386368.07242                  22699775.5354
         4.5004          2.0004
  19093017.3674   -5112423.62846  -3983702.81946                  19093018.6214
        17.7504         19.2504
  20670792.1484    9314970.31346   7227467.52946                  20670794.0824
        14.7504         13.2504
  21303364.7114   10313449.15845   8036452.80445                  21303368.1804
        11.7504          7.7504
  21809273.9844   -7680111.54944  -3934817.12543                  21809277.9454
         7.2504          3.2504
  20298180.1804   -6420493.01446  -5002973.38246                  20298183.0164
        15.7504         15.7504
  23688809.4224    3376671.45941
         3.0004
  23572246.0084    1584664.21243    238777.85041                  23572248.5044
         5.0004          1.0004
 98  6 15 20 29  0.0000000  0  8G 5G 6G30G10G26G17G24G13
  22712441.9774   15962439.63042  12438253.10642                  22712446.6644
         4.7504          1.7504
  19092816.5944   -5113477.35846  -3984523.90746                  19092818.2234
        17.7504         19.0004
  20681568.9614    9371602.65246   7271596.61446                  20681570.8954
        15.0004         12.7504
  21314227.7894   10370532.00845   8080932.92945                  21314230.5784
        11.7504          7.0004
  21804993.3834   -7702602.96244  -3952342.85643                  21804996.3014
         7.2504          3.2504
  20296831.0944   -6427583.44246  -5008498.37646                  20296834.0124
        15.7504         15.7504
  23698164.5864    3425830.60641
         3.0004
  23577276.2424    1611102.29443    259379.01341                  23577278.6684
         5.0004          1.2504
 98  6 15 20 29 15.0000000  0  8G 5G 6G30G10G26G17G24G13
  22725120.7344   16029068.32942  12490171.53342                  22725125.7154
         4.7504          1.5004
  19092638.6484   -5114412.79446  -3985252.80846                  19092640.5354
        17.7504         18.7504
  20692366.3204    9428345.48746   7315811.78646                  20692368.4304
        14.7504         12.7504
  21325110.9454   10427725.78845   8125499.49445                  21325115.2114
        11.7504          7.5004
  21800734.2114   -7724990.16845  -3969787.37643                  21800737.1644
         7.5004          3.0004
  20295497.4064   -6434590.42646  -5013958.34446                  20295500.1954
        15.7504         15.7504
  23707521.5704    3475005.83841
         2.5004
  23582339.6724    1637706.53842    280109.63941                  23582340.2464
         4.5004          1.2504
 98  6 15 20 29 30.0000000  0  8G 5G 6G30G10G26G17G24G13
  22737805.9064   16095730.23342  12542115.68742                  22737811.3204
         4.5004          2.0004
  19092482.1804   -5115235.83146  -3985894.13346                  19092484.1374
        17.5004         18.7504
  20703184.5234    9485193.49846   7360108.91146                  20703186.3524
        14.7504         12.5004
  21336014.0084   10485019.74745   8170144.11245                  21336017.8524
        11.5004          7.5004
  21796492.1644   -7747279.21645  -3987155.41944                  21796495.7734
         7.7504          3.5004
  20294178.7034   -6441520.55046  -5019358.42346                  20294181.3984
        16.0004         15.7504
  23716880.5554    3524187.62941
         2.2504
  23587431.9144    1664469.33942    300963.76541                  23587428.3754
         4.2504          1.0004
 98  6 15 20 29 45.0000000  0  8G 5G 6G30G10G26G17G24G13
  22750497.6564   16162425.58142  12594085.98342                  22750503.5164
         4.7504          1.7504
  19092347.0474   -5115945.10446  -3986446.81546                  19092348.6524
        17.5004         19.2504
  20714022.6564    9542148.39446   7404489.33846                  20714024.4844
        14.7504         12.7504
  21346935.3754   10542412.71745   8214865.87645                  21346938.5514
        11.7504          7.5004
  21792269.3444   -7769468.77645  -4004445.93544                  21792273.9494
         7.7504          3.7504
  20292874.8594   -6448372.04846  -5024697.24046                  20292877.7194
        15.7504         16.0004
  23726240.6484    3573373.39441
         2.0004
  23592554.7274    1691390.92842    321941.70241                  23592563.1684
         4.5004          0.7504
 98  6 15 20 30  0.0000000  0  8G 5G 6G30G10G26G17G24G13
  22763196.8204   16229154.58342  12646082.46241                  22763203.9144
         4.7504          1.2504
  19092234.1954   -5116537.93946  -3986908.76146                  19092235.9304
        17.5004         18.7504
  20724881.7664    9599213.11346   7448955.32946                  20724883.4534
        14.7504         12.7504
  21357876.1954   10599907.08645   8259666.67645                  21357879.4774
        11.5004          7.0004
  21788066.9144   -7791556.06645  -4021656.76844                  21788069.8324
         7.7504          3.5004
  20291586.1024   -6455143.83546  -5029973.93946                  20291589.0904
        15.7504         16.0004
  23735600.4454    3622567.42641
         2.0004
  23597709.2584    1718472.47842    343044.13141                  23597709.4224
         4.2504          0.7504
 98  6 15 20 30 15.0000000  0  8G 5G 6G30G10G26G17G24G13
  22775900.9144   16295914.73242  12698103.28442                  22775910.0824
         4.7504          1.5004
  19092143.9384   -5117012.57846  -3987278.60346                  19092145.9414
        17.5004         18.7504
  20735761.3914    9656387.13346   7493506.49446                  20735763.1374
        14.2504         12.5004
  21368836.7344   10657503.03245   8304546.61145                  21368839.9694
        11.2504          7.5004
  21783884.1414   -7813537.95145  -4038785.47344                  21783886.7894
         7.7504          3.5004
  20290313.1334   -6461831.73946  -5035185.28046                  20290316.2034
        15.5004         16.0004
  23744966.2814    3671771.65541
         2.0004
  23602891.9144    1745711.21742    364269.00641                  23602897.6454
         4.2504          0.7504
 98  6 15 20 30 30.0000000  0  8G 5G 6G30G10G26G17G24G13
  22788609.8914   16362701.09042  12750144.47142                  22788617.3954
         4.7504          1.7504
  19092075.4454   -5117372.19946  -3987558.82246                  19092077.2384
        17.2504         19.0004
  20746662.0704    9713668.85946   7538141.58746                  20746663.9574
        14.2504         12.2504
  21379815.7584   10715198.44845   8349504.05945                  21379818.7114
        11.7504          7.5004
  21779720.5164   -7835417.81045  -4055834.63744                  21779723.4344
         7.7504          3.7504
  20289056.5234   -6468436.75746  -5040332.02946                  20289059.4774
        15.7504         15.7504
  23754329.3364    3720983.28541
         2.0004
  23608102.7344    1773099.32942    385610.54641                  23608104.6804
         4.2504          0.7504
 98  6 15 20 30 45.0000000  0  8G 5G 6G30G10G26G17G24G13
  22801324.2034   16429512.81242  12802205.41842                  22801328.9964
         4.7504          1.5004
  19092029.5634   -5117613.94846  -3987747.18946                  19092031.2624
        17.5004         19.0004
  20757583.0864    9771060.73946   7582862.51446                  20757585.0904
        14.2504         12.2504
  21390814.0474   10772995.46945   8394540.69245                  21390817.6684
        11.5004          7.5004
  21775575.6804   -7857199.23945  -4072807.15344                  21775578.8914
         7.7504          3.7504
  20287815.9694   -6474957.26746  -5045412.93546                  20287818.8404
        15.7504         16.0004
  23763696.4384    3770207.38841
         2.0004
  23613344.2194    1800635.14442    407066.92641                  23613352.2854
         4.2504          0.7504
 98  6 15 20 31  0.0000000  0  7G 5G 6G30G10G26G17G13
  22814042.0084   16496347.11842  12854283.94942                  22814047.5864
         4.7504          1.5004
  19092005.6564   -5117738.96946  -3987844.60746                  19092007.5204
        17.2504         18.7504
  20768524.7584    9828558.81246   7627666.18446                  20768526.7734
        14.2504         12.5004
  21401831.0784   10830892.35745   8439655.11045                  21401834.6524
        11.0004          7.2504
  21771448.0474   -7878888.38145  -4089707.72344                  21771449.7584
         8.2504          4.0004
  20286590.8984   -6481393.30146  -5050428.00446                  20286593.8054
        15.7504         16.0004
  23618611.8914    1828317.98942    428637.98141                  23618611.2584
         4.2504          0.5004
 98  6 15 20 31 15.0000000  0  7G 5G 6G30G10G26G17G13
  22826764.1334   16563204.28643  12906380.32442                  22826768.9844
         5.0004          1.7504
  19092004.5164   -5117745.09646  -3987849.37546                  19092006.1334
        17.5004         19.0004
  20779486.5784    9886161.38146   7672551.28245                  20779488.6884
        14.2504         11.7504
  21412867.0084   10888885.20845   8484844.32645                  21412870.1374
        11.0004          7.2504
  21767337.2814   -7900487.16545  -4106537.89344                  21767339.8834
         7.5004          3.7504
  20285382.3834   -6487744.93346  -5055377.31446                  20285385.1024
        15.7504         15.7504
  23623906.2504    1856146.80642    450322.83141                  23623904.9614
         4.2504          1.0004
 98  6 15 20 31 30.0000000  0  7G 5G 6G30G10G26G17G13
  22839491.4844   16630086.06242  12958495.89442                  22839497.2734
         4.7504          1.5004
  19092027.0554   -5117627.21646  -3987757.51646                  19092028.6604
        17.7504         18.7504
  20790467.9534    9943870.43446   7717519.35146                  20790470.1214
        14.2504         12.0004
  21423920.9454   10946973.82845   8530108.16245                  21423924.9064
        11.2504          7.0004
  21763245.2664   -7921993.30245  -4123295.89443                  21763248.7704
         7.5004          3.2504
  20284190.3284   -6494009.30146  -5060258.62446                  20284193.2704
        15.7504         15.7504
  23629230.3364    1884121.63142    472121.25441                  23629232.6804
         4.2504          0.5004
 98  6 15 20 31 45.0000000  0  7G 5G 6G30G10G26G17G13
  22852222.6804   16696988.23743  13010627.29142                  22852229.4414
         5.0004          1.5004
  19092071.9924   -5117390.03846  -3987572.69746                  19092073.5634
        17.7504         19.2504
  20801468.6094   10001680.73746   7762566.32046                  20801470.9064
        14.0004         12.0004
  21434991.9694   11005153.41045   8575442.87145                  21434995.8364
        10.7504          6.7504
  21759169.7734   -7943411.18945  -4139985.08044                  21759173.5124
         7.5004          3.5004
  20283013.2894   -6500194.04646  -5065077.88846                  20283016.0314
        15.7504         15.7504
  23634579.3054    1912235.37342    494028.23741                  23634580.9224
         4.2504          0.7504
 98  6 15 20 32  0.0000000  0  7G 5G 6G30G10G26G17G13
  22864960.3204   16763921.87543  13062783.30042                  22864969.0434
         5.0004          1.7504
  19092141.4534   -5117024.56646  -3987287.91246                  19092143.0474
        17.7504         19.0004
  20812490.7424   10059600.99646   7807698.97245                  20812492.8284
        14.5004         11.7504
  21446082.8754   11063434.61845   8620856.78045                  21446086.4384
        10.7504          6.7504
  21755111.8984   -7964731.42245  -4156598.22644                  21755115.0044
         7.5004          4.0004
  20281853.0004   -6506291.92746  -5069829.47346                  20281855.4264
        15.7504         15.5004
  23639958.3914    1940496.84742    516050.06541                  23639957.2894
         4.2504          1.2504
 98  6 15 20 32 15.0000000  0  7G 5G 6G30G10G26G17G13
  22877702.5234   16830884.07143  13114961.46242                  22877706.0164
         5.0004          1.7504
  19092235.5314   -5116532.48746  -3986904.46546                  19092236.9494
        17.7504         18.7504
  20823532.4614   10117626.65346   7852913.75046                  20823534.0314
        14.2504         12.0004
  21457191.9304   11121812.53445   8666346.04245                  21457195.9844
        11.0004          6.7504
  21751073.2814   -7985956.97945  -4173137.56544                  21751076.4104
         7.5004          3.5004
  20280707.7344   -6512309.01646  -5074518.10146                  20280710.0904
        16.0004         15.7504
  23645363.3054    1968901.63242    538183.64841                  23645361.4064
         4.5004          1.2504
 98  6 15 20 32 30.0000000  0  7G 5G 6G30G10G26G17G13
  22890450.8364   16897871.68743  13167159.45042                  22890453.6484
         5.0004          1.5004
  19092352.2194   -5115918.09546  -3986425.71546                  19092353.4844
        17.7504         19.0004
  20834594.3984   10175756.08346   7898209.39546                  20834596.4024
        14.2504         12.0004
  21468318.3364   11180282.01145   8711906.65545                  21468322.3914
        11.0004          6.7504
  21747051.3984   -8007091.00845  -4189605.56244                  21747054.9024
         7.5004          3.7504
  20279577.5004   -6518250.26246  -5079147.63646                  20279580.2194
        15.7504         15.5004
  23650795.3524    1997445.48942    560425.53541                  23650788.0944
         4.2504          0.5004
 98  6 15 20 32 45.0000000  0  7G 5G 6G30G10G26G17G13
  22903204.0314   16964891.92443  13219382.88942                  22903214.6994
         5.0004          1.7504
  19092493.8594   -5115173.24046  -3985845.31046                  19092495.3714
        17.7504         18.5004
  20845676.6484   10233993.53246   7943589.20146                  20845679.0984
        14.0004         12.2504
  21479462.9844   11238848.58245   8757542.93045                  21479466.6764
        11.0004          7.0004
  21743048.3914   -8028126.97245  -4205997.18844                  21743053.0434
         7.5004          4.2504
  20278461.2664   -6524114.50046  -5083717.15546                  20278463.9144
        16.0004         16.0004
  23656253.8204    2026135.00842    582781.13741                  23656255.1214
         4.0004          1.0004
 98  6 15 20 33  0.0000000  0  7G 5G 6G30G10G26G17G13
  22915963.3204   17031942.19242  13271629.74341                  22915970.0354
         4.5004          1.0004
  19092660.1174   -5114299.44846  -3985164.42746                  19092661.8164
        17.7504         18.5004
  20856778.2734   10292333.26246   7989048.70646                  20856780.3484
        14.2504         12.2504
  21490625.4614   11297506.68245   8803250.51645                  21490629.1294
        11.0004          6.7504
  21739063.9304   -8049065.33444  -4222312.73444                  21739068.0904
         7.2504          3.5004
  20277359.7114   -6529904.30946  -5088228.68346                  20277362.5824
        15.7504         16.0004
  23661742.2114    2054971.41742    605251.00041                  23661746.1374
         4.0004          0.5004
 98  6 15 20 33 15.0000000  0  7G 5G 6G30G10G26G17G13
  22928729.0864   17099022.92442  13323900.27441                  22928734.2544
         4.5004          1.2504
  19092851.0784   -5113297.63046  -3984383.78146                  19092852.8244
        17.5004         18.5004
  20867899.6174   10350774.70046   8034587.46446                  20867901.8794
        14.2504         12.2504
  21501804.7584   11356255.69145   8849028.94245                  21501808.1804
        11.2504          7.2504
  21735098.1644   -8069900.92445  -4238548.21244                  21735102.2894
         7.5004          4.0004
  20276271.8284   -6535620.30846  -5092682.69546                  20276274.3014
        15.7504         15.7504
  23667258.1954    2083957.70042    627837.77541                  23667255.4534
         4.2504          0.5004
 98  6 15 20 33 30.0000000  0  7G 5G 6G30G10G26G17G13
  22941499.5234   17166132.19342  13376193.10342                  22941506.0044
         4.5004          1.5004
  19093065.2974   -5112170.18646  -3983505.24546                  19093067.3134
        17.2504         18.7504
  20879039.3674   10409315.51346   8080203.66345                  20879041.6524
        13.7504         11.2504
  21513001.7584   11415095.14545   8894877.84845                  21513005.5664
        11.2504          6.2504
  21731153.0784   -8090632.97945  -4254703.01944                  21731157.2854
         7.7504          3.7504
  20275197.6094   -6541265.70546  -5097081.69546                  20275200.3054
        15.7504         15.7504
  23672802.5234    2113091.04442    650539.06241                  23672807.7034
         4.2504          1.0004
 98  6 15 20 33 45.0000000  0  7G 5G 6G30G10G26G17G13
  22954274.1484   17233270.58442  13428508.58441                  22954278.2034
         4.2504          1.2504
  19093303.6094   -5110917.97246  -3982529.49246                  19093305.6954
        17.2504         18.2504
  20890197.7194   10467954.94646   8125896.70045                  20890199.5944
        14.0004         11.7504
  21524216.5474   11474027.57945   8940799.21645                  21524219.8524
        11.0004          6.2504
  21727229.1644   -8111260.03145  -4270775.96044                  21727233.1024
         7.7504          4.2504
  20274136.9384   -6546839.26646  -5101424.72646                  20274139.5394
        16.0004         15.2504
  23678374.1414    2142373.91042
         4.5004
 98  6 15 20 34  0.0000000  0  7G 5G 6G30G10G26G17G13
  22967056.1414   17300436.21742  13480845.34342                  22967062.6094
         4.2504          1.5004
  19093565.1024   -5109544.24746  -3981459.05546                  19093567.0704
        17.2504         18.5004
  20901375.0634   10526690.25446   8171664.45545                  20901377.2304
        14.0004         11.5004
  21535447.8524   11533051.17145   8986791.59845                  21535451.3444
        11.0004          6.5004
  21723322.9304   -8131783.67545  -4286768.39445                  21723325.9884
         7.7504          4.5004
  20273089.7734   -6552342.77446  -5105713.16246                  20273092.5394
        15.7504         16.0004
  23683975.0084    2171809.20642
         4.2504
 98  6 15 20 34 15.0000000  0  7G 5G 6G30G10G26G17G13
  22979842.9614   17367631.40142  13533205.06541                  22979851.5784
         4.2504          1.2504
  19093850.2114   -5108045.95246  -3980291.54246                  19093852.0864
        17.2504         18.5004
  20912570.3674   10585522.57546   8217507.80146                  20912572.4064
        14.0004         12.2504
  21546697.8754   11592169.03945   9032857.45245                  21546701.7664
        11.2504          6.7504
  21719436.7424   -8152203.45445  -4302679.82944                  21719440.3284
         7.5004          4.2504
  20272057.3834   -6557768.70846  -5109941.14946                  20272060.3834
        15.7504         16.5004
  23689606.9534    2201403.45442
         4.5004
 98  6 15 20 34 30.0000000  0  7G 5G 6G30G10G26G17G13
  22992634.6024   17434846.16842  13585580.01242                  22992639.4064
         4.2504          1.7504
  19094157.3364   -5106431.78846  -3979033.75346                  19094159.0124
        17.2504         18.5004
  20923782.9924   10644443.33146   8263420.04745                  20923784.8444
        14.0004         11.5004
  21557963.8134   11651370.73045   9078988.61545                  21557967.4574
        11.5004          6.2504
  21715569.7274   -8172528.51645  -4318517.50944                  21715572.1994
         8.0004          4.0004
  20271038.4774   -6563121.81646  -5114112.39946                  20271041.1134
        16.0004         16.0004
  23695267.4304    2231149.96442
         4.5004
 98  6 15 20 34 45.0000000  0  7G 5G 6G30G10G26G17G13
  23005430.5004   17502093.30042  13637980.27542                  23005433.1844
         4.2504          1.5004
  19094488.2974   -5104692.73946  -3977678.64546                  19094490.0554
        17.2504         18.2504
  20935013.6484   10703462.99046   8309409.37345                  20935015.4654
        14.0004         11.7504
  21569247.7114   11710669.64145   9125195.53845                  21569251.7544
        11.5004          6.7504
  21711720.6954   -8192751.30645  -4334275.48844                  21711723.0634
         8.0004          4.2504
  20270035.6644   -6568390.33646  -5118217.72646                  20270038.3014
        15.7504         16.2504
  23700960.6254    2261060.49942
         4.5004
 98  6 15 20 35  0.0000000  0  7G 5G 6G30G10G26G17G13
  23018232.7974   17569365.84642  13690400.26642                  23018242.1414
         4.2504          1.5004
  19094842.3204   -5102833.69246  -3976230.02246                  19094843.9384
        17.5004         18.2504
  20946261.9924   10762573.03346   8355469.12645                  20946264.1844
        14.0004         11.5004
  21580549.5704   11770060.48245   9171474.09245                  21580552.1254
        11.2504          6.2504
  21707890.9144   -8212880.19845  -4349960.28944                  21707894.7704
         8.0004          4.2504
  20269048.8834   -6573577.26046  -5122259.48546                  20269051.4964
        16.2504         16.2504
  23706680.5234    2291128.70242     15630.71551                  23706685.7974
         4.5004          1.0004
 98  6 15 20 35 15.0000000  0  7G 5G 6G30G10G26G17G13
  23031037.7734   17636658.71642  13742836.16241                  23031041.6054
         4.2504          1.2504
  19095216.8594   -5100864.06246  -3974695.24646                  19095218.5124
        17.2504         18.2504
  20957526.8914   10821770.21946   8401596.77145                  20957529.1884
        13.7504         11.5004
  21591867.0554   11829536.15345   9217818.75245                  21591870.5004
        11.0004          6.0004
  21704076.5474   -8232921.85945  -4365577.09044                  21704079.7234
         7.7504          4.0004
  20268076.6094   -6578686.71546  -5126240.86246                  20268079.3874
        16.2504         16.5004
  23712432.1174    2321348.26942     39178.36441                  23712440.1844
         4.5004          1.0004
 98  6 15 20 35 30.0000000  0  7G 5G 6G30G10G26G17G13
  23043848.2814   17703975.85042  13795290.89441                  23043853.2624
         4.5004          1.0004
  19095613.4614   -5098781.87246  -3973072.75646                  19095614.9024
        17.2504         18.2504
  20968809.3134   10881060.37546   8447796.87345                  20968811.3634
        13.7504         11.5004
  21603201.7664   11889101.09145   9264232.98345                  21603205.5394
        10.5004          6.0004
  21700280.4614   -8252873.20945  -4381123.54644                  21700283.3094
         7.7504          4.0004
  20267119.9224   -6583715.28146  -5130159.21746                  20267122.5234
        16.5004         16.7504
  23718212.0314    2351717.47442     62842.68141                  23718217.3164
         4.7504          0.5004
 98  6 15 20 35 45.0000000  0  7G 5G 6G30G10G26G17G13
  23056662.3054   17771315.38042  13847763.18242                  23056667.9064
         4.2504          1.5004
  19096030.5234   -5096589.17346  -3971364.15846                  19096032.4924
        17.2504         18.7504
  20980110.0474   10940443.71146   8494069.58145                  20980112.1564
        13.7504         11.2504
  21614553.6334   11948753.61145   9310715.45645                  21614556.5634
        11.0004          6.2504
  21696499.8754   -8272736.50445  -4396601.38845                  21696503.6844
         7.7504          4.5004
  20266178.3284   -6588662.40446  -5134014.10746                  20266180.8484
        16.5004         16.5004
  23724018.4774    2382232.03242     86620.25941                  23724021.3484
         4.7504          1.0004
 98  6 15 20 36  0.0000000  0  7G 5G 6G30G10G26G17G13
  23069481.9064   17838679.74342  13900254.71242                  23069489.4454
         4.2504          1.7504
  19096469.6334   -5094281.04946  -3969565.61746                  19096471.0394
        17.2504         18.2504
  20991428.8054   10999924.17046   8540417.96645                  20991431.3364
        13.7504         11.0004
  21625922.5474   12008497.42645   9357269.04845                  21625925.7464
        10.7504          5.7504
  21692737.8134   -8292508.42445  -4412008.02144                  21692741.5864
         8.0004          4.0004
  20265253.2894   -6593523.65646  -5137802.08346                  20265255.6334
        16.5004         16.7504
  23729852.1724    2412893.04242    110511.84841                  23729856.0744
         4.7504          1.2504
 98  6 15 20 36 15.0000000  0  7G 5G 6G30G10G26G17G13
  23082304.0314   17906066.96642  13952764.04041                  23082310.5704
         4.2504          1.2504
  19096931.0634   -5091856.23446  -3967676.14646                  19096932.5984
        17.5004         18.2504
  21002765.4064   11059500.22746   8586840.83845                  21002767.5164
        13.7504         11.2504
  21637308.5164   12068331.91045   9403893.31745                  21637312.5824
        10.7504          5.5004
  21688992.3984   -8312190.07445  -4427344.30945                  21688995.3984
         8.2504          4.5004
  20264344.2344   -6598300.67146  -5141524.42546                  20264346.9184
        16.5004         16.5004
  23735715.0864    2443696.63243    134514.73441                  23735716.2934
         5.0004          0.7504
 98  6 15 20 36 30.0000000  0  7G 5G 6G30G10G26G17G13
  23095131.9454   17973477.54142  14005291.62441                  23095137.6644
         4.2504          1.0004
  19097414.8594   -5089313.22346  -3965694.57446                  19097416.5124
        17.2504         18.5004
  21014121.3364   11119174.30146   8633340.09045                  21014123.5164
        13.7504         11.2504
  21648711.8594   12128256.92945   9450588.10045                  21648715.0824
        10.7504          6.0004
  21685264.8204   -8331780.03745  -4442609.15544                  21685267.7034
         8.2504          4.2504
  20263451.2504   -6602993.76246  -5145181.37746                  20263453.8404
        16.2504         16.7504
  23741602.2424    2474641.55142    158627.62141                  23741608.2194
         4.5004          1.0004
 98  6 15 20 36 45.0000000  0  7G 5G 6G30G10G26G17G13
  23107964.6724   18040914.09242  14057839.48441                  23107969.6764
         4.5004          1.0004
  19097921.8204   -5086649.77046  -3963619.15546                  19097923.6134
        17.7504         19.0004
  21025496.9064   11178952.22046   8679920.26045                  21025499.2274
        13.7504         11.0004
  21660132.9924   12188273.74245   9497354.44745                  21660136.2734
        10.2504          6.0004
  21681555.8754   -8351269.93145  -4457796.03844                  21681560.0944
         8.0004          4.2504
  20262573.4774   -6607605.50646  -5148774.93246                  20262575.8554
        16.2504         16.5004
  23747518.3834    2505728.52342    182851.22841                  23747522.3794
         4.5004          1.0004
 98  6 15 20 37  0.0000000  0  7G 5G 6G30G10G26G17G13
  23120803.2894   18108372.28742  14110404.10141                  23120811.0634
         4.5004          1.2504
  19098451.3984   -5083867.06646  -3961450.80546                  19098453.1564
        17.7504         18.7504
  21036890.6564   11238828.99146   8726577.45845                  21036892.9534
        13.7504         10.7504
  21671570.0004   12248377.02845   9544188.13445                  21671574.2194
        10.0004          6.0004
  21677865.8834   -8370658.87545  -4472904.22844                  21677869.3754
         7.7504          4.2504
  20261710.9844   -6612139.91046  -5152308.22546                  20261713.3634
        16.5004         16.5004
  23753460.1094    2536953.26342    207182.11841                  23753462.5594
         4.2504          0.7504
 98  6 15 20 37 15.0000000  0  7G 5G 6G30G10G26G17G13
  23133643.8754   18175851.47642  14162985.18141                  23133649.9344
         4.2504          1.2504
  19099003.9144   -5080963.59446  -3959188.35446                  19099005.6024
        17.7504         18.7504
  21048303.4774   11298804.64046   8773311.70345                  21048305.0704
        13.2504         11.2504
  21683023.3754   12308562.86145   9591086.18245                  21683027.3244
        10.2504          5.7504
  21674197.2894   -8389939.39545  -4487927.96144                  21674200.3714
         8.0004          4.0004
  20260862.5084   -6616597.37946  -5155781.56946                  20260864.9804
        16.2504         16.5004
  23759428.2974    2568317.53442    231621.86341                  23759434.8134
         4.0004          1.0004
 98  6 15 20 37 30.0000000  0  7G 5G 6G30G10G26G17G13
  23146487.9454   18243344.77942  14215577.18341                  23146492.5634
         4.5004          1.2504
  19099578.4534   -5077944.91546  -3956836.13846                  19099580.2234
        17.7504         18.7504
  21059733.9924   11358872.73246   8820117.98745                  21059736.8054
        13.2504         10.5004
  21694491.3524   12368827.33145   9638045.46945                  21694495.0904
        10.2504          5.7504
  21670548.1334   -8409114.95345  -4502869.91844                  21670551.4844
         7.7504          4.0004
  20260027.5164   -6620985.15946  -5159200.61146                  20260030.2114
        16.2504         16.5004
  23765423.1724    2599817.97842    256167.65041                  23765431.3324
         4.0004          0.5004
 98  6 15 20 37 45.0000000  0  7G 5G 6G30G10G26G17G13
  23159334.7034   18310853.41242  14268181.18541                  23159338.1484
         4.2504          1.2504
  19100175.7814   -5074805.16346  -3954389.57446                  19100177.8204
        17.7504         19.0004
  21071182.2424   11419034.20646   8866997.03145                  21071184.5274
        13.2504         10.5004
  21705975.0704   12429175.95945   9685070.36645                  21705978.6804
        10.2504          5.5004
  21666919.8594   -8428182.11845  -4517727.37644                  21666923.5744
         8.2504          3.7504
  20259206.0944   -6625300.17346  -5162562.95246                  20259208.7544
        16.5004         16.7504
  23771445.3364    2631460.21242    280823.93841                  23771453.2974
         4.0004          0.7504
 98  6 15 20 38  0.0000000  0  7G 5G 6G30G10G26G17G13
  23172183.4844   18378375.65442  14320795.77142                  23172191.3404
         4.2504          1.5004
  19100796.9384   -5071540.49346  -3951845.66946                  19100798.8484
        17.7504         19.0004
  21082648.2274   11479286.35846   8913946.72745                  21082650.5234
        13.2504         10.5004
  21717474.6174   12489609.00445   9732161.02545                  21717478.7304
        10.2504          5.5004
  21663312.2584   -8447138.66445  -4532498.64744                  21663315.1764
         8.0004          4.2504
  20258398.7504   -6629544.06546  -5165869.87646                  20258401.4924
        16.0004         16.7504
  23777492.5474    2663247.59042    305593.22241                  23777491.8554
         4.2504          0.7504
 98  6 15 20 38 15.0000000  0  7G 5G 6G30G10G26G17G13
  23185035.2114   18445912.98042  14373422.01741                  23185040.7894
         4.2504          0.7504
  19101442.4614   -5068148.47246  -3949202.53246                  19101444.0664
        18.0004         19.2504
  21094131.2344   11539628.43646   8960966.49945                  21094132.8404
        13.2504         10.0004
  21728991.0234   12550125.41045   9779316.64245                  21728994.3054
        10.0004          5.2504
  21659726.7424   -8465981.86645  -4547181.61344                  21659731.0554
         8.2504          4.2504
  20257604.2194   -6633719.16346  -5169123.18346                  20257607.0204
        16.2504         16.2504
  23783570.4534    2695186.02842    330480.40641                  23783568.8834
         4.2504          0.7504
 98  6 15 20 38 30.0000000  0  7G 5G 6G30G10G26G17G13
  23197889.7894   18513462.68342  14426058.03441                  23197897.1884
         4.5004          1.2504
  19102111.2034   -5064633.68446  -3946463.73046                  19102112.8794
        18.0004         18.7504
  21105630.6564   11600058.36646   9008054.73845                  21105633.0234
        13.2504         10.0004
  21740521.6954   12610720.12445   9826533.29145                  21740524.9534
         9.7504          5.5004
  21656162.6804   -8484712.54845  -4561776.90444                  21656164.9064
         8.5004          4.0004
  20256822.2194   -6637828.89246  -5172325.56246                  20256824.5394
        16.2504         16.5004
  23789677.7274    2727276.79142    355486.07941                  23789679.1094
         4.5004          1.0004
 98  6 15 20 38 45.0000000  0  7G 5G 6G30G10G26G17G13
  23210746.9384   18581025.69842  14478704.44341                  23210753.6764
         4.5004          1.2504
  19102803.0394   -5060996.64146  -3943629.66646                  19102804.6334
        17.7504         18.7504
  21117146.9144   11660577.63446   9055212.58045                  21117148.4734
        13.2504         10.5004
  21752067.7034   12671392.04245   9873810.09345                  21752071.1024
        10.0004          5.0004
  21652619.4304   -8503328.79545  -4576283.00044                  21652621.9964
         7.7504          4.2504
  20256052.9144   -6641872.40346  -5175476.33546                  20256055.4574
        16.5004         16.7504
  23795812.9924    2759520.66442    380611.26741                  23795811.4574
         4.2504          0.7504
 98  6 15 20 39  0.0000000  0  7G 5G 6G30G10G26G17G13
  23223605.9924   18648603.45242  14531362.20241                  23223609.1564
         4.5004          1.2504
  19103519.4534   -5057233.81146  -3940697.58446                  19103520.9774
        17.7504         18.2504
  21128680.1644   11721183.59046   9102437.97245                  21128682.2384
        13.2504         10.2504
  21763627.5634   12732144.21145   9921149.42145                  21763631.5234
        10.0004          5.5004
  21649099.3364   -8521829.15545  -4590698.83444                  21649102.1604
         8.2504          3.7504
  20255296.3674   -6645847.70246  -5178573.96346                  20255298.8984
        16.2504         17.0004
  23801979.0864    2791919.42342    405857.07041                  23801978.0904
         4.2504          0.5004
 98  6 15 20 39 15.0000000  0  7G 5G 6G30G10G26G17G13
  23236469.7424   18716195.88342  14584031.51741                  23236478.3134
         4.5004          1.2504
  19104259.3204   -5053345.98346  -3937668.11146                  19104261.0554
        17.7504         18.7504
  21140228.8834   11781873.61446   9149728.87445                  21140230.9574
        13.0004         10.0004
  21775204.5004   12792980.14445   9968554.02745                  21775208.1094
         9.7504          5.5004
  21645599.9844   -8540217.81345  -4605027.61044                  21645602.7854
         8.2504          4.2504
  20254553.0704   -6649753.64646  -5181617.54746                  20254555.7304
        16.5004         16.7504
  23808173.5864    2824472.33942    431222.90941                  23808168.2194
         4.2504          0.7504
 98  6 15 20 39 30.0000000  0  7G 5G 6G30G10G26G17G13
  23249334.6644   18783804.59242  14636713.39941                  23249341.6764
         4.0004          0.7504
  19105023.2664   -5049331.32246  -3934539.80346                  19105024.9304
        17.7504         18.2504
  21151794.9304   11842651.70246   9197088.39645                  21151796.9454
        13.2504         10.0004
  21786798.7974   12853904.56645  10016027.58345                  21786802.9454
        10.0004          5.2504
  21642121.7194   -8558495.82745  -4619270.16145                  21642123.9694
         8.0004          4.5004
  20253823.1094   -6653588.92146  -5184606.05946                  20253825.8984
        16.5004         16.5004
  23814397.2974    2857182.21342    456711.21941                  23814402.8874
         4.2504          0.7504
 98  6 15 20 39 45.0000000  0  7G 5G 6G30G10G26G17G13
  23262203.3054   18851434.17642  14689411.69841                  23262210.8914
         4.5004          0.7504
  19105811.7664   -5045186.38846  -3931309.97346                  19105813.6414
        17.5004         18.0004
  21163377.1334   11903521.60246   9244519.46245                  21163378.9494
        13.2504         10.0004
  21798409.7584   12914922.50345  10063574.01045                  21798414.6564
         9.7504          5.7504
  21638664.0634   -8576662.77745  -4633426.16744                  21638666.1484
         8.5004          4.0004
  20253107.7034   -6657348.71046  -5187535.75446                  20253110.4694
        16.2504         16.5004
  23820651.8444    2890050.15042    482322.56041                  23820660.3094
         4.2504          1.0004
 98  6 15 20 40  0.0000000  0  7G 5G 6G30G10G26G17G13
  23275076.9304   18919080.63642  14742123.00141                  23275081.0434
         4.0004          1.2504
  19106624.4064   -5040916.73546  -3927982.96946                  19106626.1764
        17.5004         18.5004
  21174977.4614   11964477.53946   9292017.56745                  21174979.6644
        13.0004         10.0004
  21810036.6644   12976024.59345  10111186.00145                  21810040.2504
         9.7504          5.2504
  21635227.7194   -8594720.77645  -4647497.29445                  21635231.6094
         8.5004          4.5004
  20252405.0704   -6661040.21646  -5190412.24846                  20252407.6134
        16.5004         17.0004
  23826935.8524    2923067.98042    508050.94541                  23826946.9774
         4.2504          0.7504
 98  6 15 20 40 15.0000000  0  7G 5G 6G30G10G26G17G13
  23287953.2034   18986743.24742  14794847.00241                  23287957.2234
         4.2504          1.0004
  19107460.2274   -5036525.53646  -3924561.24946                  19107462.2304
        17.2504         18.0004
  21186592.8364   12025516.39346   9339580.28045                  21186594.7234
        13.0004          9.7504
  21821679.5234   13037207.55045  10158861.02345                  21821682.7234
         9.7504          5.5004
  21631811.9454   -8612671.73945  -4661484.99345                  21631813.9964
         9.0004          4.5004
  20251715.4774   -6664664.34146  -5193236.22846                  20251718.0084
        16.2504         17.0004
  23833245.7814    2956232.19042
         4.2504
 98  6 15 20 40 30.0000000  0  7G 5G 6G30G10G26G17G13
  23300833.1254   19054427.52342  14847587.77841                  23300839.1134
         3.7504          1.0004
  19108318.9304   -5032012.87246  -3921044.88746                  19108320.6524
        17.5004         18.0004
  21198224.9924   12086643.31046   9387211.62245                  21198227.3714
        13.0004          9.7504
  21833338.1484   13098473.85345  10206600.96645                  21833341.8874
         9.7504          5.5004
  21628416.9144   -8630514.48445  -4675388.39144                  21628420.3834
         9.0004          4.2504
  20251040.1414   -6668213.81246  -5196002.04846                  20251042.7774
        16.2504         17.0004
  23839584.8284    2989544.01042
         4.2504
 98  6 15 20 40 45.0000000  0  7G 5G 6G30G10G26G17G13
  22714134.3444   19122147.82142  14900356.73441                  22714141.1414
         3.7504          1.0004
  18509616.7894   -5027373.50946  -3917429.79146                  18509618.2894
        17.5004         17.7504
  20610291.5004   12147873.38446   9434923.34445                  20610293.9494
        12.5004          9.7504
  21245430.6484   13159838.88445  10254417.87045                  21245434.1294
         9.5004          5.2504
  21025457.4304   -8648248.45145  -4689207.03345                  21025460.4304
         9.0004          4.5004
  19650795.1884   -6671681.71646  -5198704.29246                  19650797.9774
        16.2504         17.0004
  23246367.3754    3023007.33442
         3.7504
 98  6 15 20 41  0.0000000  0  7G 5G 6G30G10G26G17G13
  22727022.7344   19189877.75742  14953133.12541                  22727028.9224
         3.7504          0.7504
  18510522.2034   -5022615.11546  -3913721.94346                  18510523.8444
        17.5004         18.0004
  20621957.6094   12209180.02046   9482694.72345                  20621960.1414
        12.7504          9.5004
  21257123.0314   13221280.76645  10302294.62245                  21257126.7814
         9.7504          5.2504
  21022102.8134   -8665876.66745  -4702943.24545                  21022105.8484
         9.2504          4.5004
  19650149.0314   -6675077.87246  -5201350.64546                  19650151.4344
        16.5004         17.2504
  23252761.5554    3056603.69142
         4.0004
 98  6 15 20 41 15.0000000  0  7G 5G 6G30G10G26G17G13
  22739914.9384   19257626.55341  15005924.22141                  22739922.6524
         3.5004          0.7504
  18511450.9534   -5017734.89946  -3909919.17846                  18511452.5234
        17.2504         17.7504
  20633640.4384   12270573.31746   9530533.61845                  20633642.8524
        12.5004          9.5004
  21268831.7734   13282812.25745  10350241.24545                  21268835.5594
         9.7504          5.5004
  21018768.2504   -8683398.15145  -4716596.30545                  21018770.4414
         9.2504          4.5004
  19649516.7274   -6678400.17146  -5203939.43146                  19649519.2814
        17.0004         17.0004
  23259180.3284    3090339.30842
         4.0004
 98  6 15 20 41 30.0000000  0  7G 5G 6G30G10G26G17G13
  22752810.5004   19325393.09342  15058729.21341                  22752819.0594
         3.7504          1.2504
  18512403.0004   -5012731.67046  -3906020.55846                  18512404.5594
        17.5004         18.5004
  20645340.3134   12332055.10046   9578441.47045                  20645342.8094
        12.5004          9.5004
  21280557.4064   13344429.86745  10398254.92945                  21280561.7424
         9.5004          6.0004
  21015454.5084   -8700812.79345  -4730166.12745                  21015456.6174
         9.0004          5.0004
  19648899.0784   -6681646.29546  -5206468.87846                  19648901.6684
        16.5004         17.0004
  23265627.6884    3124213.34042     19364.34851                  23265631.4734
         4.0004          0.2504
 98  6 15 20 41 45.0000000  0  7G 5G 6G30G10G26G17G13
  22765708.4144   19393169.27041  15111541.59641                  22765718.0394
         3.5004          1.0004
  18513377.4144   -5007610.51346  -3902030.04046                  18513379.1254
        17.7504         18.0004
  20657055.3834   12393618.77646   9626413.14145                  20657057.6914
        12.2504          9.2504
  21292297.2034   13406125.00645  10446329.05745                  21292301.3524
         9.5004          5.2504
  21012160.1484   -8718124.61745  -4743655.82245                  21012162.2344
         9.2504          4.7504
  19648295.0394   -6684820.11046  -5208941.96846                  19648297.4304
        17.0004         17.5004
  23272098.8444    3158220.75442     45863.68241                  23272098.9024
         4.2504          0.5004
 98  6 15 20 42  0.0000000  0  7G 5G 6G30G10G26G17G13
  22778608.7274   19460957.71842  15164363.57841                  22778618.5274
         3.7504          1.0004
  18514375.1254   -5002367.60146  -3897944.65646                  18514376.8364
        17.7504         18.5004
  20668786.1414   12455267.17646   9674450.82545                  20668788.2624
        12.0004          9.5004
  21304053.5474   13467902.59445  10494467.40645                  21304057.6374
         9.2504          5.2504
  21008886.1564   -8735327.46445  -4757060.59545                  21008887.7274
         9.0004          4.7504
  19647706.2274   -6687915.92146  -5211354.28046                  19647708.5944
        17.0004         17.7504
  23278595.8674    3192364.60942     72469.25041                  23278595.9844
         4.0004          0.7504
 98  6 15 20 42 15.0000000  0  7G 5G 6G30G10G26G17G13
  22791510.9304   19528756.42341  15217193.52841                  22791513.5904
         3.5004          1.2504
  18515396.6254   -4997000.71246  -3893762.66046                  18515398.3134
        17.7504         18.0004
  20680534.4694   12517003.01246   9722556.64845                  20680537.0824
        12.2504          9.0004
  21315825.3364   13529763.45245  10542670.65545                  21315829.8244
         9.2504          5.2504
  21005633.7034   -8752420.82145  -4770380.04245                  21005635.9064
         9.7504          5.2504
  19647132.7814   -6690929.02046  -5213702.14346                  19647134.9844
        17.0004         17.7504
  23285119.5314    3226647.36442
         4.0004
 98  6 15 20 42 30.0000000  0  7G 5G 6G30G10G26G17G13
  22804414.3914   19596560.23442  15270027.58141                  22804424.6954
         3.7504          1.0004
  18516440.7974   -4991513.20246  -3889486.68046                  18516443.0004
        17.7504         18.0004
  20692299.2664   12578825.64546   9770730.09645                  20692301.9384
        12.0004          9.0004
  21327612.1644   13591704.22745  10590936.16445                  21327616.0434
         9.0004          5.0004
  21002399.7194   -8769412.52545  -4783620.30345                  21002402.9884
         9.0004          4.7504
  19646574.4694   -6693861.62946  -5215987.28146                  19646576.6254
        17.0004         17.5004
  23291669.6644    3261065.77042
         4.2504
 98  6 15 20 42 45.0000000  0  7G 5G 6G30G10G26G17G13
  22817315.3594   19664365.61241  15322862.75641                  22817324.0704
         3.5004          1.0004
  18517508.3054   -4985903.64346  -3885115.59146                  18517509.8874
        17.7504         18.5004
  20704080.0864   12640735.73445   9818971.69045                  20704082.9344
        11.7504          8.5004
  21339414.2894   13653724.56445  10639263.68345                  21339418.1914
         9.0004          4.7504
  20999186.0784   -8786301.29145  -4796780.33945                  20999189.5354
         8.7504          4.7504
  19646031.5394   -6696715.79646  -5218211.30046                  19646033.9534
        17.2504         17.7504
  23298243.9304    3295619.22242
         4.0004
 98  6 15 20 43  0.0000000  0  7G 5G 6G30G10G26G17G13
  22830219.0474   19732170.38842  15375697.54341                  22830225.1994
         3.7504          1.0004
  18518599.0234   -4980170.71046  -3880648.36846                  18518600.6524
        17.7504         18.2504
  20715877.3134   12702730.65445   9867279.39845                  20715880.3134
        11.7504          8.7504
  21351231.1564   13715822.96445  10687652.02445                  21351236.5594
         9.2504          4.7504
  20995992.4384   -8803084.19345  -4809857.89145                  20995996.1174
         9.0004          4.5004
  19645502.6484   -6699494.24346  -5220376.31346                  19645505.1454
        17.0004         17.5004
  23304847.4384    3330309.82242
         4.2504
 98  6 15 20 43 15.0000000  0  7G 5G 6G30G10G26G17G13
  22843121.3594   19799972.90841  15428530.41141                  22843128.7344
         3.5004          1.0004
  18519713.6564   -4974313.76346  -3876084.50746                  18519715.1334
        18.0004         18.7504
  20727690.7974   12764809.49945   9915652.49045                  20727693.5514
        11.7504          8.7504
  21363062.8284   13777997.54345  10736099.72445                  21363067.4454
         9.2504          4.5004
  20992818.7974   -8819761.05045  -4822852.79145                  20992821.8204
         9.0004          4.7504
  19644989.2974   -6702192.84746  -5222479.11346                  19644991.8164
        17.0004         17.2504
  23311474.1884    3365138.81742
         4.2504
 98  6 15 20 43 30.0000000  0  7G 5G 6G30G10G26G17G13
  22856024.9144   19867774.94242  15481362.97541                  22856030.4224
         3.7504          1.0004
  18520852.1414   -4968331.87146  -3871423.29146                  18520853.7704
        18.0004         18.5004
  20739520.6484   12826974.84145   9964092.98545                  20739523.4614
        11.7504          8.5004
  21374907.8524   13840243.34145  10784602.92945                  21374911.7664
         9.2504          4.7504
  20989665.6174   -8836333.23145  -4835766.13545                  20989668.8054
         9.0004          4.7504
  19644492.1174   -6704805.65946  -5224515.05846                  19644494.5904
        17.0004         17.7504
  23318127.4064    3400105.99642     14543.73051                  23318134.7814
         4.2504          0.5004
 98  6 15 20 43 45.0000000  0  7G 5G 6G30G10G26G17G13
  22868927.4064   19935578.19642  15534196.62341                  22868936.1644
         3.7504          1.0004
  18522013.7194   -4962227.18646  -3866666.39546                  18522014.9844
        17.7504         18.7504
  20751366.7274   12889226.84746  10012601.00545                  20751369.5044
        12.0004          9.2504
  21386765.7894   13902557.71145  10833159.56445                  21386769.2114
         9.7504          5.5004
  20986531.5554   -8852799.58545  -4848597.03545                  20986535.5744
         8.5004          4.7504
  19644010.6724   -6707335.09746  -5226486.04246                  19644013.1564
        17.0004         17.7504
  23324807.8834    3435212.25942
         3.7504
 98  6 15 20 44  0.0000000  0  7G 5G 6G30G10G26G17G13
  22881829.4144   20003383.23241  15587031.46541                  22881832.3914
         3.5004          1.0004
  18523197.7584   -4956004.09946  -3861817.23246                  18523198.8954
        17.7504         18.0004
  20763228.8674   12951563.87746  10061175.28545                  20763231.5984
        12.2504          9.2504
  21398636.0784   13964939.78645  10881768.97445                  21398640.6604
         9.0004          5.5004
  20983418.8834   -8869160.07145  -4861345.43145                  20983421.2624
         9.0004          4.7504
  19643544.5084   -6709785.73946  -5228395.62446                  19643547.0044
        17.0004         17.7504
  23331514.8914    3470455.91542
         4.0004
 98  6 15 20 44 15.0000000  0  7G 5G 6G30G10G26G17G13
  22894734.0634   20071196.26241  15639872.57841                  22894731.9414
         3.5004          0.5004
  18524405.1414   -4949660.30646  -3856874.01446                  18524406.6884
        18.0004         17.7504
  20775108.3594   13013987.16246  10109816.76845                  20775111.6524
        12.2504          9.0004
  21410520.3674   14027389.48645  10930431.04645                  21410525.1374
         9.5004          5.0004
  20980326.0784   -8885413.22145  -4874010.17245                  20980328.1414
         9.2504          5.0004
  19643093.1564   -6712156.27346  -5230242.78646                  19643095.7234
        16.7504         17.7504
  23338248.4144    3505839.53542
         4.0004
 98  6 15 20 44 30.0000000  0  7G 5G 6G30G10G26G17G13
  22907640.9534   20139023.75941  15692725.06741                  22907648.2704
         3.5004          1.0004
  18525636.1954   -4943191.10046  -3851833.07246                  18525637.8714
        17.7504         18.5004
  20787004.3134   13076499.70045  10158527.82445                  20787007.1254
        11.7504          6.7504
  21422417.2734   14089909.29445
         8.5004
  20977254.0864   -8901555.59645  -4886588.60945                  20977256.2774
         9.2504          5.0004
  19642657.3054   -6714447.65746  -5232028.27246                  19642660.1294
        17.0004         17.7504
  23345009.4534    3541367.65642
         4.2504
 98  6 15 20 44 45.0000000  0  7G 5G 6G30G10G26G17G13
  22920551.8364   20206868.77142  15745591.14341                  22920555.5394
         3.7504          1.0004
  18526891.2584   -4936596.05346  -3846694.07046                  18526892.8164
        18.0004         18.0004
  20798915.9384   13139097.41646  10207305.20945                  20798918.6214
        12.2504          8.7504
  21434328.5554   14152499.65245
         9.0004
  20974204.5864   -8917582.46445  -4899077.03945                  20974207.0004
         9.5004          5.0004
  19642234.9454   -6716666.03746  -5233756.86446                  19642237.4884
        17.2504         18.0004
  23351797.8284    3577041.40642
         4.2504
 98  6 15 20 45  0.0000000  0  7G 5G 6G30G10G26G17G13
  22933466.5944   20274732.15441  15798471.59441                  22933475.8444
         3.5004          1.0004
  18528169.9844   -4929876.21246  -3841457.82946                  18528171.3204
        18.0004         18.2504
  20810842.5314   13201775.48846  10256145.23845                  20810844.7934
        12.0004          8.5004
  21446251.4774   14215159.33845
         9.0004
  20971176.2114   -8933493.54145  -4911475.23445                  20971178.0164
         9.5004          4.7504
  19641826.6254   -6718813.08046  -5235429.88246                  19641828.9924
        17.0004         17.7504
  23358613.9924    3612859.64542     22335.77651                  23358623.7344
         4.5004          0.7504
 98  6 15 20 45 15.0000000  0  7G 5G 6G30G10G26G17G13
  22946383.7274   20342612.73741  15851365.29541                  22946386.7504
         3.5004          1.2504
  18529471.3134   -4923037.42046  -3836128.90146                  18529472.8954
        17.7504         18.0004
  20822784.5164   13264527.43545  10305042.82145                  20822787.4344
        11.7504          8.7504
  21458187.6174   14277883.75145
         9.0004
  20968169.1024   -8949295.98645  -4923788.81245                  20968170.4024
         9.2504          5.0004
  19641430.2814   -6720894.40446  -5237051.68046                  19641432.7194
        17.0004         17.7504
  23365456.3834    3648817.39442     50354.59341                  23365461.3284
         4.5004          1.0004
 98  6 15 20 45 30.0000000  0  7G 5G 6G30G10G26G17G13
  22959305.2034   20410514.16541  15904275.39541                  22959313.2344
         3.5004          1.2504
  18530795.6884   -4916076.53846  -3830704.83646                  18530797.1054
        17.7504         18.0004
  20834740.0944   13327356.07245  10354000.17445                  20834742.7074
        11.7504          8.5004
  21470137.2584   14340676.81345     16311.90655                  21470141.4774
         9.0004          4.5004
  20965183.2034   -8964987.98945  -4936016.27745                  20965185.2774
         9.7504          5.0004
  19641046.4224   -6722911.06046  -5238623.08646                  19641049.0234
        17.2504         18.2504
  23372325.4694    3684916.92742     78484.12441                  23372324.8834
         4.2504          0.5004
 98  6 15 20 45 45.0000000  0  7G 5G 6G30G10G26G17G13
  22972231.1484   20478439.46141  15957203.97741                  22972240.0594
         3.2504          1.0004
  18532143.9144   -4908991.89946  -3825184.33146                  18532145.6604
        18.0004         18.2504
  20846710.1414   13390260.19445  10403016.34945                  20846712.8134
        11.5004          8.0004
  21482100.0084   14403539.99745     65296.19344                  21482104.8834
         8.7504          4.2504
  20962218.7584   -8980566.10845  -4948155.04545                  20962222.1914
         9.0004          4.7504
  19640673.5864   -6724869.39846  -5240149.05946                  19640676.0944
        17.0004         18.0004
  23379223.8134    3721159.67042    106725.25041                  23379221.2704
         4.5004          0.7504
 98  6 15 20 46  0.0000000  0  7G 5G 6G30G10G26G17G13
  22985161.2814   20546387.06241  16010149.92541                  22985171.9144
         3.5004          1.0004
  18533516.1414   -4901781.50546  -3819565.84346                  18533517.8284
        18.0004         18.2504
  20858694.4144   13453237.91045  10452089.84645                  20858697.2854
        11.5004          8.0004
  21494076.5784   14466478.31445    114339.03445                  21494080.4804
         9.0004          4.5004
  20959276.4774   -8996027.13445  -4960202.55645                  20959280.2504
         9.2504          5.0004
  19640312.2664   -6726769.10946  -5241629.34746                  19640314.9844
        17.0004         18.7504
  23386146.9384    3757550.24442    135081.53541                  23386150.3134
         4.2504          1.0004
 98  6 15 20 46 15.0000000  0  7G 5G 6G30G10G26G17G13
  22998094.8134   20614356.80041  16063113.23641                  22998105.4804
         3.5004          1.2504
  18534912.7274   -4894441.43046  -3813846.30246                  18534914.1684
        18.0004         17.7504
  20870692.1724   13516285.71045  10501217.96745                  20870694.7274
        11.5004          7.7504
  21506067.8054   14529493.70345    163441.88244                  21506071.4144
         9.0004          4.2504
  20956356.1484   -9011373.83845  -4972160.99445                  20956358.5164
         9.5004          5.0004
  19639962.5554   -6728608.71146  -5243062.79446                  19639965.2274
        17.0004         18.0004
  23393100.5004    3794088.15642    163552.61041                  23393104.5784
         3.7504          1.0004
 98  6 15 20 46 30.0000000  0  7G 5G 6G30G10G26G17G13
  23011031.4224   20682340.87241  16116087.64342                  23011043.3204
         3.2504          1.5004
  18536334.1024   -4886973.33546  -3808026.99646                  18536335.5554
        18.0004         18.2504
  20882702.7504   13579400.04745  10550397.94445                  20882704.6954
        11.7504          8.5004
  21518073.8204   14592584.93945    212603.86545                  21518078.6954
         9.0004          4.5004
  20953456.8364   -9026609.06245  -4984032.51445                  20953458.6174
         9.7504          5.2504
  19639622.4844   -6730393.32746  -5244453.39546                  19639625.2974
        16.7504         18.2504
  23400080.7974    3830770.27542    192136.14541                  23400077.5394
         4.0004          1.0004
 98  6 15 20 46 45.0000000  0  7G 5G 6G30G10G26G17G13
  23023972.3834   20750336.32641  16169070.93341                  23023979.0514
         3.5004          1.0004
  18537779.3284   -4879377.31346  -3802108.02446                  18537781.2154
        17.7504         18.0004
  20894725.4694   13642580.45545  10599629.38645                  20894727.9304
        11.5004          8.2504
  21530093.9924   14655752.41145    261825.26944                  21530099.6054
         8.7504          3.7504
  20950579.4144   -9041730.16045  -4995815.17845                  20950581.5594
         9.2504          5.0004
  19639293.7424   -6732121.66446  -5245800.14546                  19639296.7304
        17.0004         18.2504
  23407088.4694    3867596.98942
         4.2504
 98  6 15 20 47  0.0000000  0  7G 5G 6G30G10G26G17G13
  23036912.9224   20818342.42941  16222062.47241                  23036918.9454
         3.5004          1.2504
  18539249.4304   -4871652.50346  -3796088.68446                  18539250.8484
        18.0004         18.2504
  20906761.3364   13705828.18245  10648913.36645                  20906764.2074
        11.5004          4.7504
  21542129.2664   14718997.80045    311107.08441                  21542145.7464
         8.5004          1.0004
  20947723.5554   -9056736.88245  -5007508.66445                  20947725.3244
         9.5004          5.5004
  19638977.0084   -6733786.03446  -5247097.04946                  19638979.7624
        17.0004         18.2504
  23414124.0784    3904568.44642
         3.7504
 98  6 15 20 47 15.0000000  0  7G 5G 6G30G10G26G17G13
  23049855.2114   20886356.94941  16275060.64541                  23049859.1134
         3.5004          0.5004
  18540744.0314   -4863799.11446  -3789969.15246                  18540745.4494
        18.0004         18.5004
  20918810.2114   13769145.72045  10698251.58245                  20918812.9414
        11.7504          7.0004
  21554179.0234   14782320.61945
         8.2504
  20944888.8524   -9071631.50045  -5019114.82845                  20944891.4304
         9.0004          5.2504
  19638673.7424   -6735381.31746  -5248340.11546                  19638676.5314
        17.0004         18.7504
  23421187.4924    3941683.84442
         3.7504
 98  6 15 20 47 30.0000000  0  7G 5G 6G30G10G26G17G13
  23062799.3284   20954376.60041  16328062.83541                  23062806.4804
         3.5004          0.5004
  18542263.1644   -4855815.88646  -3783748.45746                  18542264.6764
        18.0004         18.2504
  20930873.1884   13832535.06845  10747645.87245                  20930875.2624
        11.7504          8.2504
  21566243.8834   14845720.64045
         8.5004
  20942076.5314   -9086411.81145  -5030631.87845                  20942079.3204
         9.2504          5.7504
  19638383.6884   -6736906.59446  -5249528.64046                  19638386.2664
        17.0004         18.2504
  23428277.3674    3978942.19442
         4.0004
 98  6 15 20 47 45.0000000  0  7G 5G 6G30G10G26G17G13
  23075743.813    21022396.061 2
         3.750
  18543807.0784   -4847702.14446  -3777426.05846                  18543808.4384
        18.0004         17.7504
  20942948.9694   13895996.62245  10797096.40045                  20942951.0784
        11.0004          7.7504
  21578323.1564   14909197.90545
         8.5004
  20939286.3984   -9101074.38145  -5042057.23845                  20939290.2074
         9.5004          5.2504
  19638107.4064   -6738356.66246  -5250658.55346                  19638110.2424
        17.0004         18.5004
  23435393.9224    4016342.26442
         3.7504
 98  6 15 20 48  0.0000000  0  7G 5G 6G30G10G26G17G13
  23088685.727    21090411.933 1
         3.000
  18545375.8364   -4839457.00346  -3771001.26846                  18545377.2424
        18.0004         18.0004
  20955039.0084   13959531.26145  10846603.88245                  20955041.7034
        11.5004          8.0004
  21590417.9454   14972753.60245      9906.04655                  21590423.1604
         8.5004          4.5004
  20936518.8674   -9115616.08345  -5053388.40445                  20936522.9574
         8.7504          5.0004
  19637846.7894   -6739725.37246  -5251725.08046                  19637849.5314
        17.2504         18.2504
  23442538.3914    4053885.45142
         4.0004
 98  6 15 20 48 15.0000000  0  7G 5G 6G30G10G26G17G13
  23101629.2974   21158421.31241
         3.2504
  18546969.8134   -4831082.08346  -3764475.35746                  18546971.3834
        18.0004         18.0004
  20967143.6804   14023139.61245  10896168.78945                  20967146.6804
        11.2504          8.2504
  21602526.2194   15036385.07245     59489.00545                  21602532.5474
         8.5004          4.5004
  20933774.2344   -9130039.23445  -5064627.15345                  20933776.8134
         9.2504          5.2504
  19637602.1954   -6741010.81246  -5252726.71246                  19637604.9734
        17.5004         18.7504
  23449708.3754    4091568.51541
         3.5004
 98  6 15 20 48 30.0000000  0  7G 5G 6G30G10G26G17G13
  23114568.4924   21226418.59441
         3.2504
  18548586.7504   -4822584.31346  -3757853.71446                  18548588.2734
        18.0004         17.7504
  20979261.1174   14086818.12745  10945788.38545                  20979264.1644
        10.7504          8.0004
  21614647.9144   15100085.60845    109125.73444                  21614653.2114
         8.2504          4.0004
  20931051.8284   -9144347.99745  -5075776.80145                  20931053.6334
         9.0004          5.2504
  19637372.2664   -6742219.38246  -5253668.44946                  19637374.8914
        17.0004         18.2504
  23456904.4534    4129383.30942
         3.7504
 98  6 15 20 48 45.0000000  0  7G 5G 6G30G10G26G17G13
  23127506.9304   21294410.50841     35316.48551                  23127512.2384
         3.5004          0.7504
  18550228.4534   -4813957.07846  -3751131.19246                  18550229.6484
        18.0004         17.7504
  20991394.1174   14150577.83145  10995471.24145                  20991396.9304
        10.7504          8.0004
  21626783.9454   15163859.93845    158819.98044                  21626789.2774
         8.5004          4.0004
  20928352.2664   -9158532.14045  -5086829.32345                  20928355.2664
         8.7504          5.2504
  19637158.8134   -6743342.07446  -5254543.26046                  19637161.6134
        17.0004         18.5004
  23464128.0784    4167337.65342
         4.2504
 98  6 15 20 49  0.0000000  0  7G 5G 6G30G10G26G17G13
  23140444.1724   21362394.85041     88291.11041                  23140454.3134
         3.2504          1.2504
  18551894.2974   -4805204.04346  -3744310.65046                  18551895.6914
        18.2504         17.7504
  21003541.8364   14214412.23745  11045212.30645                  21003544.6134
        10.7504          8.0004
  21638932.1484   15227702.65645    208567.52245                  21638938.4304
         8.5004          4.5004
  20925676.0784   -9172596.94145  -5097788.86545                  20925679.1024
         9.2504          5.2504
  19636960.6024   -6744382.28746  -5255353.81146                  19636963.5314
        17.0004         18.5004
  23471374.3984    4205425.61541
         3.5004
 98  6 15 20 49 15.0000000  0  7G 5G 6G30G10G26G17G13
  23153380.2974   21430371.46941    141259.67341                  23153391.0004
         3.2504          1.0004
  18553583.8674   -4796324.96946  -3737391.88546                  18553585.1454
        18.0004         17.7504
  21015703.3364   14278321.63645  11095011.78545                  21015705.6214
        10.7504          5.5004
  21651094.6334   15291613.53945
         8.5004
  20923021.6484   -9186542.72945  -5108655.66245                  20923023.9344
         9.2504          5.2504
  19636777.9224   -6745343.77946  -5256103.02246                  19636780.5704
        17.0004         18.2504
  23478648.9224    4243645.03942     21846.82051                  23478651.6174
         4.2504          0.5004
 98  6 15 20 49 30.0000000  0  7G 5G 6G30G10G26G17G13
  23166312.5634   21498337.46441    194219.96641                  23166321.7894
         3.0004          1.2504
  18555296.7664   -4787323.77546  -3730377.96846                  18555298.2074
        18.0004         17.5004
  21027878.0864   14342302.37945  11144866.87745                  21027881.4734
        10.7504          7.0004
  21663268.2424   15355587.94045
         8.5004
  20920391.0084   -9200369.15245  -5119429.46345                  20920393.3404
         9.5004          5.2504
  19636608.3284   -6746233.97746  -5256796.67346                  19636611.1414
        17.2504         18.2504
  23485946.7974    4281994.41242
         4.5004
 98  6 15 20 49 45.0000000  0  7G 5G 6G30G10G26G17G13
  23179245.7894   21566296.61341    247174.93841                  23179254.4534
         3.2504          1.0004
  18557033.5784   -4778196.15446  -3723265.53446                  18557034.9144
        18.2504         17.5004
  21040067.1724   14406356.75945  11194779.34545                  21040070.4304
        10.7504          7.0004
  21675455.4454   15419628.95445
         8.5004
  20917783.1804   -9214071.48745  -5130106.56045                  20917786.5084
         9.2504          5.0004
  19636453.1644   -6747049.69146  -5257432.28646                  19636455.8484
        17.2504         18.7504
  23493268.9064    4320477.83441
         3.5004
 98  6 15 20 50  0.0000000  0  7G 5G 6G30G10G26G17G13
  23192176.2034   21634248.38441    300124.14141                  23192182.0394
         3.0004          0.5004
  18558794.1884   -4768945.10346  -3716056.92246                  18558795.6054
        18.0004         17.5004
  21052269.6094   14470479.26045  11244744.88245                  21052272.1884
        10.7504          7.5004
  21687653.4534   15483732.58345
         8.5004
  20915199.6174   -9227652.06145  -5140688.77945                  20915202.6174
         9.7504          5.5004
  19636311.1644   -6747796.14546  -5258013.93246                  19636314.0124
        17.5004         18.7504
  23500617.2344    4359095.29342
         4.2504
 98  6 15 20 50 15.0000000  0  7G 5G 6G30G10G26G17G13
  23205107.8754   21702199.57741    353073.03041                  23205110.8164
         3.0004          0.7504
  18560578.0944   -4759568.96946  -3708750.85246                  18560579.5234
        18.2504         17.5004
  21064485.4144   14534672.66145  11294765.68345                  21064488.1804
        11.0004          7.7504
  21699864.2894   15547898.68845      6664.77754                  21699871.5704
         8.5004          3.5004
  20912637.8524   -9241110.98945  -5151176.19945                  20912639.4804
         9.2504          5.5004
  19636181.5474   -6748476.81846  -5258544.32346                  19636184.2544
        17.2504         19.0004
  23507991.9694    4397850.33342
         4.2504
 98  6 15 20 50 30.0000000  0  7G 5G 6G30G10G26G17G13
  23218039.2274   21770152.69441    406023.29141                  23218048.5824
         3.0004          0.7504
  18562386.2584   -4750068.11246  -3701347.58446                  18562387.6054
        18.0004         17.5004
  21076714.6954   14598936.90845  11344841.68245                  21076717.9304
        11.0004          7.2504
  21712086.7344   15612126.57145     56712.44544                  21712092.7814
         8.5004          4.0004
  20910099.8834   -9254448.54345  -5161569.05745                  20910101.5824
        10.0004          5.5004
  19636064.1254   -6749094.06746  -5259025.28646                  19636066.8914
        17.0004         18.2504
  23515392.9924    4436743.08742
         3.7504
 98  6 15 20 50 45.0000000  0  7G 5G 6G30G10G26G17G13
  23230970.2194   21838101.24441    458970.00841                  23230974.4264
         3.0004          1.0004
  18564217.5314   -4740445.65146  -3693849.56146                  18564218.7974
        18.0004         17.2504
  21088955.8284   14663265.88745  11394968.10545                  21088958.7114
        10.7504          7.0004
  21724320.0554   15676412.03145    106805.01244                  21724324.7664
         8.2504          3.5004
  20907583.9844   -9267668.65645  -5171870.40945                  20907585.7664
        10.0004          5.5004
  19635957.3284   -6749655.36846  -5259462.66346                  19635960.2704
        17.2504         18.7504
  23522820.4064    4475768.69542
         4.2504
 98  6 15 20 51  0.0000000  0  7G 5G 6G30G10G26G17G13
  23243898.4694   21906051.02041    511917.81541                  23243910.3674
         3.0004          1.0004
  18566073.0394   -4730695.00646  -3686251.65946                  18566074.2344
        18.0004         17.5004
  21101210.7504   14727663.33945  11445147.91845                  21101213.9734
        11.2504          7.2504
  21736564.3594   15740757.55345    156944.33444                  21736569.2814
         8.2504          4.0004
  20905091.5944   -9280768.67145  -5182078.15645                  20905093.7154
        10.0004          5.5004
  19635861.6954   -6750156.40646  -5259853.07346                  19635864.7424
        16.7504         18.5004
  23530271.7504    4514932.20541
         3.5004
 98  6 15 20 51 15.0000000  0  8G 5G 6G30G10G26G17G21G13
  23256828.1094   21973997.24141    564862.67941                  23256833.6884
         3.0004          0.7504
  18567951.5944   -4720822.38046  -3678558.70446                  18567952.8484
        18.0004         17.2504
  21113476.4384   14792121.41845  11495374.96445                  21113479.8594
        10.7504          7.2504
  21748818.7034   15805155.10145    207124.22344                  21748823.2854
         8.2504          3.5004
  20902620.1254   -9293754.32045  -5192196.83545                  20902621.5904
         9.7504          5.5004
  19635777.0704   -6750601.74146  -5260200.08146                  19635779.9304
        17.2504         18.5004
  24074498.0314     -29367.94151
         2.7504
  23537749.9144    4554226.46742
         3.7504
